<?xml version="1.0" encoding="UTF-8" standalone="no" ?>
<gpx xmlns="http://www.topografix.com/GPX/1/1" xmlns:xsi="http://www.w3.org/2001/XMLSchema-instance" xsi:schemaLocation="http://www.topografix.com/GPX/1/1 http://www.topografix.com/GPX/1/1/gpx.xsd" version="1.1" creator="VisuGPX - https://www.visugpx.com">
  <metadata>
    <name>RANDO VTT LES BADRAIS .</name>
    <desc><![CDATA[JOLIE PARCOUR AUTOUR DE CHAUSSAN .EN PASSANT PAR LE SIGNAL DE ST ANDRE .]]></desc>
  </metadata>
  <trk>
    <name><![CDATA[RANDO VTT LES BADRAIS ._1]]></name>
    <trkseg>
      <trkpt lat="45.59952" lon="4.60543">
        <ele>485.7</ele>
        <time>2015-04-26T05:37:15Z</time>
      </trkpt>
      <trkpt lat="45.59952" lon="4.60537">
        <ele>485.6</ele>
        <time>2015-04-26T05:37:20Z</time>
      </trkpt>
      <trkpt lat="45.59948" lon="4.6053">
        <ele>485.7</ele>
        <time>2015-04-26T05:37:25Z</time>
      </trkpt>
      <trkpt lat="45.59942" lon="4.60527">
        <ele>486.3</ele>
        <time>2015-04-26T05:37:30Z</time>
      </trkpt>
      <trkpt lat="45.59937" lon="4.60518">
        <ele>486.6</ele>
        <time>2015-04-26T05:37:35Z</time>
      </trkpt>
      <trkpt lat="45.59925" lon="4.60523">
        <ele>487.6</ele>
        <time>2015-04-26T05:37:40Z</time>
      </trkpt>
      <trkpt lat="45.5991" lon="4.60543">
        <ele>487.7</ele>
        <time>2015-04-26T05:37:45Z</time>
      </trkpt>
      <trkpt lat="45.59895" lon="4.60568">
        <ele>486.7</ele>
        <time>2015-04-26T05:37:50Z</time>
      </trkpt>
      <trkpt lat="45.59878" lon="4.60595">
        <ele>486.2</ele>
        <time>2015-04-26T05:37:55Z</time>
      </trkpt>
      <trkpt lat="45.59862" lon="4.60623">
        <ele>485.8</ele>
        <time>2015-04-26T05:38:00Z</time>
      </trkpt>
      <trkpt lat="45.59843" lon="4.60647">
        <ele>484.3</ele>
        <time>2015-04-26T05:38:05Z</time>
      </trkpt>
      <trkpt lat="45.59832" lon="4.60642">
        <ele>483.2</ele>
        <time>2015-04-26T05:38:10Z</time>
      </trkpt>
      <trkpt lat="45.59827" lon="4.60645">
        <ele>483.3</ele>
        <time>2015-04-26T05:38:15Z</time>
      </trkpt>
      <trkpt lat="45.59825" lon="4.6064">
        <ele>483</ele>
        <time>2015-04-26T05:38:20Z</time>
      </trkpt>
      <trkpt lat="45.59835" lon="4.60647">
        <ele>483.5</ele>
        <time>2015-04-26T05:38:25Z</time>
      </trkpt>
      <trkpt lat="45.59838" lon="4.60658">
        <ele>483.4</ele>
        <time>2015-04-26T05:38:30Z</time>
      </trkpt>
      <trkpt lat="45.59828" lon="4.60675">
        <ele>482.7</ele>
        <time>2015-04-26T05:38:35Z</time>
      </trkpt>
      <trkpt lat="45.59817" lon="4.60695">
        <ele>481.6</ele>
        <time>2015-04-26T05:38:40Z</time>
      </trkpt>
      <trkpt lat="45.59802" lon="4.60718">
        <ele>481.1</ele>
        <time>2015-04-26T05:38:45Z</time>
      </trkpt>
      <trkpt lat="45.59787" lon="4.60747">
        <ele>479.3</ele>
        <time>2015-04-26T05:38:50Z</time>
      </trkpt>
      <trkpt lat="45.59768" lon="4.60775">
        <ele>478.4</ele>
        <time>2015-04-26T05:38:55Z</time>
      </trkpt>
      <trkpt lat="45.59747" lon="4.608">
        <ele>476.8</ele>
        <time>2015-04-26T05:39:00Z</time>
      </trkpt>
      <trkpt lat="45.59727" lon="4.60825">
        <ele>475</ele>
        <time>2015-04-26T05:39:05Z</time>
      </trkpt>
      <trkpt lat="45.59703" lon="4.60847">
        <ele>474.2</ele>
        <time>2015-04-26T05:39:10Z</time>
      </trkpt>
      <trkpt lat="45.59678" lon="4.60873">
        <ele>474.4</ele>
        <time>2015-04-26T05:39:15Z</time>
      </trkpt>
      <trkpt lat="45.59657" lon="4.60897">
        <ele>472.8</ele>
        <time>2015-04-26T05:39:20Z</time>
      </trkpt>
      <trkpt lat="45.59642" lon="4.60913">
        <ele>472.6</ele>
        <time>2015-04-26T05:39:25Z</time>
      </trkpt>
      <trkpt lat="45.59642" lon="4.60923">
        <ele>472.3</ele>
        <time>2015-04-26T05:39:30Z</time>
      </trkpt>
      <trkpt lat="45.5966" lon="4.60938">
        <ele>470.3</ele>
        <time>2015-04-26T05:39:35Z</time>
      </trkpt>
      <trkpt lat="45.59678" lon="4.60935">
        <ele>466.5</ele>
        <time>2015-04-26T05:39:40Z</time>
      </trkpt>
      <trkpt lat="45.59682" lon="4.6092">
        <ele>467.2</ele>
        <time>2015-04-26T05:39:45Z</time>
      </trkpt>
      <trkpt lat="45.59692" lon="4.60905">
        <ele>469</ele>
        <time>2015-04-26T05:39:50Z</time>
      </trkpt>
      <trkpt lat="45.59715" lon="4.60893">
        <ele>468.6</ele>
        <time>2015-04-26T05:39:55Z</time>
      </trkpt>
      <trkpt lat="45.5975" lon="4.6091">
        <ele>461.1</ele>
        <time>2015-04-26T05:40:00Z</time>
      </trkpt>
      <trkpt lat="45.59762" lon="4.60942">
        <ele>462.1</ele>
        <time>2015-04-26T05:40:05Z</time>
      </trkpt>
      <trkpt lat="45.59752" lon="4.6098">
        <ele>458.2</ele>
        <time>2015-04-26T05:40:10Z</time>
      </trkpt>
      <trkpt lat="45.59732" lon="4.61008">
        <ele>452.2</ele>
        <time>2015-04-26T05:40:15Z</time>
      </trkpt>
      <trkpt lat="45.59725" lon="4.61043">
        <ele>448.5</ele>
        <time>2015-04-26T05:40:20Z</time>
      </trkpt>
      <trkpt lat="45.59735" lon="4.61073">
        <ele>446.9</ele>
        <time>2015-04-26T05:40:25Z</time>
      </trkpt>
      <trkpt lat="45.59743" lon="4.611">
        <ele>449.7</ele>
        <time>2015-04-26T05:40:30Z</time>
      </trkpt>
      <trkpt lat="45.59753" lon="4.61125">
        <ele>450.2</ele>
        <time>2015-04-26T05:40:35Z</time>
      </trkpt>
      <trkpt lat="45.5975" lon="4.6116">
        <ele>446.9</ele>
        <time>2015-04-26T05:40:40Z</time>
      </trkpt>
      <trkpt lat="45.59773" lon="4.6119">
        <ele>441.3</ele>
        <time>2015-04-26T05:40:45Z</time>
      </trkpt>
      <trkpt lat="45.59793" lon="4.61235">
        <ele>432.2</ele>
        <time>2015-04-26T05:40:50Z</time>
      </trkpt>
      <trkpt lat="45.59795" lon="4.61293">
        <ele>430.2</ele>
        <time>2015-04-26T05:40:55Z</time>
      </trkpt>
      <trkpt lat="45.59772" lon="4.61315">
        <ele>427.6</ele>
        <time>2015-04-26T05:41:00Z</time>
      </trkpt>
      <trkpt lat="45.5974" lon="4.61332">
        <ele>425.2</ele>
        <time>2015-04-26T05:41:05Z</time>
      </trkpt>
      <trkpt lat="45.59708" lon="4.61357">
        <ele>424.4</ele>
        <time>2015-04-26T05:41:10Z</time>
      </trkpt>
      <trkpt lat="45.5968" lon="4.61382">
        <ele>425.8</ele>
        <time>2015-04-26T05:41:15Z</time>
      </trkpt>
      <trkpt lat="45.59657" lon="4.61422">
        <ele>422.8</ele>
        <time>2015-04-26T05:41:20Z</time>
      </trkpt>
      <trkpt lat="45.59635" lon="4.61465">
        <ele>421.6</ele>
        <time>2015-04-26T05:41:25Z</time>
      </trkpt>
      <trkpt lat="45.59625" lon="4.61513">
        <ele>421</ele>
        <time>2015-04-26T05:41:30Z</time>
      </trkpt>
      <trkpt lat="45.5963" lon="4.61555">
        <ele>422.5</ele>
        <time>2015-04-26T05:41:35Z</time>
      </trkpt>
      <trkpt lat="45.59628" lon="4.61592">
        <ele>417.6</ele>
        <time>2015-04-26T05:41:40Z</time>
      </trkpt>
      <trkpt lat="45.59598" lon="4.61627">
        <ele>412</ele>
        <time>2015-04-26T05:41:45Z</time>
      </trkpt>
      <trkpt lat="45.59567" lon="4.61668">
        <ele>410.7</ele>
        <time>2015-04-26T05:41:50Z</time>
      </trkpt>
      <trkpt lat="45.59548" lon="4.6172">
        <ele>403.3</ele>
        <time>2015-04-26T05:41:55Z</time>
      </trkpt>
      <trkpt lat="45.59563" lon="4.61765">
        <ele>405.6</ele>
        <time>2015-04-26T05:42:00Z</time>
      </trkpt>
      <trkpt lat="45.59563" lon="4.61812">
        <ele>404.6</ele>
        <time>2015-04-26T05:42:05Z</time>
      </trkpt>
      <trkpt lat="45.59563" lon="4.6185">
        <ele>403.6</ele>
        <time>2015-04-26T05:42:10Z</time>
      </trkpt>
      <trkpt lat="45.59562" lon="4.61887">
        <ele>405.1</ele>
        <time>2015-04-26T05:42:15Z</time>
      </trkpt>
      <trkpt lat="45.5956" lon="4.61927">
        <ele>405.8</ele>
        <time>2015-04-26T05:42:20Z</time>
      </trkpt>
      <trkpt lat="45.59565" lon="4.61978">
        <ele>401.9</ele>
        <time>2015-04-26T05:42:25Z</time>
      </trkpt>
      <trkpt lat="45.59575" lon="4.62023">
        <ele>401.3</ele>
        <time>2015-04-26T05:42:30Z</time>
      </trkpt>
      <trkpt lat="45.5958" lon="4.62048">
        <ele>396.1</ele>
        <time>2015-04-26T05:42:35Z</time>
      </trkpt>
      <trkpt lat="45.5958" lon="4.62072">
        <ele>393.7</ele>
        <time>2015-04-26T05:42:40Z</time>
      </trkpt>
      <trkpt lat="45.59567" lon="4.62102">
        <ele>391.7</ele>
        <time>2015-04-26T05:42:45Z</time>
      </trkpt>
      <trkpt lat="45.59545" lon="4.6215">
        <ele>389.1</ele>
        <time>2015-04-26T05:42:50Z</time>
      </trkpt>
      <trkpt lat="45.59523" lon="4.62208">
        <ele>384.6</ele>
        <time>2015-04-26T05:42:55Z</time>
      </trkpt>
      <trkpt lat="45.59517" lon="4.62278">
        <ele>378.1</ele>
        <time>2015-04-26T05:43:00Z</time>
      </trkpt>
      <trkpt lat="45.59508" lon="4.62353">
        <ele>373</ele>
        <time>2015-04-26T05:43:05Z</time>
      </trkpt>
      <trkpt lat="45.59498" lon="4.6243">
        <ele>369.4</ele>
        <time>2015-04-26T05:43:10Z</time>
      </trkpt>
      <trkpt lat="45.59497" lon="4.6251">
        <ele>363.4</ele>
        <time>2015-04-26T05:43:15Z</time>
      </trkpt>
      <trkpt lat="45.59493" lon="4.6259">
        <ele>360.4</ele>
        <time>2015-04-26T05:43:20Z</time>
      </trkpt>
      <trkpt lat="45.5949" lon="4.62663">
        <ele>353.2</ele>
        <time>2015-04-26T05:43:25Z</time>
      </trkpt>
      <trkpt lat="45.59493" lon="4.6272">
        <ele>350.2</ele>
        <time>2015-04-26T05:43:30Z</time>
      </trkpt>
      <trkpt lat="45.5951" lon="4.62763">
        <ele>352.5</ele>
        <time>2015-04-26T05:43:35Z</time>
      </trkpt>
      <trkpt lat="45.5953" lon="4.62807">
        <ele>352.1</ele>
        <time>2015-04-26T05:43:40Z</time>
      </trkpt>
      <trkpt lat="45.59548" lon="4.62847">
        <ele>352.2</ele>
        <time>2015-04-26T05:43:45Z</time>
      </trkpt>
      <trkpt lat="45.59557" lon="4.62888">
        <ele>354</ele>
        <time>2015-04-26T05:43:50Z</time>
      </trkpt>
      <trkpt lat="45.5956" lon="4.6293">
        <ele>355.3</ele>
        <time>2015-04-26T05:43:55Z</time>
      </trkpt>
      <trkpt lat="45.59568" lon="4.62968">
        <ele>356.5</ele>
        <time>2015-04-26T05:44:00Z</time>
      </trkpt>
      <trkpt lat="45.59577" lon="4.63005">
        <ele>356.6</ele>
        <time>2015-04-26T05:44:05Z</time>
      </trkpt>
      <trkpt lat="45.5958" lon="4.63043">
        <ele>356.6</ele>
        <time>2015-04-26T05:44:10Z</time>
      </trkpt>
      <trkpt lat="45.59585" lon="4.6308">
        <ele>357.1</ele>
        <time>2015-04-26T05:44:15Z</time>
      </trkpt>
      <trkpt lat="45.59587" lon="4.63123">
        <ele>356.7</ele>
        <time>2015-04-26T05:44:20Z</time>
      </trkpt>
      <trkpt lat="45.59592" lon="4.6317">
        <ele>353.7</ele>
        <time>2015-04-26T05:44:25Z</time>
      </trkpt>
      <trkpt lat="45.5962" lon="4.63197">
        <ele>352.3</ele>
        <time>2015-04-26T05:44:30Z</time>
      </trkpt>
      <trkpt lat="45.59635" lon="4.6323">
        <ele>352.6</ele>
        <time>2015-04-26T05:44:35Z</time>
      </trkpt>
      <trkpt lat="45.59628" lon="4.63265">
        <ele>354</ele>
        <time>2015-04-26T05:44:40Z</time>
      </trkpt>
      <trkpt lat="45.59628" lon="4.63282">
        <ele>354.8</ele>
        <time>2015-04-26T05:44:45Z</time>
      </trkpt>
      <trkpt lat="45.59625" lon="4.63283">
        <ele>354.8</ele>
        <time>2015-04-26T05:44:50Z</time>
      </trkpt>
      <trkpt lat="45.59627" lon="4.63288">
        <ele>355.1</ele>
        <time>2015-04-26T05:44:55Z</time>
      </trkpt>
      <trkpt lat="45.59633" lon="4.6328">
        <ele>355.2</ele>
        <time>2015-04-26T05:45:00Z</time>
      </trkpt>
      <trkpt lat="45.59633" lon="4.63285">
        <ele>355.8</ele>
        <time>2015-04-26T05:45:05Z</time>
      </trkpt>
      <trkpt lat="45.59622" lon="4.6329">
        <ele>355.5</ele>
        <time>2015-04-26T05:45:10Z</time>
      </trkpt>
      <trkpt lat="45.59617" lon="4.63322">
        <ele>354.4</ele>
        <time>2015-04-26T05:45:15Z</time>
      </trkpt>
      <trkpt lat="45.59612" lon="4.6336">
        <ele>353.4</ele>
        <time>2015-04-26T05:45:20Z</time>
      </trkpt>
      <trkpt lat="45.59608" lon="4.63402">
        <ele>352.7</ele>
        <time>2015-04-26T05:45:25Z</time>
      </trkpt>
      <trkpt lat="45.59595" lon="4.63442">
        <ele>350.7</ele>
        <time>2015-04-26T05:45:30Z</time>
      </trkpt>
      <trkpt lat="45.59577" lon="4.63492">
        <ele>347</ele>
        <time>2015-04-26T05:45:35Z</time>
      </trkpt>
      <trkpt lat="45.59575" lon="4.6356">
        <ele>342.5</ele>
        <time>2015-04-26T05:45:40Z</time>
      </trkpt>
      <trkpt lat="45.59563" lon="4.63633">
        <ele>339</ele>
        <time>2015-04-26T05:45:45Z</time>
      </trkpt>
      <trkpt lat="45.59547" lon="4.6371">
        <ele>334</ele>
        <time>2015-04-26T05:45:50Z</time>
      </trkpt>
      <trkpt lat="45.59533" lon="4.63785">
        <ele>329.6</ele>
        <time>2015-04-26T05:45:55Z</time>
      </trkpt>
      <trkpt lat="45.59527" lon="4.63852">
        <ele>327</ele>
        <time>2015-04-26T05:46:00Z</time>
      </trkpt>
      <trkpt lat="45.5952" lon="4.6391">
        <ele>327</ele>
        <time>2015-04-26T05:46:05Z</time>
      </trkpt>
      <trkpt lat="45.59525" lon="4.63947">
        <ele>329.5</ele>
        <time>2015-04-26T05:46:10Z</time>
      </trkpt>
      <trkpt lat="45.59535" lon="4.63985">
        <ele>330.5</ele>
        <time>2015-04-26T05:46:15Z</time>
      </trkpt>
      <trkpt lat="45.59538" lon="4.64018">
        <ele>328.1</ele>
        <time>2015-04-26T05:46:20Z</time>
      </trkpt>
      <trkpt lat="45.59543" lon="4.64042">
        <ele>333</ele>
        <time>2015-04-26T05:46:25Z</time>
      </trkpt>
      <trkpt lat="45.59543" lon="4.64067">
        <ele>330.4</ele>
        <time>2015-04-26T05:46:30Z</time>
      </trkpt>
      <trkpt lat="45.5954" lon="4.6409">
        <ele>333.7</ele>
        <time>2015-04-26T05:46:35Z</time>
      </trkpt>
      <trkpt lat="45.5953" lon="4.64115">
        <ele>333.7</ele>
        <time>2015-04-26T05:46:40Z</time>
      </trkpt>
      <trkpt lat="45.5952" lon="4.64145">
        <ele>335.7</ele>
        <time>2015-04-26T05:46:45Z</time>
      </trkpt>
      <trkpt lat="45.5951" lon="4.64172">
        <ele>336</ele>
        <time>2015-04-26T05:46:50Z</time>
      </trkpt>
      <trkpt lat="45.59502" lon="4.64197">
        <ele>336.2</ele>
        <time>2015-04-26T05:46:55Z</time>
      </trkpt>
      <trkpt lat="45.59493" lon="4.64223">
        <ele>337.1</ele>
        <time>2015-04-26T05:47:00Z</time>
      </trkpt>
      <trkpt lat="45.5948" lon="4.6425">
        <ele>336.7</ele>
        <time>2015-04-26T05:47:05Z</time>
      </trkpt>
      <trkpt lat="45.59465" lon="4.64273">
        <ele>337.2</ele>
        <time>2015-04-26T05:47:10Z</time>
      </trkpt>
      <trkpt lat="45.59453" lon="4.64297">
        <ele>338.4</ele>
        <time>2015-04-26T05:47:15Z</time>
      </trkpt>
      <trkpt lat="45.59458" lon="4.64318">
        <ele>336.8</ele>
        <time>2015-04-26T05:47:20Z</time>
      </trkpt>
      <trkpt lat="45.59458" lon="4.64347">
        <ele>337.2</ele>
        <time>2015-04-26T05:47:25Z</time>
      </trkpt>
      <trkpt lat="45.59453" lon="4.6438">
        <ele>336.4</ele>
        <time>2015-04-26T05:47:30Z</time>
      </trkpt>
      <trkpt lat="45.59445" lon="4.64413">
        <ele>335.6</ele>
        <time>2015-04-26T05:47:35Z</time>
      </trkpt>
      <trkpt lat="45.59427" lon="4.64443">
        <ele>334</ele>
        <time>2015-04-26T05:47:40Z</time>
      </trkpt>
      <trkpt lat="45.59413" lon="4.64465">
        <ele>333.5</ele>
        <time>2015-04-26T05:47:45Z</time>
      </trkpt>
      <trkpt lat="45.59412" lon="4.64467">
        <ele>333.4</ele>
        <time>2015-04-26T05:47:50Z</time>
      </trkpt>
      <trkpt lat="45.5941" lon="4.64468">
        <ele>332.9</ele>
        <time>2015-04-26T05:47:55Z</time>
      </trkpt>
      <trkpt lat="45.59408" lon="4.64478">
        <ele>333.2</ele>
        <time>2015-04-26T05:48:05Z</time>
      </trkpt>
      <trkpt lat="45.594" lon="4.64485">
        <ele>333.6</ele>
        <time>2015-04-26T05:48:10Z</time>
      </trkpt>
      <trkpt lat="45.59388" lon="4.64497">
        <ele>334.3</ele>
        <time>2015-04-26T05:48:15Z</time>
      </trkpt>
      <trkpt lat="45.59372" lon="4.64513">
        <ele>334.6</ele>
        <time>2015-04-26T05:48:20Z</time>
      </trkpt>
      <trkpt lat="45.5937" lon="4.64528">
        <ele>333.7</ele>
        <time>2015-04-26T05:48:25Z</time>
      </trkpt>
      <trkpt lat="45.5937" lon="4.64538">
        <ele>333.7</ele>
        <time>2015-04-26T05:48:30Z</time>
      </trkpt>
      <trkpt lat="45.59368" lon="4.64553">
        <ele>334.1</ele>
        <time>2015-04-26T05:48:35Z</time>
      </trkpt>
      <trkpt lat="45.59368" lon="4.6457">
        <ele>335.6</ele>
        <time>2015-04-26T05:48:40Z</time>
      </trkpt>
      <trkpt lat="45.5937" lon="4.64585">
        <ele>335.8</ele>
        <time>2015-04-26T05:48:45Z</time>
      </trkpt>
      <trkpt lat="45.59368" lon="4.64602">
        <ele>338.7</ele>
        <time>2015-04-26T05:48:50Z</time>
      </trkpt>
      <trkpt lat="45.59368" lon="4.64615">
        <ele>339.4</ele>
        <time>2015-04-26T05:48:55Z</time>
      </trkpt>
      <trkpt lat="45.59367" lon="4.64632">
        <ele>342.1</ele>
        <time>2015-04-26T05:49:00Z</time>
      </trkpt>
      <trkpt lat="45.59365" lon="4.6465">
        <ele>343.1</ele>
        <time>2015-04-26T05:49:05Z</time>
      </trkpt>
      <trkpt lat="45.59365" lon="4.64672">
        <ele>344.5</ele>
        <time>2015-04-26T05:49:10Z</time>
      </trkpt>
      <trkpt lat="45.59362" lon="4.64695">
        <ele>345.9</ele>
        <time>2015-04-26T05:49:15Z</time>
      </trkpt>
      <trkpt lat="45.59357" lon="4.6472">
        <ele>346.4</ele>
        <time>2015-04-26T05:49:20Z</time>
      </trkpt>
      <trkpt lat="45.5935" lon="4.64752">
        <ele>344.6</ele>
        <time>2015-04-26T05:49:25Z</time>
      </trkpt>
      <trkpt lat="45.59357" lon="4.6477">
        <ele>345.1</ele>
        <time>2015-04-26T05:49:30Z</time>
      </trkpt>
      <trkpt lat="45.59383" lon="4.64788">
        <ele>345.3</ele>
        <time>2015-04-26T05:49:35Z</time>
      </trkpt>
      <trkpt lat="45.59413" lon="4.64813">
        <ele>343</ele>
        <time>2015-04-26T05:49:40Z</time>
      </trkpt>
      <trkpt lat="45.59438" lon="4.64845">
        <ele>342.8</ele>
        <time>2015-04-26T05:49:45Z</time>
      </trkpt>
      <trkpt lat="45.59463" lon="4.64857">
        <ele>337.6</ele>
        <time>2015-04-26T05:49:50Z</time>
      </trkpt>
      <trkpt lat="45.59492" lon="4.64865">
        <ele>335.5</ele>
        <time>2015-04-26T05:49:55Z</time>
      </trkpt>
      <trkpt lat="45.59518" lon="4.6487">
        <ele>332.9</ele>
        <time>2015-04-26T05:50:00Z</time>
      </trkpt>
      <trkpt lat="45.59547" lon="4.64875">
        <ele>332.2</ele>
        <time>2015-04-26T05:50:05Z</time>
      </trkpt>
      <trkpt lat="45.5957" lon="4.64877">
        <ele>330</ele>
        <time>2015-04-26T05:50:10Z</time>
      </trkpt>
      <trkpt lat="45.59592" lon="4.64882">
        <ele>329.4</ele>
        <time>2015-04-26T05:50:15Z</time>
      </trkpt>
      <trkpt lat="45.59618" lon="4.64885">
        <ele>326.4</ele>
        <time>2015-04-26T05:50:20Z</time>
      </trkpt>
      <trkpt lat="45.59645" lon="4.64887">
        <ele>322.8</ele>
        <time>2015-04-26T05:50:25Z</time>
      </trkpt>
      <trkpt lat="45.5966" lon="4.64892">
        <ele>322.4</ele>
        <time>2015-04-26T05:50:30Z</time>
      </trkpt>
      <trkpt lat="45.59672" lon="4.64923">
        <ele>319.6</ele>
        <time>2015-04-26T05:50:35Z</time>
      </trkpt>
      <trkpt lat="45.59695" lon="4.64962">
        <ele>320.6</ele>
        <time>2015-04-26T05:50:40Z</time>
      </trkpt>
      <trkpt lat="45.5972" lon="4.65008">
        <ele>316.4</ele>
        <time>2015-04-26T05:50:45Z</time>
      </trkpt>
      <trkpt lat="45.59733" lon="4.6505">
        <ele>312.9</ele>
        <time>2015-04-26T05:50:50Z</time>
      </trkpt>
      <trkpt lat="45.59742" lon="4.65095">
        <ele>314.7</ele>
        <time>2015-04-26T05:50:55Z</time>
      </trkpt>
      <trkpt lat="45.59748" lon="4.65142">
        <ele>314.4</ele>
        <time>2015-04-26T05:51:00Z</time>
      </trkpt>
      <trkpt lat="45.59753" lon="4.65192">
        <ele>309.1</ele>
        <time>2015-04-26T05:51:05Z</time>
      </trkpt>
      <trkpt lat="45.59757" lon="4.65242">
        <ele>311.8</ele>
        <time>2015-04-26T05:51:10Z</time>
      </trkpt>
      <trkpt lat="45.59758" lon="4.65292">
        <ele>308.6</ele>
        <time>2015-04-26T05:51:15Z</time>
      </trkpt>
      <trkpt lat="45.59758" lon="4.65335">
        <ele>307.8</ele>
        <time>2015-04-26T05:51:20Z</time>
      </trkpt>
      <trkpt lat="45.59757" lon="4.65368">
        <ele>301.6</ele>
        <time>2015-04-26T05:51:25Z</time>
      </trkpt>
      <trkpt lat="45.59757" lon="4.65403">
        <ele>302.4</ele>
        <time>2015-04-26T05:51:30Z</time>
      </trkpt>
      <trkpt lat="45.59752" lon="4.65443">
        <ele>300.9</ele>
        <time>2015-04-26T05:51:35Z</time>
      </trkpt>
      <trkpt lat="45.59765" lon="4.65468">
        <ele>302</ele>
        <time>2015-04-26T05:51:40Z</time>
      </trkpt>
      <trkpt lat="45.59765" lon="4.65512">
        <ele>300.6</ele>
        <time>2015-04-26T05:51:45Z</time>
      </trkpt>
      <trkpt lat="45.59767" lon="4.65555">
        <ele>303.3</ele>
        <time>2015-04-26T05:51:50Z</time>
      </trkpt>
      <trkpt lat="45.59785" lon="4.6558">
        <ele>305</ele>
        <time>2015-04-26T05:51:55Z</time>
      </trkpt>
      <trkpt lat="45.59803" lon="4.65582">
        <ele>307.6</ele>
        <time>2015-04-26T05:52:00Z</time>
      </trkpt>
      <trkpt lat="45.5982" lon="4.65573">
        <ele>309.7</ele>
        <time>2015-04-26T05:52:05Z</time>
      </trkpt>
      <trkpt lat="45.59838" lon="4.65567">
        <ele>310.3</ele>
        <time>2015-04-26T05:52:10Z</time>
      </trkpt>
      <trkpt lat="45.59857" lon="4.65575">
        <ele>311.2</ele>
        <time>2015-04-26T05:52:15Z</time>
      </trkpt>
      <trkpt lat="45.59873" lon="4.65587">
        <ele>313.5</ele>
        <time>2015-04-26T05:52:20Z</time>
      </trkpt>
      <trkpt lat="45.59892" lon="4.65597">
        <ele>314.7</ele>
        <time>2015-04-26T05:52:25Z</time>
      </trkpt>
      <trkpt lat="45.59908" lon="4.65607">
        <ele>314.1</ele>
        <time>2015-04-26T05:52:30Z</time>
      </trkpt>
      <trkpt lat="45.59927" lon="4.65617">
        <ele>315.6</ele>
        <time>2015-04-26T05:52:35Z</time>
      </trkpt>
      <trkpt lat="45.59947" lon="4.6563">
        <ele>315.7</ele>
        <time>2015-04-26T05:52:40Z</time>
      </trkpt>
      <trkpt lat="45.59968" lon="4.65647">
        <ele>314.5</ele>
        <time>2015-04-26T05:52:45Z</time>
      </trkpt>
      <trkpt lat="45.59993" lon="4.65663">
        <ele>315.5</ele>
        <time>2015-04-26T05:52:50Z</time>
      </trkpt>
      <trkpt lat="45.6002" lon="4.65683">
        <ele>314.1</ele>
        <time>2015-04-26T05:52:55Z</time>
      </trkpt>
      <trkpt lat="45.60048" lon="4.65703">
        <ele>313</ele>
        <time>2015-04-26T05:53:00Z</time>
      </trkpt>
      <trkpt lat="45.60077" lon="4.65728">
        <ele>310.9</ele>
        <time>2015-04-26T05:53:05Z</time>
      </trkpt>
      <trkpt lat="45.60107" lon="4.6576">
        <ele>307</ele>
        <time>2015-04-26T05:53:10Z</time>
      </trkpt>
      <trkpt lat="45.60123" lon="4.65773">
        <ele>304.9</ele>
        <time>2015-04-26T05:53:15Z</time>
      </trkpt>
      <trkpt lat="45.6013" lon="4.65783">
        <ele>304.1</ele>
        <time>2015-04-26T05:53:20Z</time>
      </trkpt>
      <trkpt lat="45.60143" lon="4.658">
        <ele>300.5</ele>
        <time>2015-04-26T05:53:25Z</time>
      </trkpt>
      <trkpt lat="45.60148" lon="4.65817">
        <ele>297.2</ele>
        <time>2015-04-26T05:53:30Z</time>
      </trkpt>
      <trkpt lat="45.60153" lon="4.65832">
        <ele>295.4</ele>
        <time>2015-04-26T05:53:35Z</time>
      </trkpt>
      <trkpt lat="45.60157" lon="4.65843">
        <ele>296.8</ele>
        <time>2015-04-26T05:53:40Z</time>
      </trkpt>
      <trkpt lat="45.60162" lon="4.65855">
        <ele>298.4</ele>
        <time>2015-04-26T05:53:45Z</time>
      </trkpt>
      <trkpt lat="45.60167" lon="4.65863">
        <ele>298.9</ele>
        <time>2015-04-26T05:53:50Z</time>
      </trkpt>
      <trkpt lat="45.6017" lon="4.65877">
        <ele>300.3</ele>
        <time>2015-04-26T05:53:55Z</time>
      </trkpt>
      <trkpt lat="45.60172" lon="4.6589">
        <ele>301.4</ele>
        <time>2015-04-26T05:54:00Z</time>
      </trkpt>
      <trkpt lat="45.6017" lon="4.65905">
        <ele>301.2</ele>
        <time>2015-04-26T05:54:05Z</time>
      </trkpt>
      <trkpt lat="45.60165" lon="4.65922">
        <ele>302.2</ele>
        <time>2015-04-26T05:54:10Z</time>
      </trkpt>
      <trkpt lat="45.60162" lon="4.65937">
        <ele>303.5</ele>
        <time>2015-04-26T05:54:15Z</time>
      </trkpt>
      <trkpt lat="45.60162" lon="4.65952">
        <ele>302.3</ele>
        <time>2015-04-26T05:54:20Z</time>
      </trkpt>
      <trkpt lat="45.6016" lon="4.65967">
        <ele>305.4</ele>
        <time>2015-04-26T05:54:25Z</time>
      </trkpt>
      <trkpt lat="45.60158" lon="4.6598">
        <ele>305.5</ele>
        <time>2015-04-26T05:54:30Z</time>
      </trkpt>
      <trkpt lat="45.6016" lon="4.65985">
        <ele>306.9</ele>
        <time>2015-04-26T05:54:35Z</time>
      </trkpt>
      <trkpt lat="45.60162" lon="4.65993">
        <ele>306.6</ele>
        <time>2015-04-26T05:54:40Z</time>
      </trkpt>
      <trkpt lat="45.60167" lon="4.66008">
        <ele>307.4</ele>
        <time>2015-04-26T05:54:45Z</time>
      </trkpt>
      <trkpt lat="45.6017" lon="4.66023">
        <ele>308.6</ele>
        <time>2015-04-26T05:54:50Z</time>
      </trkpt>
      <trkpt lat="45.60173" lon="4.66037">
        <ele>308.6</ele>
        <time>2015-04-26T05:54:55Z</time>
      </trkpt>
      <trkpt lat="45.60177" lon="4.6605">
        <ele>309.9</ele>
        <time>2015-04-26T05:55:00Z</time>
      </trkpt>
      <trkpt lat="45.60178" lon="4.66065">
        <ele>311.9</ele>
        <time>2015-04-26T05:55:05Z</time>
      </trkpt>
      <trkpt lat="45.60182" lon="4.66082">
        <ele>312.7</ele>
        <time>2015-04-26T05:55:10Z</time>
      </trkpt>
      <trkpt lat="45.60185" lon="4.661">
        <ele>313</ele>
        <time>2015-04-26T05:55:15Z</time>
      </trkpt>
      <trkpt lat="45.60188" lon="4.66117">
        <ele>314.1</ele>
        <time>2015-04-26T05:55:20Z</time>
      </trkpt>
      <trkpt lat="45.60192" lon="4.66135">
        <ele>314.8</ele>
        <time>2015-04-26T05:55:25Z</time>
      </trkpt>
      <trkpt lat="45.60197" lon="4.66152">
        <ele>315.5</ele>
        <time>2015-04-26T05:55:30Z</time>
      </trkpt>
      <trkpt lat="45.60202" lon="4.66168">
        <ele>316</ele>
        <time>2015-04-26T05:55:35Z</time>
      </trkpt>
      <trkpt lat="45.60208" lon="4.66185">
        <ele>316.9</ele>
        <time>2015-04-26T05:55:40Z</time>
      </trkpt>
      <trkpt lat="45.60215" lon="4.66202">
        <ele>319.7</ele>
        <time>2015-04-26T05:55:45Z</time>
      </trkpt>
      <trkpt lat="45.60222" lon="4.66217">
        <ele>320.7</ele>
        <time>2015-04-26T05:55:50Z</time>
      </trkpt>
      <trkpt lat="45.60232" lon="4.66228">
        <ele>321.7</ele>
        <time>2015-04-26T05:55:55Z</time>
      </trkpt>
      <trkpt lat="45.60242" lon="4.66238">
        <ele>322.5</ele>
        <time>2015-04-26T05:56:00Z</time>
      </trkpt>
      <trkpt lat="45.60253" lon="4.66248">
        <ele>323.8</ele>
        <time>2015-04-26T05:56:05Z</time>
      </trkpt>
      <trkpt lat="45.60263" lon="4.6626">
        <ele>324</ele>
        <time>2015-04-26T05:56:10Z</time>
      </trkpt>
      <trkpt lat="45.60275" lon="4.6627">
        <ele>325.1</ele>
        <time>2015-04-26T05:56:15Z</time>
      </trkpt>
      <trkpt lat="45.60287" lon="4.66277">
        <ele>326.4</ele>
        <time>2015-04-26T05:56:20Z</time>
      </trkpt>
      <trkpt lat="45.603" lon="4.66277">
        <ele>327.4</ele>
        <time>2015-04-26T05:56:25Z</time>
      </trkpt>
      <trkpt lat="45.60313" lon="4.66268">
        <ele>327.8</ele>
        <time>2015-04-26T05:56:30Z</time>
      </trkpt>
      <trkpt lat="45.6033" lon="4.66262">
        <ele>328</ele>
        <time>2015-04-26T05:56:35Z</time>
      </trkpt>
      <trkpt lat="45.60347" lon="4.6627">
        <ele>328.5</ele>
        <time>2015-04-26T05:56:40Z</time>
      </trkpt>
      <trkpt lat="45.60368" lon="4.66282">
        <ele>330.2</ele>
        <time>2015-04-26T05:56:45Z</time>
      </trkpt>
      <trkpt lat="45.60388" lon="4.66295">
        <ele>330.6</ele>
        <time>2015-04-26T05:56:50Z</time>
      </trkpt>
      <trkpt lat="45.6041" lon="4.66305">
        <ele>329</ele>
        <time>2015-04-26T05:56:55Z</time>
      </trkpt>
      <trkpt lat="45.60435" lon="4.66317">
        <ele>327.8</ele>
        <time>2015-04-26T05:57:00Z</time>
      </trkpt>
      <trkpt lat="45.60458" lon="4.66332">
        <ele>328.6</ele>
        <time>2015-04-26T05:57:05Z</time>
      </trkpt>
      <trkpt lat="45.60478" lon="4.66353">
        <ele>329.1</ele>
        <time>2015-04-26T05:57:10Z</time>
      </trkpt>
      <trkpt lat="45.60497" lon="4.66373">
        <ele>329.3</ele>
        <time>2015-04-26T05:57:15Z</time>
      </trkpt>
      <trkpt lat="45.6052" lon="4.66383">
        <ele>329.1</ele>
        <time>2015-04-26T05:57:20Z</time>
      </trkpt>
      <trkpt lat="45.60542" lon="4.66395">
        <ele>329.4</ele>
        <time>2015-04-26T05:57:25Z</time>
      </trkpt>
      <trkpt lat="45.60563" lon="4.66412">
        <ele>330.4</ele>
        <time>2015-04-26T05:57:30Z</time>
      </trkpt>
      <trkpt lat="45.60583" lon="4.66428">
        <ele>331.5</ele>
        <time>2015-04-26T05:57:35Z</time>
      </trkpt>
      <trkpt lat="45.60607" lon="4.66445">
        <ele>331.4</ele>
        <time>2015-04-26T05:57:40Z</time>
      </trkpt>
      <trkpt lat="45.60633" lon="4.66463">
        <ele>332.1</ele>
        <time>2015-04-26T05:57:45Z</time>
      </trkpt>
      <trkpt lat="45.6066" lon="4.66482">
        <ele>331.8</ele>
        <time>2015-04-26T05:57:50Z</time>
      </trkpt>
      <trkpt lat="45.60687" lon="4.66497">
        <ele>332</ele>
        <time>2015-04-26T05:57:55Z</time>
      </trkpt>
      <trkpt lat="45.60712" lon="4.66505">
        <ele>332.3</ele>
        <time>2015-04-26T05:58:00Z</time>
      </trkpt>
      <trkpt lat="45.60733" lon="4.66518">
        <ele>331.9</ele>
        <time>2015-04-26T05:58:05Z</time>
      </trkpt>
      <trkpt lat="45.6076" lon="4.66542">
        <ele>331.6</ele>
        <time>2015-04-26T05:58:10Z</time>
      </trkpt>
      <trkpt lat="45.60787" lon="4.66565">
        <ele>330.1</ele>
        <time>2015-04-26T05:58:15Z</time>
      </trkpt>
      <trkpt lat="45.60817" lon="4.66588">
        <ele>329.8</ele>
        <time>2015-04-26T05:58:20Z</time>
      </trkpt>
      <trkpt lat="45.60845" lon="4.66613">
        <ele>327.3</ele>
        <time>2015-04-26T05:58:25Z</time>
      </trkpt>
      <trkpt lat="45.60868" lon="4.66642">
        <ele>328.3</ele>
        <time>2015-04-26T05:58:30Z</time>
      </trkpt>
      <trkpt lat="45.60893" lon="4.66677">
        <ele>329.1</ele>
        <time>2015-04-26T05:58:35Z</time>
      </trkpt>
      <trkpt lat="45.6092" lon="4.66713">
        <ele>326.2</ele>
        <time>2015-04-26T05:58:40Z</time>
      </trkpt>
      <trkpt lat="45.60945" lon="4.6675">
        <ele>323.3</ele>
        <time>2015-04-26T05:58:45Z</time>
      </trkpt>
      <trkpt lat="45.60972" lon="4.66785">
        <ele>321.9</ele>
        <time>2015-04-26T05:58:50Z</time>
      </trkpt>
      <trkpt lat="45.60997" lon="4.6682">
        <ele>322.5</ele>
        <time>2015-04-26T05:58:55Z</time>
      </trkpt>
      <trkpt lat="45.6102" lon="4.66857">
        <ele>322.2</ele>
        <time>2015-04-26T05:59:00Z</time>
      </trkpt>
      <trkpt lat="45.61047" lon="4.66888">
        <ele>320.8</ele>
        <time>2015-04-26T05:59:05Z</time>
      </trkpt>
      <trkpt lat="45.61073" lon="4.6692">
        <ele>318.5</ele>
        <time>2015-04-26T05:59:10Z</time>
      </trkpt>
      <trkpt lat="45.61102" lon="4.66947">
        <ele>319.3</ele>
        <time>2015-04-26T05:59:15Z</time>
      </trkpt>
      <trkpt lat="45.61128" lon="4.66968">
        <ele>317.4</ele>
        <time>2015-04-26T05:59:20Z</time>
      </trkpt>
      <trkpt lat="45.61158" lon="4.66982">
        <ele>314.1</ele>
        <time>2015-04-26T05:59:25Z</time>
      </trkpt>
      <trkpt lat="45.61198" lon="4.66977">
        <ele>311</ele>
        <time>2015-04-26T05:59:30Z</time>
      </trkpt>
      <trkpt lat="45.61247" lon="4.66978">
        <ele>307</ele>
        <time>2015-04-26T05:59:35Z</time>
      </trkpt>
      <trkpt lat="45.61295" lon="4.6698">
        <ele>301.7</ele>
        <time>2015-04-26T05:59:40Z</time>
      </trkpt>
      <trkpt lat="45.61322" lon="4.66978">
        <ele>298.7</ele>
        <time>2015-04-26T05:59:45Z</time>
      </trkpt>
      <trkpt lat="45.61352" lon="4.6697">
        <ele>296.7</ele>
        <time>2015-04-26T05:59:50Z</time>
      </trkpt>
      <trkpt lat="45.61393" lon="4.6696">
        <ele>294.2</ele>
        <time>2015-04-26T05:59:55Z</time>
      </trkpt>
      <trkpt lat="45.61437" lon="4.66957">
        <ele>289.7</ele>
        <time>2015-04-26T06:00:00Z</time>
      </trkpt>
      <trkpt lat="45.61472" lon="4.6699">
        <ele>287.4</ele>
        <time>2015-04-26T06:00:05Z</time>
      </trkpt>
      <trkpt lat="45.615" lon="4.67005">
        <ele>286.8</ele>
        <time>2015-04-26T06:00:10Z</time>
      </trkpt>
      <trkpt lat="45.6153" lon="4.67007">
        <ele>286.9</ele>
        <time>2015-04-26T06:00:15Z</time>
      </trkpt>
      <trkpt lat="45.61555" lon="4.67022">
        <ele>287.9</ele>
        <time>2015-04-26T06:00:20Z</time>
      </trkpt>
      <trkpt lat="45.61575" lon="4.67045">
        <ele>287.3</ele>
        <time>2015-04-26T06:00:25Z</time>
      </trkpt>
      <trkpt lat="45.61573" lon="4.67082">
        <ele>287.2</ele>
        <time>2015-04-26T06:00:30Z</time>
      </trkpt>
      <trkpt lat="45.61557" lon="4.6712">
        <ele>287.5</ele>
        <time>2015-04-26T06:00:35Z</time>
      </trkpt>
      <trkpt lat="45.6154" lon="4.67158">
        <ele>286.5</ele>
        <time>2015-04-26T06:00:40Z</time>
      </trkpt>
      <trkpt lat="45.61527" lon="4.67192">
        <ele>288.9</ele>
        <time>2015-04-26T06:00:45Z</time>
      </trkpt>
      <trkpt lat="45.61517" lon="4.67218">
        <ele>290.3</ele>
        <time>2015-04-26T06:00:50Z</time>
      </trkpt>
      <trkpt lat="45.61523" lon="4.67235">
        <ele>290.9</ele>
        <time>2015-04-26T06:00:55Z</time>
      </trkpt>
      <trkpt lat="45.61527" lon="4.6725">
        <ele>293.9</ele>
        <time>2015-04-26T06:01:00Z</time>
      </trkpt>
      <trkpt lat="45.61525" lon="4.6726">
        <ele>295</ele>
        <time>2015-04-26T06:01:05Z</time>
      </trkpt>
      <trkpt lat="45.61533" lon="4.6727">
        <ele>295.9</ele>
        <time>2015-04-26T06:01:10Z</time>
      </trkpt>
      <trkpt lat="45.61542" lon="4.67283">
        <ele>297.3</ele>
        <time>2015-04-26T06:01:15Z</time>
      </trkpt>
      <trkpt lat="45.6155" lon="4.67297">
        <ele>299.1</ele>
        <time>2015-04-26T06:01:20Z</time>
      </trkpt>
      <trkpt lat="45.61558" lon="4.67307">
        <ele>300.5</ele>
        <time>2015-04-26T06:01:25Z</time>
      </trkpt>
      <trkpt lat="45.61565" lon="4.6732">
        <ele>301.9</ele>
        <time>2015-04-26T06:01:30Z</time>
      </trkpt>
      <trkpt lat="45.61575" lon="4.67335">
        <ele>303.7</ele>
        <time>2015-04-26T06:01:35Z</time>
      </trkpt>
      <trkpt lat="45.61582" lon="4.6735">
        <ele>304.8</ele>
        <time>2015-04-26T06:01:40Z</time>
      </trkpt>
      <trkpt lat="45.61588" lon="4.67365">
        <ele>306.1</ele>
        <time>2015-04-26T06:01:45Z</time>
      </trkpt>
      <trkpt lat="45.61595" lon="4.67383">
        <ele>308.2</ele>
        <time>2015-04-26T06:01:50Z</time>
      </trkpt>
      <trkpt lat="45.61598" lon="4.674">
        <ele>308.6</ele>
        <time>2015-04-26T06:01:55Z</time>
      </trkpt>
      <trkpt lat="45.61605" lon="4.67417">
        <ele>310.1</ele>
        <time>2015-04-26T06:02:00Z</time>
      </trkpt>
      <trkpt lat="45.61612" lon="4.67432">
        <ele>311.1</ele>
        <time>2015-04-26T06:02:05Z</time>
      </trkpt>
      <trkpt lat="45.61618" lon="4.67452">
        <ele>312.3</ele>
        <time>2015-04-26T06:02:10Z</time>
      </trkpt>
      <trkpt lat="45.61627" lon="4.6747">
        <ele>313.5</ele>
        <time>2015-04-26T06:02:15Z</time>
      </trkpt>
      <trkpt lat="45.61633" lon="4.67492">
        <ele>313.5</ele>
        <time>2015-04-26T06:02:20Z</time>
      </trkpt>
      <trkpt lat="45.61643" lon="4.67515">
        <ele>314.1</ele>
        <time>2015-04-26T06:02:25Z</time>
      </trkpt>
      <trkpt lat="45.61658" lon="4.67527">
        <ele>314.8</ele>
        <time>2015-04-26T06:02:30Z</time>
      </trkpt>
      <trkpt lat="45.61668" lon="4.67535">
        <ele>314.6</ele>
        <time>2015-04-26T06:02:35Z</time>
      </trkpt>
      <trkpt lat="45.61667" lon="4.6754">
        <ele>315</ele>
        <time>2015-04-26T06:02:40Z</time>
      </trkpt>
      <trkpt lat="45.61667" lon="4.67532">
        <ele>314.3</ele>
        <time>2015-04-26T06:02:45Z</time>
      </trkpt>
      <trkpt lat="45.6168" lon="4.67543">
        <ele>314.8</ele>
        <time>2015-04-26T06:02:50Z</time>
      </trkpt>
      <trkpt lat="45.61702" lon="4.67553">
        <ele>315.5</ele>
        <time>2015-04-26T06:02:55Z</time>
      </trkpt>
      <trkpt lat="45.61725" lon="4.67565">
        <ele>315.8</ele>
        <time>2015-04-26T06:03:00Z</time>
      </trkpt>
      <trkpt lat="45.61748" lon="4.67575">
        <ele>316.5</ele>
        <time>2015-04-26T06:03:05Z</time>
      </trkpt>
      <trkpt lat="45.61773" lon="4.67587">
        <ele>316.1</ele>
        <time>2015-04-26T06:03:10Z</time>
      </trkpt>
      <trkpt lat="45.61797" lon="4.67598">
        <ele>317.2</ele>
        <time>2015-04-26T06:03:15Z</time>
      </trkpt>
      <trkpt lat="45.61818" lon="4.67608">
        <ele>317</ele>
        <time>2015-04-26T06:03:20Z</time>
      </trkpt>
      <trkpt lat="45.61838" lon="4.67627">
        <ele>318.1</ele>
        <time>2015-04-26T06:03:25Z</time>
      </trkpt>
      <trkpt lat="45.61858" lon="4.6763">
        <ele>318.2</ele>
        <time>2015-04-26T06:03:30Z</time>
      </trkpt>
      <trkpt lat="45.61877" lon="4.67637">
        <ele>318.6</ele>
        <time>2015-04-26T06:03:35Z</time>
      </trkpt>
      <trkpt lat="45.61898" lon="4.67638">
        <ele>319</ele>
        <time>2015-04-26T06:03:40Z</time>
      </trkpt>
      <trkpt lat="45.61918" lon="4.67655">
        <ele>319.5</ele>
        <time>2015-04-26T06:03:45Z</time>
      </trkpt>
      <trkpt lat="45.61942" lon="4.6767">
        <ele>320.4</ele>
        <time>2015-04-26T06:03:50Z</time>
      </trkpt>
      <trkpt lat="45.61967" lon="4.67672">
        <ele>322</ele>
        <time>2015-04-26T06:03:55Z</time>
      </trkpt>
      <trkpt lat="45.61993" lon="4.67678">
        <ele>322.4</ele>
        <time>2015-04-26T06:04:00Z</time>
      </trkpt>
      <trkpt lat="45.62023" lon="4.67688">
        <ele>321.6</ele>
        <time>2015-04-26T06:04:05Z</time>
      </trkpt>
      <trkpt lat="45.62053" lon="4.67698">
        <ele>320.2</ele>
        <time>2015-04-26T06:04:10Z</time>
      </trkpt>
      <trkpt lat="45.62087" lon="4.67707">
        <ele>320.2</ele>
        <time>2015-04-26T06:04:15Z</time>
      </trkpt>
      <trkpt lat="45.62122" lon="4.67712">
        <ele>318.6</ele>
        <time>2015-04-26T06:04:20Z</time>
      </trkpt>
      <trkpt lat="45.62155" lon="4.67718">
        <ele>318.1</ele>
        <time>2015-04-26T06:04:25Z</time>
      </trkpt>
      <trkpt lat="45.6219" lon="4.6772">
        <ele>316.9</ele>
        <time>2015-04-26T06:04:30Z</time>
      </trkpt>
      <trkpt lat="45.62227" lon="4.67723">
        <ele>316.6</ele>
        <time>2015-04-26T06:04:35Z</time>
      </trkpt>
      <trkpt lat="45.62267" lon="4.67735">
        <ele>314.6</ele>
        <time>2015-04-26T06:04:40Z</time>
      </trkpt>
      <trkpt lat="45.62307" lon="4.67737">
        <ele>313.2</ele>
        <time>2015-04-26T06:04:45Z</time>
      </trkpt>
      <trkpt lat="45.6234" lon="4.6773">
        <ele>312</ele>
        <time>2015-04-26T06:04:50Z</time>
      </trkpt>
      <trkpt lat="45.62373" lon="4.6774">
        <ele>312.3</ele>
        <time>2015-04-26T06:04:55Z</time>
      </trkpt>
      <trkpt lat="45.62403" lon="4.67757">
        <ele>312</ele>
        <time>2015-04-26T06:05:00Z</time>
      </trkpt>
      <trkpt lat="45.62432" lon="4.6775">
        <ele>311.5</ele>
        <time>2015-04-26T06:05:05Z</time>
      </trkpt>
      <trkpt lat="45.62463" lon="4.67745">
        <ele>309</ele>
        <time>2015-04-26T06:05:10Z</time>
      </trkpt>
      <trkpt lat="45.62497" lon="4.6774">
        <ele>310.3</ele>
        <time>2015-04-26T06:05:15Z</time>
      </trkpt>
      <trkpt lat="45.62532" lon="4.67735">
        <ele>309.3</ele>
        <time>2015-04-26T06:05:20Z</time>
      </trkpt>
      <trkpt lat="45.62567" lon="4.67733">
        <ele>307.5</ele>
        <time>2015-04-26T06:05:25Z</time>
      </trkpt>
      <trkpt lat="45.62605" lon="4.67733">
        <ele>305.9</ele>
        <time>2015-04-26T06:05:30Z</time>
      </trkpt>
      <trkpt lat="45.62643" lon="4.67737">
        <ele>306.2</ele>
        <time>2015-04-26T06:05:35Z</time>
      </trkpt>
      <trkpt lat="45.62678" lon="4.67737">
        <ele>304.9</ele>
        <time>2015-04-26T06:05:40Z</time>
      </trkpt>
      <trkpt lat="45.62715" lon="4.67738">
        <ele>302.2</ele>
        <time>2015-04-26T06:05:45Z</time>
      </trkpt>
      <trkpt lat="45.6275" lon="4.67747">
        <ele>302.9</ele>
        <time>2015-04-26T06:05:50Z</time>
      </trkpt>
      <trkpt lat="45.62782" lon="4.67757">
        <ele>298.1</ele>
        <time>2015-04-26T06:05:55Z</time>
      </trkpt>
      <trkpt lat="45.62812" lon="4.67755">
        <ele>298.4</ele>
        <time>2015-04-26T06:06:00Z</time>
      </trkpt>
      <trkpt lat="45.62833" lon="4.67747">
        <ele>297.4</ele>
        <time>2015-04-26T06:06:05Z</time>
      </trkpt>
      <trkpt lat="45.62843" lon="4.67745">
        <ele>297</ele>
        <time>2015-04-26T06:06:10Z</time>
      </trkpt>
      <trkpt lat="45.62855" lon="4.67742">
        <ele>297.1</ele>
        <time>2015-04-26T06:06:15Z</time>
      </trkpt>
      <trkpt lat="45.62867" lon="4.67747">
        <ele>298.3</ele>
        <time>2015-04-26T06:06:20Z</time>
      </trkpt>
      <trkpt lat="45.62878" lon="4.67757">
        <ele>299.6</ele>
        <time>2015-04-26T06:06:25Z</time>
      </trkpt>
      <trkpt lat="45.6289" lon="4.6777">
        <ele>300.1</ele>
        <time>2015-04-26T06:06:30Z</time>
      </trkpt>
      <trkpt lat="45.629" lon="4.6777">
        <ele>301.5</ele>
        <time>2015-04-26T06:06:35Z</time>
      </trkpt>
      <trkpt lat="45.62908" lon="4.67772">
        <ele>302.9</ele>
        <time>2015-04-26T06:06:40Z</time>
      </trkpt>
      <trkpt lat="45.62913" lon="4.67772">
        <ele>303.8</ele>
        <time>2015-04-26T06:06:45Z</time>
      </trkpt>
      <trkpt lat="45.62913" lon="4.67772">
        <ele>303.8</ele>
        <time>2015-04-26T06:06:50Z</time>
      </trkpt>
      <trkpt lat="45.62915" lon="4.67772">
        <ele>304.2</ele>
        <time>2015-04-26T06:06:55Z</time>
      </trkpt>
      <trkpt lat="45.62918" lon="4.67773">
        <ele>304.3</ele>
        <time>2015-04-26T06:07:00Z</time>
      </trkpt>
      <trkpt lat="45.62927" lon="4.6777">
        <ele>305.8</ele>
        <time>2015-04-26T06:07:05Z</time>
      </trkpt>
      <trkpt lat="45.62933" lon="4.67767">
        <ele>307.4</ele>
        <time>2015-04-26T06:07:10Z</time>
      </trkpt>
      <trkpt lat="45.62942" lon="4.67763">
        <ele>308.9</ele>
        <time>2015-04-26T06:07:15Z</time>
      </trkpt>
      <trkpt lat="45.62952" lon="4.67762">
        <ele>310.2</ele>
        <time>2015-04-26T06:07:20Z</time>
      </trkpt>
      <trkpt lat="45.62962" lon="4.67762">
        <ele>311.5</ele>
        <time>2015-04-26T06:07:25Z</time>
      </trkpt>
      <trkpt lat="45.62973" lon="4.67758">
        <ele>312.6</ele>
        <time>2015-04-26T06:07:30Z</time>
      </trkpt>
      <trkpt lat="45.62985" lon="4.67755">
        <ele>313.9</ele>
        <time>2015-04-26T06:07:35Z</time>
      </trkpt>
      <trkpt lat="45.62998" lon="4.67753">
        <ele>314.7</ele>
        <time>2015-04-26T06:07:40Z</time>
      </trkpt>
      <trkpt lat="45.63012" lon="4.67753">
        <ele>315.6</ele>
        <time>2015-04-26T06:07:45Z</time>
      </trkpt>
      <trkpt lat="45.63027" lon="4.67753">
        <ele>317</ele>
        <time>2015-04-26T06:07:50Z</time>
      </trkpt>
      <trkpt lat="45.63042" lon="4.67755">
        <ele>317</ele>
        <time>2015-04-26T06:07:55Z</time>
      </trkpt>
      <trkpt lat="45.63057" lon="4.67755">
        <ele>318.5</ele>
        <time>2015-04-26T06:08:00Z</time>
      </trkpt>
      <trkpt lat="45.63073" lon="4.67755">
        <ele>319</ele>
        <time>2015-04-26T06:08:05Z</time>
      </trkpt>
      <trkpt lat="45.63087" lon="4.67753">
        <ele>318.7</ele>
        <time>2015-04-26T06:08:10Z</time>
      </trkpt>
      <trkpt lat="45.63102" lon="4.67753">
        <ele>319.9</ele>
        <time>2015-04-26T06:08:15Z</time>
      </trkpt>
      <trkpt lat="45.63117" lon="4.67753">
        <ele>320</ele>
        <time>2015-04-26T06:08:20Z</time>
      </trkpt>
      <trkpt lat="45.63132" lon="4.67753">
        <ele>321.4</ele>
        <time>2015-04-26T06:08:25Z</time>
      </trkpt>
      <trkpt lat="45.63147" lon="4.67753">
        <ele>323.6</ele>
        <time>2015-04-26T06:08:30Z</time>
      </trkpt>
      <trkpt lat="45.63162" lon="4.67757">
        <ele>325.3</ele>
        <time>2015-04-26T06:08:35Z</time>
      </trkpt>
      <trkpt lat="45.63177" lon="4.67758">
        <ele>326.6</ele>
        <time>2015-04-26T06:08:40Z</time>
      </trkpt>
      <trkpt lat="45.6319" lon="4.67767">
        <ele>327.7</ele>
        <time>2015-04-26T06:08:45Z</time>
      </trkpt>
      <trkpt lat="45.63205" lon="4.67775">
        <ele>327.6</ele>
        <time>2015-04-26T06:08:50Z</time>
      </trkpt>
      <trkpt lat="45.63218" lon="4.67778">
        <ele>329.1</ele>
        <time>2015-04-26T06:08:55Z</time>
      </trkpt>
      <trkpt lat="45.63225" lon="4.67773">
        <ele>329.7</ele>
        <time>2015-04-26T06:09:00Z</time>
      </trkpt>
      <trkpt lat="45.63235" lon="4.6777">
        <ele>329.2</ele>
        <time>2015-04-26T06:09:05Z</time>
      </trkpt>
      <trkpt lat="45.63247" lon="4.67768">
        <ele>332.2</ele>
        <time>2015-04-26T06:09:10Z</time>
      </trkpt>
      <trkpt lat="45.63257" lon="4.67765">
        <ele>333.1</ele>
        <time>2015-04-26T06:09:15Z</time>
      </trkpt>
      <trkpt lat="45.63268" lon="4.67763">
        <ele>334</ele>
        <time>2015-04-26T06:09:20Z</time>
      </trkpt>
      <trkpt lat="45.63283" lon="4.67767">
        <ele>333.6</ele>
        <time>2015-04-26T06:09:25Z</time>
      </trkpt>
      <trkpt lat="45.63297" lon="4.67773">
        <ele>334.2</ele>
        <time>2015-04-26T06:09:30Z</time>
      </trkpt>
      <trkpt lat="45.63313" lon="4.67775">
        <ele>335.7</ele>
        <time>2015-04-26T06:09:35Z</time>
      </trkpt>
      <trkpt lat="45.6333" lon="4.67777">
        <ele>336.1</ele>
        <time>2015-04-26T06:09:40Z</time>
      </trkpt>
      <trkpt lat="45.63345" lon="4.67782">
        <ele>336.7</ele>
        <time>2015-04-26T06:09:45Z</time>
      </trkpt>
      <trkpt lat="45.63362" lon="4.67785">
        <ele>337.3</ele>
        <time>2015-04-26T06:09:50Z</time>
      </trkpt>
      <trkpt lat="45.63377" lon="4.67788">
        <ele>338.9</ele>
        <time>2015-04-26T06:09:55Z</time>
      </trkpt>
      <trkpt lat="45.63393" lon="4.67792">
        <ele>339.2</ele>
        <time>2015-04-26T06:10:00Z</time>
      </trkpt>
      <trkpt lat="45.63408" lon="4.67797">
        <ele>340.6</ele>
        <time>2015-04-26T06:10:05Z</time>
      </trkpt>
      <trkpt lat="45.63423" lon="4.67803">
        <ele>341.5</ele>
        <time>2015-04-26T06:10:10Z</time>
      </trkpt>
      <trkpt lat="45.63438" lon="4.67808">
        <ele>344</ele>
        <time>2015-04-26T06:10:15Z</time>
      </trkpt>
      <trkpt lat="45.63453" lon="4.67813">
        <ele>343.8</ele>
        <time>2015-04-26T06:10:20Z</time>
      </trkpt>
      <trkpt lat="45.6347" lon="4.67817">
        <ele>345.4</ele>
        <time>2015-04-26T06:10:25Z</time>
      </trkpt>
      <trkpt lat="45.63488" lon="4.67822">
        <ele>346.6</ele>
        <time>2015-04-26T06:10:30Z</time>
      </trkpt>
      <trkpt lat="45.63507" lon="4.67823">
        <ele>346.5</ele>
        <time>2015-04-26T06:10:35Z</time>
      </trkpt>
      <trkpt lat="45.63523" lon="4.67823">
        <ele>346.8</ele>
        <time>2015-04-26T06:10:40Z</time>
      </trkpt>
      <trkpt lat="45.63542" lon="4.6782">
        <ele>347.3</ele>
        <time>2015-04-26T06:10:45Z</time>
      </trkpt>
      <trkpt lat="45.6356" lon="4.67817">
        <ele>348.6</ele>
        <time>2015-04-26T06:10:50Z</time>
      </trkpt>
      <trkpt lat="45.63578" lon="4.67815">
        <ele>348.5</ele>
        <time>2015-04-26T06:10:55Z</time>
      </trkpt>
      <trkpt lat="45.63598" lon="4.67812">
        <ele>349.1</ele>
        <time>2015-04-26T06:11:00Z</time>
      </trkpt>
      <trkpt lat="45.63618" lon="4.67813">
        <ele>349.5</ele>
        <time>2015-04-26T06:11:05Z</time>
      </trkpt>
      <trkpt lat="45.63638" lon="4.67812">
        <ele>349.8</ele>
        <time>2015-04-26T06:11:10Z</time>
      </trkpt>
      <trkpt lat="45.63657" lon="4.67812">
        <ele>351.4</ele>
        <time>2015-04-26T06:11:15Z</time>
      </trkpt>
      <trkpt lat="45.63677" lon="4.67812">
        <ele>352.8</ele>
        <time>2015-04-26T06:11:20Z</time>
      </trkpt>
      <trkpt lat="45.63697" lon="4.67812">
        <ele>352.7</ele>
        <time>2015-04-26T06:11:25Z</time>
      </trkpt>
      <trkpt lat="45.63715" lon="4.67812">
        <ele>354.1</ele>
        <time>2015-04-26T06:11:30Z</time>
      </trkpt>
      <trkpt lat="45.63735" lon="4.67808">
        <ele>354.6</ele>
        <time>2015-04-26T06:11:35Z</time>
      </trkpt>
      <trkpt lat="45.63752" lon="4.67808">
        <ele>356</ele>
        <time>2015-04-26T06:11:40Z</time>
      </trkpt>
      <trkpt lat="45.63768" lon="4.67808">
        <ele>358</ele>
        <time>2015-04-26T06:11:45Z</time>
      </trkpt>
      <trkpt lat="45.63783" lon="4.6781">
        <ele>359.5</ele>
        <time>2015-04-26T06:11:50Z</time>
      </trkpt>
      <trkpt lat="45.63802" lon="4.6781">
        <ele>359.8</ele>
        <time>2015-04-26T06:11:55Z</time>
      </trkpt>
      <trkpt lat="45.6382" lon="4.67808">
        <ele>361.1</ele>
        <time>2015-04-26T06:12:00Z</time>
      </trkpt>
      <trkpt lat="45.63837" lon="4.67807">
        <ele>360.4</ele>
        <time>2015-04-26T06:12:05Z</time>
      </trkpt>
      <trkpt lat="45.63857" lon="4.67805">
        <ele>361.7</ele>
        <time>2015-04-26T06:12:10Z</time>
      </trkpt>
      <trkpt lat="45.63875" lon="4.67805">
        <ele>362.4</ele>
        <time>2015-04-26T06:12:15Z</time>
      </trkpt>
      <trkpt lat="45.63895" lon="4.67805">
        <ele>363.3</ele>
        <time>2015-04-26T06:12:20Z</time>
      </trkpt>
      <trkpt lat="45.63915" lon="4.67805">
        <ele>362.9</ele>
        <time>2015-04-26T06:12:25Z</time>
      </trkpt>
      <trkpt lat="45.63933" lon="4.67805">
        <ele>364.4</ele>
        <time>2015-04-26T06:12:30Z</time>
      </trkpt>
      <trkpt lat="45.6395" lon="4.67803">
        <ele>364.2</ele>
        <time>2015-04-26T06:12:35Z</time>
      </trkpt>
      <trkpt lat="45.63965" lon="4.678">
        <ele>364.6</ele>
        <time>2015-04-26T06:12:40Z</time>
      </trkpt>
      <trkpt lat="45.63958" lon="4.6778">
        <ele>365.3</ele>
        <time>2015-04-26T06:12:45Z</time>
      </trkpt>
      <trkpt lat="45.63947" lon="4.67757">
        <ele>366</ele>
        <time>2015-04-26T06:12:50Z</time>
      </trkpt>
      <trkpt lat="45.63938" lon="4.67735">
        <ele>366.1</ele>
        <time>2015-04-26T06:12:55Z</time>
      </trkpt>
      <trkpt lat="45.63927" lon="4.6771">
        <ele>367.1</ele>
        <time>2015-04-26T06:13:00Z</time>
      </trkpt>
      <trkpt lat="45.63915" lon="4.67687">
        <ele>367.3</ele>
        <time>2015-04-26T06:13:05Z</time>
      </trkpt>
      <trkpt lat="45.63905" lon="4.67663">
        <ele>368.7</ele>
        <time>2015-04-26T06:13:10Z</time>
      </trkpt>
      <trkpt lat="45.63895" lon="4.67635">
        <ele>367.6</ele>
        <time>2015-04-26T06:13:15Z</time>
      </trkpt>
      <trkpt lat="45.63887" lon="4.67605">
        <ele>367.4</ele>
        <time>2015-04-26T06:13:20Z</time>
      </trkpt>
      <trkpt lat="45.63875" lon="4.6757">
        <ele>367.1</ele>
        <time>2015-04-26T06:13:25Z</time>
      </trkpt>
      <trkpt lat="45.6388" lon="4.67545">
        <ele>365.6</ele>
        <time>2015-04-26T06:13:30Z</time>
      </trkpt>
      <trkpt lat="45.6388" lon="4.67523">
        <ele>365.6</ele>
        <time>2015-04-26T06:13:35Z</time>
      </trkpt>
      <trkpt lat="45.6386" lon="4.67497">
        <ele>365.4</ele>
        <time>2015-04-26T06:13:40Z</time>
      </trkpt>
      <trkpt lat="45.6384" lon="4.67468">
        <ele>364.5</ele>
        <time>2015-04-26T06:13:45Z</time>
      </trkpt>
      <trkpt lat="45.63817" lon="4.67443">
        <ele>365.4</ele>
        <time>2015-04-26T06:13:50Z</time>
      </trkpt>
      <trkpt lat="45.63797" lon="4.6742">
        <ele>365.5</ele>
        <time>2015-04-26T06:13:55Z</time>
      </trkpt>
      <trkpt lat="45.63787" lon="4.67398">
        <ele>365.9</ele>
        <time>2015-04-26T06:14:00Z</time>
      </trkpt>
      <trkpt lat="45.63798" lon="4.6739">
        <ele>365.6</ele>
        <time>2015-04-26T06:14:05Z</time>
      </trkpt>
      <trkpt lat="45.63813" lon="4.6738">
        <ele>366.8</ele>
        <time>2015-04-26T06:14:10Z</time>
      </trkpt>
      <trkpt lat="45.63828" lon="4.67372">
        <ele>368.7</ele>
        <time>2015-04-26T06:14:15Z</time>
      </trkpt>
      <trkpt lat="45.63843" lon="4.6736">
        <ele>371</ele>
        <time>2015-04-26T06:14:20Z</time>
      </trkpt>
      <trkpt lat="45.63858" lon="4.67352">
        <ele>372.2</ele>
        <time>2015-04-26T06:14:25Z</time>
      </trkpt>
      <trkpt lat="45.63872" lon="4.67343">
        <ele>374.2</ele>
        <time>2015-04-26T06:14:30Z</time>
      </trkpt>
      <trkpt lat="45.63882" lon="4.67335">
        <ele>376.6</ele>
        <time>2015-04-26T06:14:35Z</time>
      </trkpt>
      <trkpt lat="45.63892" lon="4.67325">
        <ele>377.4</ele>
        <time>2015-04-26T06:14:40Z</time>
      </trkpt>
      <trkpt lat="45.639" lon="4.67315">
        <ele>378.5</ele>
        <time>2015-04-26T06:14:45Z</time>
      </trkpt>
      <trkpt lat="45.63908" lon="4.67307">
        <ele>380.1</ele>
        <time>2015-04-26T06:14:50Z</time>
      </trkpt>
      <trkpt lat="45.63917" lon="4.67298">
        <ele>380.9</ele>
        <time>2015-04-26T06:14:55Z</time>
      </trkpt>
      <trkpt lat="45.63927" lon="4.67293">
        <ele>382.6</ele>
        <time>2015-04-26T06:15:00Z</time>
      </trkpt>
      <trkpt lat="45.63937" lon="4.67292">
        <ele>383.2</ele>
        <time>2015-04-26T06:15:05Z</time>
      </trkpt>
      <trkpt lat="45.63947" lon="4.67287">
        <ele>384.7</ele>
        <time>2015-04-26T06:15:10Z</time>
      </trkpt>
      <trkpt lat="45.63955" lon="4.67283">
        <ele>386.1</ele>
        <time>2015-04-26T06:15:15Z</time>
      </trkpt>
      <trkpt lat="45.63962" lon="4.6728">
        <ele>387</ele>
        <time>2015-04-26T06:15:20Z</time>
      </trkpt>
      <trkpt lat="45.6397" lon="4.67277">
        <ele>387.6</ele>
        <time>2015-04-26T06:15:25Z</time>
      </trkpt>
      <trkpt lat="45.63978" lon="4.67275">
        <ele>389</ele>
        <time>2015-04-26T06:15:30Z</time>
      </trkpt>
      <trkpt lat="45.63987" lon="4.67272">
        <ele>391.1</ele>
        <time>2015-04-26T06:15:35Z</time>
      </trkpt>
      <trkpt lat="45.63995" lon="4.6727">
        <ele>392.2</ele>
        <time>2015-04-26T06:15:40Z</time>
      </trkpt>
      <trkpt lat="45.64003" lon="4.67267">
        <ele>392.7</ele>
        <time>2015-04-26T06:15:45Z</time>
      </trkpt>
      <trkpt lat="45.64012" lon="4.67263">
        <ele>395.8</ele>
        <time>2015-04-26T06:15:50Z</time>
      </trkpt>
      <trkpt lat="45.6402" lon="4.67262">
        <ele>396.1</ele>
        <time>2015-04-26T06:15:55Z</time>
      </trkpt>
      <trkpt lat="45.64028" lon="4.67258">
        <ele>398.4</ele>
        <time>2015-04-26T06:16:00Z</time>
      </trkpt>
      <trkpt lat="45.64038" lon="4.67257">
        <ele>399.7</ele>
        <time>2015-04-26T06:16:05Z</time>
      </trkpt>
      <trkpt lat="45.64052" lon="4.67253">
        <ele>400.6</ele>
        <time>2015-04-26T06:16:10Z</time>
      </trkpt>
      <trkpt lat="45.64065" lon="4.67252">
        <ele>400.2</ele>
        <time>2015-04-26T06:16:15Z</time>
      </trkpt>
      <trkpt lat="45.6408" lon="4.6725">
        <ele>401.4</ele>
        <time>2015-04-26T06:16:20Z</time>
      </trkpt>
      <trkpt lat="45.64093" lon="4.6725">
        <ele>402.5</ele>
        <time>2015-04-26T06:16:25Z</time>
      </trkpt>
      <trkpt lat="45.6411" lon="4.6725">
        <ele>402.7</ele>
        <time>2015-04-26T06:16:30Z</time>
      </trkpt>
      <trkpt lat="45.64125" lon="4.6725">
        <ele>403.8</ele>
        <time>2015-04-26T06:16:35Z</time>
      </trkpt>
      <trkpt lat="45.6414" lon="4.6725">
        <ele>404.5</ele>
        <time>2015-04-26T06:16:40Z</time>
      </trkpt>
      <trkpt lat="45.64157" lon="4.6725">
        <ele>405.5</ele>
        <time>2015-04-26T06:16:45Z</time>
      </trkpt>
      <trkpt lat="45.64172" lon="4.6725">
        <ele>406.7</ele>
        <time>2015-04-26T06:16:50Z</time>
      </trkpt>
      <trkpt lat="45.64187" lon="4.6725">
        <ele>408</ele>
        <time>2015-04-26T06:16:55Z</time>
      </trkpt>
      <trkpt lat="45.64202" lon="4.6725">
        <ele>408.4</ele>
        <time>2015-04-26T06:17:00Z</time>
      </trkpt>
      <trkpt lat="45.64218" lon="4.67247">
        <ele>408.6</ele>
        <time>2015-04-26T06:17:05Z</time>
      </trkpt>
      <trkpt lat="45.64232" lon="4.67238">
        <ele>411</ele>
        <time>2015-04-26T06:17:10Z</time>
      </trkpt>
      <trkpt lat="45.64248" lon="4.67235">
        <ele>411.5</ele>
        <time>2015-04-26T06:17:15Z</time>
      </trkpt>
      <trkpt lat="45.64265" lon="4.67237">
        <ele>411</ele>
        <time>2015-04-26T06:17:20Z</time>
      </trkpt>
      <trkpt lat="45.6428" lon="4.67237">
        <ele>412.5</ele>
        <time>2015-04-26T06:17:25Z</time>
      </trkpt>
      <trkpt lat="45.64295" lon="4.67237">
        <ele>413.7</ele>
        <time>2015-04-26T06:17:30Z</time>
      </trkpt>
      <trkpt lat="45.6431" lon="4.67237">
        <ele>415</ele>
        <time>2015-04-26T06:17:35Z</time>
      </trkpt>
      <trkpt lat="45.64325" lon="4.6724">
        <ele>414.2</ele>
        <time>2015-04-26T06:17:40Z</time>
      </trkpt>
      <trkpt lat="45.64338" lon="4.67255">
        <ele>415.5</ele>
        <time>2015-04-26T06:17:45Z</time>
      </trkpt>
      <trkpt lat="45.6435" lon="4.6727">
        <ele>416.4</ele>
        <time>2015-04-26T06:17:50Z</time>
      </trkpt>
      <trkpt lat="45.64362" lon="4.67285">
        <ele>418</ele>
        <time>2015-04-26T06:17:55Z</time>
      </trkpt>
      <trkpt lat="45.64373" lon="4.67288">
        <ele>418.7</ele>
        <time>2015-04-26T06:18:00Z</time>
      </trkpt>
      <trkpt lat="45.64387" lon="4.67287">
        <ele>419.3</ele>
        <time>2015-04-26T06:18:05Z</time>
      </trkpt>
      <trkpt lat="45.644" lon="4.67283">
        <ele>420.6</ele>
        <time>2015-04-26T06:18:10Z</time>
      </trkpt>
      <trkpt lat="45.64412" lon="4.6729">
        <ele>422</ele>
        <time>2015-04-26T06:18:15Z</time>
      </trkpt>
      <trkpt lat="45.64418" lon="4.67308">
        <ele>422.2</ele>
        <time>2015-04-26T06:18:20Z</time>
      </trkpt>
      <trkpt lat="45.64422" lon="4.67333">
        <ele>422.2</ele>
        <time>2015-04-26T06:18:25Z</time>
      </trkpt>
      <trkpt lat="45.64427" lon="4.67363">
        <ele>422.3</ele>
        <time>2015-04-26T06:18:30Z</time>
      </trkpt>
      <trkpt lat="45.64433" lon="4.67398">
        <ele>421.2</ele>
        <time>2015-04-26T06:18:35Z</time>
      </trkpt>
      <trkpt lat="45.6445" lon="4.67438">
        <ele>419.4</ele>
        <time>2015-04-26T06:18:40Z</time>
      </trkpt>
      <trkpt lat="45.64483" lon="4.67468">
        <ele>416.6</ele>
        <time>2015-04-26T06:18:45Z</time>
      </trkpt>
      <trkpt lat="45.64518" lon="4.6748">
        <ele>413.3</ele>
        <time>2015-04-26T06:18:50Z</time>
      </trkpt>
      <trkpt lat="45.64538" lon="4.67487">
        <ele>415.1</ele>
        <time>2015-04-26T06:18:55Z</time>
      </trkpt>
      <trkpt lat="45.64555" lon="4.6749">
        <ele>416.4</ele>
        <time>2015-04-26T06:19:00Z</time>
      </trkpt>
      <trkpt lat="45.6457" lon="4.67495">
        <ele>418.3</ele>
        <time>2015-04-26T06:19:05Z</time>
      </trkpt>
      <trkpt lat="45.64588" lon="4.67498">
        <ele>419.3</ele>
        <time>2015-04-26T06:19:10Z</time>
      </trkpt>
      <trkpt lat="45.64607" lon="4.675">
        <ele>420.9</ele>
        <time>2015-04-26T06:19:15Z</time>
      </trkpt>
      <trkpt lat="45.64623" lon="4.67497">
        <ele>422.5</ele>
        <time>2015-04-26T06:19:20Z</time>
      </trkpt>
      <trkpt lat="45.64637" lon="4.67497">
        <ele>423.9</ele>
        <time>2015-04-26T06:19:25Z</time>
      </trkpt>
      <trkpt lat="45.64652" lon="4.67503">
        <ele>425.8</ele>
        <time>2015-04-26T06:19:30Z</time>
      </trkpt>
      <trkpt lat="45.64665" lon="4.67512">
        <ele>427.5</ele>
        <time>2015-04-26T06:19:35Z</time>
      </trkpt>
      <trkpt lat="45.64677" lon="4.67523">
        <ele>428.8</ele>
        <time>2015-04-26T06:19:40Z</time>
      </trkpt>
      <trkpt lat="45.64692" lon="4.67528">
        <ele>430.5</ele>
        <time>2015-04-26T06:19:45Z</time>
      </trkpt>
      <trkpt lat="45.64707" lon="4.6753">
        <ele>431.8</ele>
        <time>2015-04-26T06:19:50Z</time>
      </trkpt>
      <trkpt lat="45.6472" lon="4.67525">
        <ele>432.1</ele>
        <time>2015-04-26T06:19:55Z</time>
      </trkpt>
      <trkpt lat="45.6473" lon="4.67505">
        <ele>433</ele>
        <time>2015-04-26T06:20:00Z</time>
      </trkpt>
      <trkpt lat="45.6473" lon="4.67483">
        <ele>433.8</ele>
        <time>2015-04-26T06:20:05Z</time>
      </trkpt>
      <trkpt lat="45.64725" lon="4.67462">
        <ele>436.1</ele>
        <time>2015-04-26T06:20:10Z</time>
      </trkpt>
      <trkpt lat="45.64718" lon="4.67442">
        <ele>436.9</ele>
        <time>2015-04-26T06:20:15Z</time>
      </trkpt>
      <trkpt lat="45.6471" lon="4.67427">
        <ele>438</ele>
        <time>2015-04-26T06:20:20Z</time>
      </trkpt>
      <trkpt lat="45.64702" lon="4.67417">
        <ele>439</ele>
        <time>2015-04-26T06:20:25Z</time>
      </trkpt>
      <trkpt lat="45.64695" lon="4.67403">
        <ele>439.3</ele>
        <time>2015-04-26T06:20:30Z</time>
      </trkpt>
      <trkpt lat="45.64687" lon="4.67393">
        <ele>441.4</ele>
        <time>2015-04-26T06:20:35Z</time>
      </trkpt>
      <trkpt lat="45.6468" lon="4.67387">
        <ele>442.4</ele>
        <time>2015-04-26T06:20:40Z</time>
      </trkpt>
      <trkpt lat="45.6468" lon="4.67387">
        <ele>442.1</ele>
        <time>2015-04-26T06:20:45Z</time>
      </trkpt>
      <trkpt lat="45.6468" lon="4.67387">
        <ele>442</ele>
        <time>2015-04-26T06:21:15Z</time>
      </trkpt>
      <trkpt lat="45.64675" lon="4.67378">
        <ele>442.6</ele>
        <time>2015-04-26T06:21:20Z</time>
      </trkpt>
      <trkpt lat="45.6467" lon="4.6737">
        <ele>443</ele>
        <time>2015-04-26T06:21:25Z</time>
      </trkpt>
      <trkpt lat="45.64667" lon="4.67363">
        <ele>443.6</ele>
        <time>2015-04-26T06:21:30Z</time>
      </trkpt>
      <trkpt lat="45.64662" lon="4.67355">
        <ele>443.3</ele>
        <time>2015-04-26T06:21:35Z</time>
      </trkpt>
      <trkpt lat="45.64658" lon="4.67345">
        <ele>443.8</ele>
        <time>2015-04-26T06:21:40Z</time>
      </trkpt>
      <trkpt lat="45.64655" lon="4.67337">
        <ele>444</ele>
        <time>2015-04-26T06:21:45Z</time>
      </trkpt>
      <trkpt lat="45.64653" lon="4.67325">
        <ele>444.5</ele>
        <time>2015-04-26T06:21:50Z</time>
      </trkpt>
      <trkpt lat="45.64652" lon="4.67315">
        <ele>444.6</ele>
        <time>2015-04-26T06:21:55Z</time>
      </trkpt>
      <trkpt lat="45.6465" lon="4.67305">
        <ele>444.9</ele>
        <time>2015-04-26T06:22:00Z</time>
      </trkpt>
      <trkpt lat="45.6465" lon="4.67298">
        <ele>444.8</ele>
        <time>2015-04-26T06:22:05Z</time>
      </trkpt>
      <trkpt lat="45.64655" lon="4.673">
        <ele>444.8</ele>
        <time>2015-04-26T06:22:10Z</time>
      </trkpt>
      <trkpt lat="45.64655" lon="4.67302">
        <ele>444.1</ele>
        <time>2015-04-26T06:27:15Z</time>
      </trkpt>
      <trkpt lat="45.64653" lon="4.6729">
        <ele>445.3</ele>
        <time>2015-04-26T06:27:20Z</time>
      </trkpt>
      <trkpt lat="45.64648" lon="4.6727">
        <ele>444.6</ele>
        <time>2015-04-26T06:27:25Z</time>
      </trkpt>
      <trkpt lat="45.64648" lon="4.67248">
        <ele>445.4</ele>
        <time>2015-04-26T06:27:30Z</time>
      </trkpt>
      <trkpt lat="45.64647" lon="4.67222">
        <ele>445.1</ele>
        <time>2015-04-26T06:27:35Z</time>
      </trkpt>
      <trkpt lat="45.6465" lon="4.67192">
        <ele>445.1</ele>
        <time>2015-04-26T06:27:40Z</time>
      </trkpt>
      <trkpt lat="45.64662" lon="4.67167">
        <ele>444.7</ele>
        <time>2015-04-26T06:27:45Z</time>
      </trkpt>
      <trkpt lat="45.64673" lon="4.67138">
        <ele>444.3</ele>
        <time>2015-04-26T06:27:50Z</time>
      </trkpt>
      <trkpt lat="45.64683" lon="4.67108">
        <ele>443.9</ele>
        <time>2015-04-26T06:27:55Z</time>
      </trkpt>
      <trkpt lat="45.64692" lon="4.67075">
        <ele>443.5</ele>
        <time>2015-04-26T06:28:00Z</time>
      </trkpt>
      <trkpt lat="45.64703" lon="4.67052">
        <ele>443.8</ele>
        <time>2015-04-26T06:28:05Z</time>
      </trkpt>
      <trkpt lat="45.64723" lon="4.67075">
        <ele>442.6</ele>
        <time>2015-04-26T06:28:10Z</time>
      </trkpt>
      <trkpt lat="45.64747" lon="4.67102">
        <ele>441.4</ele>
        <time>2015-04-26T06:28:15Z</time>
      </trkpt>
      <trkpt lat="45.6477" lon="4.67127">
        <ele>440.6</ele>
        <time>2015-04-26T06:28:20Z</time>
      </trkpt>
      <trkpt lat="45.64788" lon="4.67162">
        <ele>438</ele>
        <time>2015-04-26T06:28:25Z</time>
      </trkpt>
      <trkpt lat="45.648" lon="4.67205">
        <ele>437.4</ele>
        <time>2015-04-26T06:28:30Z</time>
      </trkpt>
      <trkpt lat="45.6481" lon="4.6726">
        <ele>436.7</ele>
        <time>2015-04-26T06:28:35Z</time>
      </trkpt>
      <trkpt lat="45.64818" lon="4.67318">
        <ele>432.7</ele>
        <time>2015-04-26T06:28:40Z</time>
      </trkpt>
      <trkpt lat="45.64837" lon="4.67382">
        <ele>428.1</ele>
        <time>2015-04-26T06:28:45Z</time>
      </trkpt>
      <trkpt lat="45.64857" lon="4.67427">
        <ele>426.7</ele>
        <time>2015-04-26T06:28:50Z</time>
      </trkpt>
      <trkpt lat="45.64897" lon="4.67438">
        <ele>423.1</ele>
        <time>2015-04-26T06:28:55Z</time>
      </trkpt>
      <trkpt lat="45.64915" lon="4.6744">
        <ele>419.8</ele>
        <time>2015-04-26T06:29:00Z</time>
      </trkpt>
      <trkpt lat="45.64923" lon="4.67447">
        <ele>419.6</ele>
        <time>2015-04-26T06:29:05Z</time>
      </trkpt>
      <trkpt lat="45.64948" lon="4.67463">
        <ele>418.1</ele>
        <time>2015-04-26T06:29:10Z</time>
      </trkpt>
      <trkpt lat="45.64965" lon="4.67482">
        <ele>418.1</ele>
        <time>2015-04-26T06:29:15Z</time>
      </trkpt>
      <trkpt lat="45.6497" lon="4.6749">
        <ele>416.8</ele>
        <time>2015-04-26T06:29:20Z</time>
      </trkpt>
      <trkpt lat="45.6499" lon="4.67515">
        <ele>414.9</ele>
        <time>2015-04-26T06:29:25Z</time>
      </trkpt>
      <trkpt lat="45.65017" lon="4.6755">
        <ele>411.9</ele>
        <time>2015-04-26T06:29:30Z</time>
      </trkpt>
      <trkpt lat="45.65043" lon="4.67582">
        <ele>406</ele>
        <time>2015-04-26T06:29:35Z</time>
      </trkpt>
      <trkpt lat="45.6507" lon="4.67605">
        <ele>400.8</ele>
        <time>2015-04-26T06:29:40Z</time>
      </trkpt>
      <trkpt lat="45.65107" lon="4.67628">
        <ele>398.8</ele>
        <time>2015-04-26T06:29:45Z</time>
      </trkpt>
      <trkpt lat="45.65152" lon="4.67658">
        <ele>394.9</ele>
        <time>2015-04-26T06:29:50Z</time>
      </trkpt>
      <trkpt lat="45.65198" lon="4.67688">
        <ele>389.3</ele>
        <time>2015-04-26T06:29:55Z</time>
      </trkpt>
      <trkpt lat="45.65245" lon="4.67708">
        <ele>387.4</ele>
        <time>2015-04-26T06:30:00Z</time>
      </trkpt>
      <trkpt lat="45.65283" lon="4.67735">
        <ele>382.4</ele>
        <time>2015-04-26T06:30:05Z</time>
      </trkpt>
      <trkpt lat="45.65318" lon="4.67775">
        <ele>381.9</ele>
        <time>2015-04-26T06:30:10Z</time>
      </trkpt>
      <trkpt lat="45.65347" lon="4.67788">
        <ele>377.3</ele>
        <time>2015-04-26T06:30:15Z</time>
      </trkpt>
      <trkpt lat="45.65367" lon="4.6776">
        <ele>378</ele>
        <time>2015-04-26T06:30:20Z</time>
      </trkpt>
      <trkpt lat="45.65395" lon="4.67728">
        <ele>375.3</ele>
        <time>2015-04-26T06:30:25Z</time>
      </trkpt>
      <trkpt lat="45.65435" lon="4.67708">
        <ele>374.6</ele>
        <time>2015-04-26T06:30:30Z</time>
      </trkpt>
      <trkpt lat="45.65475" lon="4.67687">
        <ele>366.7</ele>
        <time>2015-04-26T06:30:35Z</time>
      </trkpt>
      <trkpt lat="45.65517" lon="4.67675">
        <ele>367.6</ele>
        <time>2015-04-26T06:30:40Z</time>
      </trkpt>
      <trkpt lat="45.6556" lon="4.67662">
        <ele>359.2</ele>
        <time>2015-04-26T06:30:45Z</time>
      </trkpt>
      <trkpt lat="45.65607" lon="4.67645">
        <ele>356.6</ele>
        <time>2015-04-26T06:30:50Z</time>
      </trkpt>
      <trkpt lat="45.6565" lon="4.67635">
        <ele>350.4</ele>
        <time>2015-04-26T06:30:55Z</time>
      </trkpt>
      <trkpt lat="45.65688" lon="4.67628">
        <ele>348.7</ele>
        <time>2015-04-26T06:31:00Z</time>
      </trkpt>
      <trkpt lat="45.6572" lon="4.67625">
        <ele>339.8</ele>
        <time>2015-04-26T06:31:05Z</time>
      </trkpt>
      <trkpt lat="45.65735" lon="4.67623">
        <ele>339.9</ele>
        <time>2015-04-26T06:31:10Z</time>
      </trkpt>
      <trkpt lat="45.65745" lon="4.67615">
        <ele>339.2</ele>
        <time>2015-04-26T06:31:15Z</time>
      </trkpt>
      <trkpt lat="45.6575" lon="4.67623">
        <ele>339.9</ele>
        <time>2015-04-26T06:31:20Z</time>
      </trkpt>
      <trkpt lat="45.65757" lon="4.67642">
        <ele>339.5</ele>
        <time>2015-04-26T06:31:25Z</time>
      </trkpt>
      <trkpt lat="45.65765" lon="4.67658">
        <ele>340</ele>
        <time>2015-04-26T06:31:30Z</time>
      </trkpt>
      <trkpt lat="45.65777" lon="4.67688">
        <ele>338.6</ele>
        <time>2015-04-26T06:31:35Z</time>
      </trkpt>
      <trkpt lat="45.6579" lon="4.67712">
        <ele>340.8</ele>
        <time>2015-04-26T06:31:40Z</time>
      </trkpt>
      <trkpt lat="45.65798" lon="4.6773">
        <ele>340.2</ele>
        <time>2015-04-26T06:31:45Z</time>
      </trkpt>
      <trkpt lat="45.65808" lon="4.6775">
        <ele>343.6</ele>
        <time>2015-04-26T06:31:50Z</time>
      </trkpt>
      <trkpt lat="45.65818" lon="4.67775">
        <ele>343.5</ele>
        <time>2015-04-26T06:31:55Z</time>
      </trkpt>
      <trkpt lat="45.65825" lon="4.67797">
        <ele>343.5</ele>
        <time>2015-04-26T06:32:00Z</time>
      </trkpt>
      <trkpt lat="45.65835" lon="4.67823">
        <ele>343.8</ele>
        <time>2015-04-26T06:32:05Z</time>
      </trkpt>
      <trkpt lat="45.65853" lon="4.67848">
        <ele>343.3</ele>
        <time>2015-04-26T06:32:10Z</time>
      </trkpt>
      <trkpt lat="45.65867" lon="4.6787">
        <ele>344.4</ele>
        <time>2015-04-26T06:32:15Z</time>
      </trkpt>
      <trkpt lat="45.65882" lon="4.67892">
        <ele>343.1</ele>
        <time>2015-04-26T06:32:20Z</time>
      </trkpt>
      <trkpt lat="45.65898" lon="4.6791">
        <ele>345.7</ele>
        <time>2015-04-26T06:32:25Z</time>
      </trkpt>
      <trkpt lat="45.65915" lon="4.67927">
        <ele>346.6</ele>
        <time>2015-04-26T06:32:30Z</time>
      </trkpt>
      <trkpt lat="45.65923" lon="4.67937">
        <ele>348.3</ele>
        <time>2015-04-26T06:32:35Z</time>
      </trkpt>
      <trkpt lat="45.65932" lon="4.67945">
        <ele>349.2</ele>
        <time>2015-04-26T06:32:40Z</time>
      </trkpt>
      <trkpt lat="45.65943" lon="4.6796">
        <ele>351.3</ele>
        <time>2015-04-26T06:32:45Z</time>
      </trkpt>
      <trkpt lat="45.65955" lon="4.6797">
        <ele>352.5</ele>
        <time>2015-04-26T06:32:50Z</time>
      </trkpt>
      <trkpt lat="45.65965" lon="4.67982">
        <ele>352</ele>
        <time>2015-04-26T06:32:55Z</time>
      </trkpt>
      <trkpt lat="45.65977" lon="4.67993">
        <ele>354.3</ele>
        <time>2015-04-26T06:33:00Z</time>
      </trkpt>
      <trkpt lat="45.6599" lon="4.68005">
        <ele>354.5</ele>
        <time>2015-04-26T06:33:05Z</time>
      </trkpt>
      <trkpt lat="45.66005" lon="4.68017">
        <ele>355.1</ele>
        <time>2015-04-26T06:33:10Z</time>
      </trkpt>
      <trkpt lat="45.6602" lon="4.68027">
        <ele>354.4</ele>
        <time>2015-04-26T06:33:15Z</time>
      </trkpt>
      <trkpt lat="45.66032" lon="4.68033">
        <ele>356.8</ele>
        <time>2015-04-26T06:33:20Z</time>
      </trkpt>
      <trkpt lat="45.66045" lon="4.68045">
        <ele>355.8</ele>
        <time>2015-04-26T06:33:25Z</time>
      </trkpt>
      <trkpt lat="45.66057" lon="4.68057">
        <ele>357.9</ele>
        <time>2015-04-26T06:33:30Z</time>
      </trkpt>
      <trkpt lat="45.6607" lon="4.6807">
        <ele>359</ele>
        <time>2015-04-26T06:33:35Z</time>
      </trkpt>
      <trkpt lat="45.66083" lon="4.6808">
        <ele>361.3</ele>
        <time>2015-04-26T06:33:40Z</time>
      </trkpt>
      <trkpt lat="45.66095" lon="4.68092">
        <ele>362.6</ele>
        <time>2015-04-26T06:33:45Z</time>
      </trkpt>
      <trkpt lat="45.66107" lon="4.68102">
        <ele>364</ele>
        <time>2015-04-26T06:33:50Z</time>
      </trkpt>
      <trkpt lat="45.6612" lon="4.68112">
        <ele>365.2</ele>
        <time>2015-04-26T06:33:55Z</time>
      </trkpt>
      <trkpt lat="45.66133" lon="4.68123">
        <ele>365.6</ele>
        <time>2015-04-26T06:34:00Z</time>
      </trkpt>
      <trkpt lat="45.66145" lon="4.68132">
        <ele>365.3</ele>
        <time>2015-04-26T06:34:05Z</time>
      </trkpt>
      <trkpt lat="45.66162" lon="4.68135">
        <ele>366.2</ele>
        <time>2015-04-26T06:34:10Z</time>
      </trkpt>
      <trkpt lat="45.6618" lon="4.6813">
        <ele>366.5</ele>
        <time>2015-04-26T06:34:15Z</time>
      </trkpt>
      <trkpt lat="45.66197" lon="4.68125">
        <ele>366.9</ele>
        <time>2015-04-26T06:34:20Z</time>
      </trkpt>
      <trkpt lat="45.66215" lon="4.68117">
        <ele>367.9</ele>
        <time>2015-04-26T06:34:25Z</time>
      </trkpt>
      <trkpt lat="45.66233" lon="4.68105">
        <ele>367.9</ele>
        <time>2015-04-26T06:34:30Z</time>
      </trkpt>
      <trkpt lat="45.66255" lon="4.68093">
        <ele>367.9</ele>
        <time>2015-04-26T06:34:35Z</time>
      </trkpt>
      <trkpt lat="45.66277" lon="4.68072">
        <ele>367.1</ele>
        <time>2015-04-26T06:34:40Z</time>
      </trkpt>
      <trkpt lat="45.66295" lon="4.68047">
        <ele>366.4</ele>
        <time>2015-04-26T06:34:45Z</time>
      </trkpt>
      <trkpt lat="45.66322" lon="4.68033">
        <ele>366.4</ele>
        <time>2015-04-26T06:34:50Z</time>
      </trkpt>
      <trkpt lat="45.66348" lon="4.68022">
        <ele>365.9</ele>
        <time>2015-04-26T06:34:55Z</time>
      </trkpt>
      <trkpt lat="45.6637" lon="4.68003">
        <ele>368</ele>
        <time>2015-04-26T06:35:00Z</time>
      </trkpt>
      <trkpt lat="45.6639" lon="4.67983">
        <ele>370.5</ele>
        <time>2015-04-26T06:35:05Z</time>
      </trkpt>
      <trkpt lat="45.66402" lon="4.6796">
        <ele>372.3</ele>
        <time>2015-04-26T06:35:10Z</time>
      </trkpt>
      <trkpt lat="45.66392" lon="4.67947">
        <ele>370.8</ele>
        <time>2015-04-26T06:35:15Z</time>
      </trkpt>
      <trkpt lat="45.66378" lon="4.67932">
        <ele>374.2</ele>
        <time>2015-04-26T06:35:20Z</time>
      </trkpt>
      <trkpt lat="45.66367" lon="4.67913">
        <ele>375.5</ele>
        <time>2015-04-26T06:35:25Z</time>
      </trkpt>
      <trkpt lat="45.66355" lon="4.67897">
        <ele>374.4</ele>
        <time>2015-04-26T06:35:30Z</time>
      </trkpt>
      <trkpt lat="45.66342" lon="4.67883">
        <ele>376.3</ele>
        <time>2015-04-26T06:35:35Z</time>
      </trkpt>
      <trkpt lat="45.6633" lon="4.67868">
        <ele>377.5</ele>
        <time>2015-04-26T06:35:40Z</time>
      </trkpt>
      <trkpt lat="45.66318" lon="4.67853">
        <ele>378.6</ele>
        <time>2015-04-26T06:35:45Z</time>
      </trkpt>
      <trkpt lat="45.66307" lon="4.67838">
        <ele>378.8</ele>
        <time>2015-04-26T06:35:50Z</time>
      </trkpt>
      <trkpt lat="45.66295" lon="4.67823">
        <ele>380.5</ele>
        <time>2015-04-26T06:35:55Z</time>
      </trkpt>
      <trkpt lat="45.66283" lon="4.67807">
        <ele>381.1</ele>
        <time>2015-04-26T06:36:00Z</time>
      </trkpt>
      <trkpt lat="45.6627" lon="4.67793">
        <ele>380.8</ele>
        <time>2015-04-26T06:36:05Z</time>
      </trkpt>
      <trkpt lat="45.66257" lon="4.6778">
        <ele>384.1</ele>
        <time>2015-04-26T06:36:10Z</time>
      </trkpt>
      <trkpt lat="45.66243" lon="4.67768">
        <ele>385.2</ele>
        <time>2015-04-26T06:36:15Z</time>
      </trkpt>
      <trkpt lat="45.66232" lon="4.67755">
        <ele>386.7</ele>
        <time>2015-04-26T06:36:20Z</time>
      </trkpt>
      <trkpt lat="45.66218" lon="4.6774">
        <ele>388</ele>
        <time>2015-04-26T06:36:25Z</time>
      </trkpt>
      <trkpt lat="45.66207" lon="4.67723">
        <ele>388.6</ele>
        <time>2015-04-26T06:36:30Z</time>
      </trkpt>
      <trkpt lat="45.66197" lon="4.67707">
        <ele>389.7</ele>
        <time>2015-04-26T06:36:35Z</time>
      </trkpt>
      <trkpt lat="45.66185" lon="4.6769">
        <ele>391.9</ele>
        <time>2015-04-26T06:36:40Z</time>
      </trkpt>
      <trkpt lat="45.66173" lon="4.67672">
        <ele>391.4</ele>
        <time>2015-04-26T06:36:45Z</time>
      </trkpt>
      <trkpt lat="45.66162" lon="4.67652">
        <ele>392</ele>
        <time>2015-04-26T06:36:50Z</time>
      </trkpt>
      <trkpt lat="45.6615" lon="4.6763">
        <ele>393.6</ele>
        <time>2015-04-26T06:36:55Z</time>
      </trkpt>
      <trkpt lat="45.66137" lon="4.67608">
        <ele>394.1</ele>
        <time>2015-04-26T06:37:00Z</time>
      </trkpt>
      <trkpt lat="45.66123" lon="4.67585">
        <ele>394.8</ele>
        <time>2015-04-26T06:37:05Z</time>
      </trkpt>
      <trkpt lat="45.66112" lon="4.6756">
        <ele>394.5</ele>
        <time>2015-04-26T06:37:10Z</time>
      </trkpt>
      <trkpt lat="45.66095" lon="4.67532">
        <ele>395.3</ele>
        <time>2015-04-26T06:37:15Z</time>
      </trkpt>
      <trkpt lat="45.6608" lon="4.675">
        <ele>394.5</ele>
        <time>2015-04-26T06:37:20Z</time>
      </trkpt>
      <trkpt lat="45.66063" lon="4.67463">
        <ele>394.7</ele>
        <time>2015-04-26T06:37:25Z</time>
      </trkpt>
      <trkpt lat="45.66048" lon="4.67422">
        <ele>391.4</ele>
        <time>2015-04-26T06:37:30Z</time>
      </trkpt>
      <trkpt lat="45.6605" lon="4.67382">
        <ele>393</ele>
        <time>2015-04-26T06:37:35Z</time>
      </trkpt>
      <trkpt lat="45.66055" lon="4.67347">
        <ele>393.6</ele>
        <time>2015-04-26T06:37:40Z</time>
      </trkpt>
      <trkpt lat="45.66065" lon="4.6731">
        <ele>394.5</ele>
        <time>2015-04-26T06:37:45Z</time>
      </trkpt>
      <trkpt lat="45.66073" lon="4.67275">
        <ele>394.8</ele>
        <time>2015-04-26T06:37:50Z</time>
      </trkpt>
      <trkpt lat="45.66082" lon="4.67238">
        <ele>396.5</ele>
        <time>2015-04-26T06:37:55Z</time>
      </trkpt>
      <trkpt lat="45.6609" lon="4.67203">
        <ele>396.7</ele>
        <time>2015-04-26T06:38:00Z</time>
      </trkpt>
      <trkpt lat="45.661" lon="4.67172">
        <ele>396.9</ele>
        <time>2015-04-26T06:38:05Z</time>
      </trkpt>
      <trkpt lat="45.66108" lon="4.6714">
        <ele>398.8</ele>
        <time>2015-04-26T06:38:10Z</time>
      </trkpt>
      <trkpt lat="45.66117" lon="4.6711">
        <ele>399.9</ele>
        <time>2015-04-26T06:38:15Z</time>
      </trkpt>
      <trkpt lat="45.66117" lon="4.67078">
        <ele>401.7</ele>
        <time>2015-04-26T06:38:20Z</time>
      </trkpt>
      <trkpt lat="45.66118" lon="4.6705">
        <ele>401.5</ele>
        <time>2015-04-26T06:38:25Z</time>
      </trkpt>
      <trkpt lat="45.66123" lon="4.67012">
        <ele>401.5</ele>
        <time>2015-04-26T06:38:30Z</time>
      </trkpt>
      <trkpt lat="45.66127" lon="4.66968">
        <ele>400.7</ele>
        <time>2015-04-26T06:38:35Z</time>
      </trkpt>
      <trkpt lat="45.66133" lon="4.66925">
        <ele>400.3</ele>
        <time>2015-04-26T06:38:40Z</time>
      </trkpt>
      <trkpt lat="45.66147" lon="4.66887">
        <ele>400.3</ele>
        <time>2015-04-26T06:38:45Z</time>
      </trkpt>
      <trkpt lat="45.66162" lon="4.66852">
        <ele>400.8</ele>
        <time>2015-04-26T06:38:50Z</time>
      </trkpt>
      <trkpt lat="45.66177" lon="4.66817">
        <ele>400.8</ele>
        <time>2015-04-26T06:38:55Z</time>
      </trkpt>
      <trkpt lat="45.66197" lon="4.66788">
        <ele>401.8</ele>
        <time>2015-04-26T06:39:00Z</time>
      </trkpt>
      <trkpt lat="45.66217" lon="4.66763">
        <ele>402.3</ele>
        <time>2015-04-26T06:39:05Z</time>
      </trkpt>
      <trkpt lat="45.6623" lon="4.66738">
        <ele>402.1</ele>
        <time>2015-04-26T06:39:10Z</time>
      </trkpt>
      <trkpt lat="45.6623" lon="4.6673">
        <ele>402.6</ele>
        <time>2015-04-26T06:39:15Z</time>
      </trkpt>
      <trkpt lat="45.66233" lon="4.6674">
        <ele>402.8</ele>
        <time>2015-04-26T06:39:20Z</time>
      </trkpt>
      <trkpt lat="45.66232" lon="4.66737">
        <ele>402.5</ele>
        <time>2015-04-26T06:39:25Z</time>
      </trkpt>
      <trkpt lat="45.66243" lon="4.66723">
        <ele>403</ele>
        <time>2015-04-26T06:39:30Z</time>
      </trkpt>
      <trkpt lat="45.66255" lon="4.66697">
        <ele>403.6</ele>
        <time>2015-04-26T06:39:35Z</time>
      </trkpt>
      <trkpt lat="45.66267" lon="4.66668">
        <ele>403.2</ele>
        <time>2015-04-26T06:39:40Z</time>
      </trkpt>
      <trkpt lat="45.6627" lon="4.66637">
        <ele>402.7</ele>
        <time>2015-04-26T06:39:45Z</time>
      </trkpt>
      <trkpt lat="45.66272" lon="4.66608">
        <ele>403.8</ele>
        <time>2015-04-26T06:39:50Z</time>
      </trkpt>
      <trkpt lat="45.66277" lon="4.6658">
        <ele>403.9</ele>
        <time>2015-04-26T06:39:55Z</time>
      </trkpt>
      <trkpt lat="45.66278" lon="4.66555">
        <ele>405</ele>
        <time>2015-04-26T06:40:00Z</time>
      </trkpt>
      <trkpt lat="45.6628" lon="4.66527">
        <ele>406.4</ele>
        <time>2015-04-26T06:40:05Z</time>
      </trkpt>
      <trkpt lat="45.66278" lon="4.66502">
        <ele>405.9</ele>
        <time>2015-04-26T06:40:10Z</time>
      </trkpt>
      <trkpt lat="45.66283" lon="4.66475">
        <ele>409.2</ele>
        <time>2015-04-26T06:40:15Z</time>
      </trkpt>
      <trkpt lat="45.6629" lon="4.66452">
        <ele>409.9</ele>
        <time>2015-04-26T06:40:20Z</time>
      </trkpt>
      <trkpt lat="45.663" lon="4.66432">
        <ele>411.2</ele>
        <time>2015-04-26T06:40:25Z</time>
      </trkpt>
      <trkpt lat="45.66297" lon="4.66417">
        <ele>413</ele>
        <time>2015-04-26T06:40:30Z</time>
      </trkpt>
      <trkpt lat="45.66285" lon="4.6641">
        <ele>413.1</ele>
        <time>2015-04-26T06:40:35Z</time>
      </trkpt>
      <trkpt lat="45.66272" lon="4.66402">
        <ele>414.9</ele>
        <time>2015-04-26T06:40:40Z</time>
      </trkpt>
      <trkpt lat="45.66257" lon="4.66393">
        <ele>415.7</ele>
        <time>2015-04-26T06:40:45Z</time>
      </trkpt>
      <trkpt lat="45.66242" lon="4.66385">
        <ele>416.9</ele>
        <time>2015-04-26T06:40:50Z</time>
      </trkpt>
      <trkpt lat="45.66228" lon="4.66375">
        <ele>418</ele>
        <time>2015-04-26T06:40:55Z</time>
      </trkpt>
      <trkpt lat="45.66218" lon="4.66365">
        <ele>419.8</ele>
        <time>2015-04-26T06:41:00Z</time>
      </trkpt>
      <trkpt lat="45.6621" lon="4.66355">
        <ele>420.2</ele>
        <time>2015-04-26T06:41:05Z</time>
      </trkpt>
      <trkpt lat="45.66203" lon="4.66345">
        <ele>422.2</ele>
        <time>2015-04-26T06:41:10Z</time>
      </trkpt>
      <trkpt lat="45.66195" lon="4.66335">
        <ele>424.1</ele>
        <time>2015-04-26T06:41:15Z</time>
      </trkpt>
      <trkpt lat="45.66188" lon="4.66328">
        <ele>424.9</ele>
        <time>2015-04-26T06:41:20Z</time>
      </trkpt>
      <trkpt lat="45.6618" lon="4.66323">
        <ele>426.8</ele>
        <time>2015-04-26T06:41:25Z</time>
      </trkpt>
      <trkpt lat="45.66173" lon="4.66318">
        <ele>428.2</ele>
        <time>2015-04-26T06:41:30Z</time>
      </trkpt>
      <trkpt lat="45.66167" lon="4.66313">
        <ele>429.5</ele>
        <time>2015-04-26T06:41:35Z</time>
      </trkpt>
      <trkpt lat="45.6616" lon="4.66312">
        <ele>430.1</ele>
        <time>2015-04-26T06:41:40Z</time>
      </trkpt>
      <trkpt lat="45.6615" lon="4.66303">
        <ele>431.1</ele>
        <time>2015-04-26T06:41:45Z</time>
      </trkpt>
      <trkpt lat="45.66142" lon="4.66297">
        <ele>432.9</ele>
        <time>2015-04-26T06:41:50Z</time>
      </trkpt>
      <trkpt lat="45.66133" lon="4.66292">
        <ele>434</ele>
        <time>2015-04-26T06:41:55Z</time>
      </trkpt>
      <trkpt lat="45.66125" lon="4.66285">
        <ele>435.3</ele>
        <time>2015-04-26T06:42:00Z</time>
      </trkpt>
      <trkpt lat="45.66118" lon="4.66278">
        <ele>436.2</ele>
        <time>2015-04-26T06:42:05Z</time>
      </trkpt>
      <trkpt lat="45.6611" lon="4.66273">
        <ele>438.3</ele>
        <time>2015-04-26T06:42:10Z</time>
      </trkpt>
      <trkpt lat="45.66102" lon="4.66267">
        <ele>440.9</ele>
        <time>2015-04-26T06:42:15Z</time>
      </trkpt>
      <trkpt lat="45.66093" lon="4.6626">
        <ele>441.5</ele>
        <time>2015-04-26T06:42:20Z</time>
      </trkpt>
      <trkpt lat="45.66085" lon="4.66253">
        <ele>442.4</ele>
        <time>2015-04-26T06:42:25Z</time>
      </trkpt>
      <trkpt lat="45.66077" lon="4.66245">
        <ele>444</ele>
        <time>2015-04-26T06:42:30Z</time>
      </trkpt>
      <trkpt lat="45.66072" lon="4.66233">
        <ele>444.2</ele>
        <time>2015-04-26T06:42:35Z</time>
      </trkpt>
      <trkpt lat="45.66073" lon="4.6622">
        <ele>444.9</ele>
        <time>2015-04-26T06:42:40Z</time>
      </trkpt>
      <trkpt lat="45.66078" lon="4.6621">
        <ele>446.4</ele>
        <time>2015-04-26T06:42:45Z</time>
      </trkpt>
      <trkpt lat="45.66085" lon="4.662">
        <ele>447.5</ele>
        <time>2015-04-26T06:42:50Z</time>
      </trkpt>
      <trkpt lat="45.66092" lon="4.66187">
        <ele>448.8</ele>
        <time>2015-04-26T06:42:55Z</time>
      </trkpt>
      <trkpt lat="45.66095" lon="4.66173">
        <ele>449.8</ele>
        <time>2015-04-26T06:43:00Z</time>
      </trkpt>
      <trkpt lat="45.66095" lon="4.66157">
        <ele>451.3</ele>
        <time>2015-04-26T06:43:05Z</time>
      </trkpt>
      <trkpt lat="45.66093" lon="4.66142">
        <ele>452.2</ele>
        <time>2015-04-26T06:43:10Z</time>
      </trkpt>
      <trkpt lat="45.66092" lon="4.66125">
        <ele>453</ele>
        <time>2015-04-26T06:43:15Z</time>
      </trkpt>
      <trkpt lat="45.66092" lon="4.66107">
        <ele>454.9</ele>
        <time>2015-04-26T06:43:20Z</time>
      </trkpt>
      <trkpt lat="45.66088" lon="4.66088">
        <ele>454.5</ele>
        <time>2015-04-26T06:43:25Z</time>
      </trkpt>
      <trkpt lat="45.66087" lon="4.6607">
        <ele>455.3</ele>
        <time>2015-04-26T06:43:30Z</time>
      </trkpt>
      <trkpt lat="45.66088" lon="4.66052">
        <ele>456.1</ele>
        <time>2015-04-26T06:43:35Z</time>
      </trkpt>
      <trkpt lat="45.66088" lon="4.66032">
        <ele>457.6</ele>
        <time>2015-04-26T06:43:40Z</time>
      </trkpt>
      <trkpt lat="45.66088" lon="4.66013">
        <ele>458.9</ele>
        <time>2015-04-26T06:43:45Z</time>
      </trkpt>
      <trkpt lat="45.6609" lon="4.65993">
        <ele>459.7</ele>
        <time>2015-04-26T06:43:50Z</time>
      </trkpt>
      <trkpt lat="45.66088" lon="4.65972">
        <ele>461.2</ele>
        <time>2015-04-26T06:43:55Z</time>
      </trkpt>
      <trkpt lat="45.66085" lon="4.65948">
        <ele>461.7</ele>
        <time>2015-04-26T06:44:00Z</time>
      </trkpt>
      <trkpt lat="45.6608" lon="4.65927">
        <ele>462.6</ele>
        <time>2015-04-26T06:44:05Z</time>
      </trkpt>
      <trkpt lat="45.66073" lon="4.65908">
        <ele>463.5</ele>
        <time>2015-04-26T06:44:10Z</time>
      </trkpt>
      <trkpt lat="45.66068" lon="4.6589">
        <ele>464.7</ele>
        <time>2015-04-26T06:44:15Z</time>
      </trkpt>
      <trkpt lat="45.66057" lon="4.65868">
        <ele>463.8</ele>
        <time>2015-04-26T06:44:20Z</time>
      </trkpt>
      <trkpt lat="45.66047" lon="4.65835">
        <ele>462.6</ele>
        <time>2015-04-26T06:44:25Z</time>
      </trkpt>
      <trkpt lat="45.66032" lon="4.658">
        <ele>462.5</ele>
        <time>2015-04-26T06:44:30Z</time>
      </trkpt>
      <trkpt lat="45.66008" lon="4.65767">
        <ele>461.6</ele>
        <time>2015-04-26T06:44:35Z</time>
      </trkpt>
      <trkpt lat="45.65983" lon="4.6574">
        <ele>461.6</ele>
        <time>2015-04-26T06:44:40Z</time>
      </trkpt>
      <trkpt lat="45.65957" lon="4.6572">
        <ele>462.6</ele>
        <time>2015-04-26T06:44:45Z</time>
      </trkpt>
      <trkpt lat="45.65938" lon="4.65697">
        <ele>462.4</ele>
        <time>2015-04-26T06:44:50Z</time>
      </trkpt>
      <trkpt lat="45.6592" lon="4.65675">
        <ele>463.2</ele>
        <time>2015-04-26T06:44:55Z</time>
      </trkpt>
      <trkpt lat="45.65907" lon="4.6566">
        <ele>463.5</ele>
        <time>2015-04-26T06:45:00Z</time>
      </trkpt>
      <trkpt lat="45.65903" lon="4.65657">
        <ele>464.1</ele>
        <time>2015-04-26T06:45:05Z</time>
      </trkpt>
      <trkpt lat="45.65902" lon="4.65655">
        <ele>464.4</ele>
        <time>2015-04-26T06:48:15Z</time>
      </trkpt>
      <trkpt lat="45.65892" lon="4.65648">
        <ele>465.6</ele>
        <time>2015-04-26T06:48:20Z</time>
      </trkpt>
      <trkpt lat="45.65882" lon="4.65638">
        <ele>466.3</ele>
        <time>2015-04-26T06:48:25Z</time>
      </trkpt>
      <trkpt lat="45.65873" lon="4.65628">
        <ele>467.3</ele>
        <time>2015-04-26T06:48:30Z</time>
      </trkpt>
      <trkpt lat="45.65867" lon="4.65617">
        <ele>469.8</ele>
        <time>2015-04-26T06:48:35Z</time>
      </trkpt>
      <trkpt lat="45.65863" lon="4.65605">
        <ele>468.9</ele>
        <time>2015-04-26T06:48:40Z</time>
      </trkpt>
      <trkpt lat="45.65858" lon="4.6559">
        <ele>471.1</ele>
        <time>2015-04-26T06:48:45Z</time>
      </trkpt>
      <trkpt lat="45.65857" lon="4.65573">
        <ele>472.5</ele>
        <time>2015-04-26T06:48:50Z</time>
      </trkpt>
      <trkpt lat="45.65855" lon="4.65557">
        <ele>474</ele>
        <time>2015-04-26T06:48:55Z</time>
      </trkpt>
      <trkpt lat="45.6585" lon="4.6554">
        <ele>474.6</ele>
        <time>2015-04-26T06:49:00Z</time>
      </trkpt>
      <trkpt lat="45.65843" lon="4.65523">
        <ele>475.2</ele>
        <time>2015-04-26T06:49:05Z</time>
      </trkpt>
      <trkpt lat="45.65835" lon="4.6551">
        <ele>476.3</ele>
        <time>2015-04-26T06:49:10Z</time>
      </trkpt>
      <trkpt lat="45.65825" lon="4.65498">
        <ele>478.4</ele>
        <time>2015-04-26T06:49:15Z</time>
      </trkpt>
      <trkpt lat="45.65815" lon="4.65487">
        <ele>479.9</ele>
        <time>2015-04-26T06:49:20Z</time>
      </trkpt>
      <trkpt lat="45.65805" lon="4.65473">
        <ele>481.7</ele>
        <time>2015-04-26T06:49:25Z</time>
      </trkpt>
      <trkpt lat="45.65795" lon="4.6546">
        <ele>483.1</ele>
        <time>2015-04-26T06:49:30Z</time>
      </trkpt>
      <trkpt lat="45.65783" lon="4.65443">
        <ele>483.6</ele>
        <time>2015-04-26T06:49:35Z</time>
      </trkpt>
      <trkpt lat="45.6577" lon="4.65427">
        <ele>484.1</ele>
        <time>2015-04-26T06:49:40Z</time>
      </trkpt>
      <trkpt lat="45.65753" lon="4.65402">
        <ele>482.8</ele>
        <time>2015-04-26T06:49:45Z</time>
      </trkpt>
      <trkpt lat="45.65733" lon="4.65373">
        <ele>479.7</ele>
        <time>2015-04-26T06:49:50Z</time>
      </trkpt>
      <trkpt lat="45.6571" lon="4.65348">
        <ele>481.9</ele>
        <time>2015-04-26T06:49:55Z</time>
      </trkpt>
      <trkpt lat="45.65685" lon="4.65322">
        <ele>479.5</ele>
        <time>2015-04-26T06:50:00Z</time>
      </trkpt>
      <trkpt lat="45.6566" lon="4.65297">
        <ele>481</ele>
        <time>2015-04-26T06:50:05Z</time>
      </trkpt>
      <trkpt lat="45.65632" lon="4.6528">
        <ele>480.2</ele>
        <time>2015-04-26T06:50:10Z</time>
      </trkpt>
      <trkpt lat="45.6561" lon="4.65262">
        <ele>481.6</ele>
        <time>2015-04-26T06:50:15Z</time>
      </trkpt>
      <trkpt lat="45.6559" lon="4.65245">
        <ele>483.5</ele>
        <time>2015-04-26T06:50:20Z</time>
      </trkpt>
      <trkpt lat="45.65572" lon="4.65233">
        <ele>485.1</ele>
        <time>2015-04-26T06:50:25Z</time>
      </trkpt>
      <trkpt lat="45.65562" lon="4.65225">
        <ele>486.3</ele>
        <time>2015-04-26T06:50:30Z</time>
      </trkpt>
      <trkpt lat="45.65558" lon="4.65218">
        <ele>486.8</ele>
        <time>2015-04-26T06:50:35Z</time>
      </trkpt>
      <trkpt lat="45.65573" lon="4.65195">
        <ele>484.7</ele>
        <time>2015-04-26T06:50:40Z</time>
      </trkpt>
      <trkpt lat="45.65597" lon="4.65158">
        <ele>484.5</ele>
        <time>2015-04-26T06:50:45Z</time>
      </trkpt>
      <trkpt lat="45.65625" lon="4.65115">
        <ele>480.5</ele>
        <time>2015-04-26T06:50:50Z</time>
      </trkpt>
      <trkpt lat="45.6566" lon="4.65063">
        <ele>477.9</ele>
        <time>2015-04-26T06:50:55Z</time>
      </trkpt>
      <trkpt lat="45.65693" lon="4.65018">
        <ele>478.4</ele>
        <time>2015-04-26T06:51:00Z</time>
      </trkpt>
      <trkpt lat="45.65733" lon="4.64985">
        <ele>477.4</ele>
        <time>2015-04-26T06:51:05Z</time>
      </trkpt>
      <trkpt lat="45.65772" lon="4.64955">
        <ele>471</ele>
        <time>2015-04-26T06:51:10Z</time>
      </trkpt>
      <trkpt lat="45.65803" lon="4.64918">
        <ele>469.7</ele>
        <time>2015-04-26T06:51:15Z</time>
      </trkpt>
      <trkpt lat="45.65837" lon="4.64887">
        <ele>466.2</ele>
        <time>2015-04-26T06:51:20Z</time>
      </trkpt>
      <trkpt lat="45.65867" lon="4.6485">
        <ele>460.7</ele>
        <time>2015-04-26T06:51:25Z</time>
      </trkpt>
      <trkpt lat="45.65893" lon="4.64812">
        <ele>456.7</ele>
        <time>2015-04-26T06:51:30Z</time>
      </trkpt>
      <trkpt lat="45.65905" lon="4.64765">
        <ele>455.7</ele>
        <time>2015-04-26T06:51:35Z</time>
      </trkpt>
      <trkpt lat="45.65912" lon="4.64745">
        <ele>452.7</ele>
        <time>2015-04-26T06:51:40Z</time>
      </trkpt>
      <trkpt lat="45.65912" lon="4.64747">
        <ele>452.4</ele>
        <time>2015-04-26T06:51:45Z</time>
      </trkpt>
      <trkpt lat="45.65912" lon="4.64747">
        <ele>452.2</ele>
        <time>2015-04-26T06:51:50Z</time>
      </trkpt>
      <trkpt lat="45.65913" lon="4.64747">
        <ele>452.6</ele>
        <time>2015-04-26T06:51:55Z</time>
      </trkpt>
      <trkpt lat="45.65913" lon="4.64747">
        <ele>446.2</ele>
        <time>2015-04-26T06:52:00Z</time>
      </trkpt>
      <trkpt lat="45.65912" lon="4.64735">
        <ele>453.7</ele>
        <time>2015-04-26T06:59:45Z</time>
      </trkpt>
      <trkpt lat="45.65915" lon="4.64715">
        <ele>453.4</ele>
        <time>2015-04-26T06:59:50Z</time>
      </trkpt>
      <trkpt lat="45.65917" lon="4.6469">
        <ele>454.4</ele>
        <time>2015-04-26T06:59:55Z</time>
      </trkpt>
      <trkpt lat="45.65917" lon="4.64655">
        <ele>453.2</ele>
        <time>2015-04-26T07:00:00Z</time>
      </trkpt>
      <trkpt lat="45.65922" lon="4.64603">
        <ele>448.5</ele>
        <time>2015-04-26T07:00:05Z</time>
      </trkpt>
      <trkpt lat="45.6592" lon="4.64542">
        <ele>443.7</ele>
        <time>2015-04-26T07:00:10Z</time>
      </trkpt>
      <trkpt lat="45.65912" lon="4.64488">
        <ele>437</ele>
        <time>2015-04-26T07:00:15Z</time>
      </trkpt>
      <trkpt lat="45.65932" lon="4.64455">
        <ele>434.2</ele>
        <time>2015-04-26T07:00:20Z</time>
      </trkpt>
      <trkpt lat="45.65953" lon="4.64413">
        <ele>425</ele>
        <time>2015-04-26T07:00:25Z</time>
      </trkpt>
      <trkpt lat="45.65972" lon="4.64355">
        <ele>420.7</ele>
        <time>2015-04-26T07:00:30Z</time>
      </trkpt>
      <trkpt lat="45.65972" lon="4.643">
        <ele>415.2</ele>
        <time>2015-04-26T07:00:35Z</time>
      </trkpt>
      <trkpt lat="45.65948" lon="4.64258">
        <ele>412.4</ele>
        <time>2015-04-26T07:00:40Z</time>
      </trkpt>
      <trkpt lat="45.6592" lon="4.64223">
        <ele>404.1</ele>
        <time>2015-04-26T07:00:45Z</time>
      </trkpt>
      <trkpt lat="45.65918" lon="4.64182">
        <ele>395.8</ele>
        <time>2015-04-26T07:00:50Z</time>
      </trkpt>
      <trkpt lat="45.65938" lon="4.6414">
        <ele>390</ele>
        <time>2015-04-26T07:00:55Z</time>
      </trkpt>
      <trkpt lat="45.6597" lon="4.64125">
        <ele>381.4</ele>
        <time>2015-04-26T07:01:00Z</time>
      </trkpt>
      <trkpt lat="45.66008" lon="4.64115">
        <ele>381.4</ele>
        <time>2015-04-26T07:01:05Z</time>
      </trkpt>
      <trkpt lat="45.66018" lon="4.6409">
        <ele>369.6</ele>
        <time>2015-04-26T07:01:10Z</time>
      </trkpt>
      <trkpt lat="45.66002" lon="4.64038">
        <ele>366.1</ele>
        <time>2015-04-26T07:01:15Z</time>
      </trkpt>
      <trkpt lat="45.65985" lon="4.63993">
        <ele>362.3</ele>
        <time>2015-04-26T07:01:20Z</time>
      </trkpt>
      <trkpt lat="45.65982" lon="4.63942">
        <ele>356.3</ele>
        <time>2015-04-26T07:01:25Z</time>
      </trkpt>
      <trkpt lat="45.65973" lon="4.6391">
        <ele>353.7</ele>
        <time>2015-04-26T07:01:30Z</time>
      </trkpt>
      <trkpt lat="45.65988" lon="4.63908">
        <ele>355.1</ele>
        <time>2015-04-26T07:01:35Z</time>
      </trkpt>
      <trkpt lat="45.6601" lon="4.6391">
        <ele>356.2</ele>
        <time>2015-04-26T07:01:40Z</time>
      </trkpt>
      <trkpt lat="45.6603" lon="4.6391">
        <ele>358.6</ele>
        <time>2015-04-26T07:01:45Z</time>
      </trkpt>
      <trkpt lat="45.66048" lon="4.63903">
        <ele>358.8</ele>
        <time>2015-04-26T07:01:50Z</time>
      </trkpt>
      <trkpt lat="45.66063" lon="4.63893">
        <ele>361.7</ele>
        <time>2015-04-26T07:01:55Z</time>
      </trkpt>
      <trkpt lat="45.6608" lon="4.63885">
        <ele>363.6</ele>
        <time>2015-04-26T07:02:00Z</time>
      </trkpt>
      <trkpt lat="45.661" lon="4.63885">
        <ele>365.3</ele>
        <time>2015-04-26T07:02:05Z</time>
      </trkpt>
      <trkpt lat="45.66122" lon="4.63892">
        <ele>366</ele>
        <time>2015-04-26T07:02:10Z</time>
      </trkpt>
      <trkpt lat="45.66143" lon="4.63898">
        <ele>366.8</ele>
        <time>2015-04-26T07:02:15Z</time>
      </trkpt>
      <trkpt lat="45.66163" lon="4.63907">
        <ele>367.3</ele>
        <time>2015-04-26T07:02:20Z</time>
      </trkpt>
      <trkpt lat="45.6618" lon="4.63918">
        <ele>369.2</ele>
        <time>2015-04-26T07:02:25Z</time>
      </trkpt>
      <trkpt lat="45.66192" lon="4.63925">
        <ele>370.7</ele>
        <time>2015-04-26T07:02:30Z</time>
      </trkpt>
      <trkpt lat="45.66203" lon="4.6393">
        <ele>371.7</ele>
        <time>2015-04-26T07:02:35Z</time>
      </trkpt>
      <trkpt lat="45.66213" lon="4.63932">
        <ele>374</ele>
        <time>2015-04-26T07:02:40Z</time>
      </trkpt>
      <trkpt lat="45.66227" lon="4.63935">
        <ele>375.2</ele>
        <time>2015-04-26T07:02:45Z</time>
      </trkpt>
      <trkpt lat="45.6624" lon="4.63943">
        <ele>377</ele>
        <time>2015-04-26T07:02:50Z</time>
      </trkpt>
      <trkpt lat="45.66257" lon="4.6395">
        <ele>377.7</ele>
        <time>2015-04-26T07:02:55Z</time>
      </trkpt>
      <trkpt lat="45.66275" lon="4.63958">
        <ele>377.9</ele>
        <time>2015-04-26T07:03:00Z</time>
      </trkpt>
      <trkpt lat="45.66295" lon="4.63967">
        <ele>378.5</ele>
        <time>2015-04-26T07:03:05Z</time>
      </trkpt>
      <trkpt lat="45.66317" lon="4.63975">
        <ele>378.9</ele>
        <time>2015-04-26T07:03:10Z</time>
      </trkpt>
      <trkpt lat="45.66342" lon="4.63985">
        <ele>377.9</ele>
        <time>2015-04-26T07:03:15Z</time>
      </trkpt>
      <trkpt lat="45.66353" lon="4.63985">
        <ele>375.5</ele>
        <time>2015-04-26T07:03:20Z</time>
      </trkpt>
      <trkpt lat="45.66348" lon="4.63977">
        <ele>376.2</ele>
        <time>2015-04-26T07:03:25Z</time>
      </trkpt>
      <trkpt lat="45.66345" lon="4.63963">
        <ele>377.4</ele>
        <time>2015-04-26T07:03:30Z</time>
      </trkpt>
      <trkpt lat="45.66342" lon="4.63948">
        <ele>379.7</ele>
        <time>2015-04-26T07:03:35Z</time>
      </trkpt>
      <trkpt lat="45.66338" lon="4.63935">
        <ele>382.1</ele>
        <time>2015-04-26T07:03:40Z</time>
      </trkpt>
      <trkpt lat="45.66335" lon="4.6392">
        <ele>383</ele>
        <time>2015-04-26T07:03:45Z</time>
      </trkpt>
      <trkpt lat="45.66332" lon="4.63905">
        <ele>384.4</ele>
        <time>2015-04-26T07:03:50Z</time>
      </trkpt>
      <trkpt lat="45.6633" lon="4.63892">
        <ele>387.1</ele>
        <time>2015-04-26T07:03:55Z</time>
      </trkpt>
      <trkpt lat="45.66327" lon="4.63877">
        <ele>388</ele>
        <time>2015-04-26T07:04:00Z</time>
      </trkpt>
      <trkpt lat="45.66323" lon="4.63863">
        <ele>388.5</ele>
        <time>2015-04-26T07:04:05Z</time>
      </trkpt>
      <trkpt lat="45.66322" lon="4.63848">
        <ele>390.5</ele>
        <time>2015-04-26T07:04:10Z</time>
      </trkpt>
      <trkpt lat="45.66318" lon="4.63833">
        <ele>391.3</ele>
        <time>2015-04-26T07:04:15Z</time>
      </trkpt>
      <trkpt lat="45.66315" lon="4.63818">
        <ele>392.1</ele>
        <time>2015-04-26T07:04:20Z</time>
      </trkpt>
      <trkpt lat="45.66312" lon="4.63805">
        <ele>393.9</ele>
        <time>2015-04-26T07:04:25Z</time>
      </trkpt>
      <trkpt lat="45.66308" lon="4.6379">
        <ele>395.1</ele>
        <time>2015-04-26T07:04:30Z</time>
      </trkpt>
      <trkpt lat="45.66305" lon="4.63778">
        <ele>396.6</ele>
        <time>2015-04-26T07:04:35Z</time>
      </trkpt>
      <trkpt lat="45.66302" lon="4.63767">
        <ele>398.1</ele>
        <time>2015-04-26T07:04:40Z</time>
      </trkpt>
      <trkpt lat="45.66298" lon="4.63753">
        <ele>399.4</ele>
        <time>2015-04-26T07:04:45Z</time>
      </trkpt>
      <trkpt lat="45.66297" lon="4.6374">
        <ele>401.5</ele>
        <time>2015-04-26T07:04:50Z</time>
      </trkpt>
      <trkpt lat="45.66293" lon="4.63728">
        <ele>403.4</ele>
        <time>2015-04-26T07:04:55Z</time>
      </trkpt>
      <trkpt lat="45.66292" lon="4.63717">
        <ele>403</ele>
        <time>2015-04-26T07:05:00Z</time>
      </trkpt>
      <trkpt lat="45.66293" lon="4.63707">
        <ele>404.7</ele>
        <time>2015-04-26T07:05:05Z</time>
      </trkpt>
      <trkpt lat="45.66295" lon="4.63697">
        <ele>406.8</ele>
        <time>2015-04-26T07:05:10Z</time>
      </trkpt>
      <trkpt lat="45.663" lon="4.63688">
        <ele>408</ele>
        <time>2015-04-26T07:05:15Z</time>
      </trkpt>
      <trkpt lat="45.66305" lon="4.63678">
        <ele>408.3</ele>
        <time>2015-04-26T07:05:20Z</time>
      </trkpt>
      <trkpt lat="45.66312" lon="4.63672">
        <ele>409.1</ele>
        <time>2015-04-26T07:05:25Z</time>
      </trkpt>
      <trkpt lat="45.66325" lon="4.6366">
        <ele>408.1</ele>
        <time>2015-04-26T07:05:30Z</time>
      </trkpt>
      <trkpt lat="45.66347" lon="4.63645">
        <ele>406.9</ele>
        <time>2015-04-26T07:05:35Z</time>
      </trkpt>
      <trkpt lat="45.66365" lon="4.63607">
        <ele>405.4</ele>
        <time>2015-04-26T07:05:40Z</time>
      </trkpt>
      <trkpt lat="45.66358" lon="4.63552">
        <ele>402.6</ele>
        <time>2015-04-26T07:05:45Z</time>
      </trkpt>
      <trkpt lat="45.66345" lon="4.6349">
        <ele>399.2</ele>
        <time>2015-04-26T07:05:50Z</time>
      </trkpt>
      <trkpt lat="45.66333" lon="4.63425">
        <ele>397.4</ele>
        <time>2015-04-26T07:05:55Z</time>
      </trkpt>
      <trkpt lat="45.66338" lon="4.6337">
        <ele>397.4</ele>
        <time>2015-04-26T07:06:00Z</time>
      </trkpt>
      <trkpt lat="45.66345" lon="4.63322">
        <ele>396.5</ele>
        <time>2015-04-26T07:06:05Z</time>
      </trkpt>
      <trkpt lat="45.66353" lon="4.63267">
        <ele>393.5</ele>
        <time>2015-04-26T07:06:10Z</time>
      </trkpt>
      <trkpt lat="45.6636" lon="4.63205">
        <ele>390.8</ele>
        <time>2015-04-26T07:06:15Z</time>
      </trkpt>
      <trkpt lat="45.66385" lon="4.63167">
        <ele>389.2</ele>
        <time>2015-04-26T07:06:20Z</time>
      </trkpt>
      <trkpt lat="45.66398" lon="4.63158">
        <ele>392.2</ele>
        <time>2015-04-26T07:06:25Z</time>
      </trkpt>
      <trkpt lat="45.66402" lon="4.63163">
        <ele>393.1</ele>
        <time>2015-04-26T07:06:30Z</time>
      </trkpt>
      <trkpt lat="45.66412" lon="4.63175">
        <ele>394</ele>
        <time>2015-04-26T07:06:35Z</time>
      </trkpt>
      <trkpt lat="45.66423" lon="4.63178">
        <ele>395.4</ele>
        <time>2015-04-26T07:06:40Z</time>
      </trkpt>
      <trkpt lat="45.66428" lon="4.63163">
        <ele>397.1</ele>
        <time>2015-04-26T07:06:45Z</time>
      </trkpt>
      <trkpt lat="45.66437" lon="4.63153">
        <ele>398.3</ele>
        <time>2015-04-26T07:06:50Z</time>
      </trkpt>
      <trkpt lat="45.66447" lon="4.63152">
        <ele>400.5</ele>
        <time>2015-04-26T07:06:55Z</time>
      </trkpt>
      <trkpt lat="45.66458" lon="4.63152">
        <ele>401.7</ele>
        <time>2015-04-26T07:07:00Z</time>
      </trkpt>
      <trkpt lat="45.66472" lon="4.63152">
        <ele>402.5</ele>
        <time>2015-04-26T07:07:05Z</time>
      </trkpt>
      <trkpt lat="45.66487" lon="4.63153">
        <ele>403.4</ele>
        <time>2015-04-26T07:07:10Z</time>
      </trkpt>
      <trkpt lat="45.665" lon="4.63155">
        <ele>402.7</ele>
        <time>2015-04-26T07:07:15Z</time>
      </trkpt>
      <trkpt lat="45.66513" lon="4.63157">
        <ele>406</ele>
        <time>2015-04-26T07:07:20Z</time>
      </trkpt>
      <trkpt lat="45.66527" lon="4.63158">
        <ele>406</ele>
        <time>2015-04-26T07:07:25Z</time>
      </trkpt>
      <trkpt lat="45.66538" lon="4.63155">
        <ele>407.4</ele>
        <time>2015-04-26T07:07:30Z</time>
      </trkpt>
      <trkpt lat="45.66552" lon="4.6315">
        <ele>408</ele>
        <time>2015-04-26T07:07:35Z</time>
      </trkpt>
      <trkpt lat="45.66563" lon="4.63145">
        <ele>408.6</ele>
        <time>2015-04-26T07:07:40Z</time>
      </trkpt>
      <trkpt lat="45.66575" lon="4.6314">
        <ele>408.9</ele>
        <time>2015-04-26T07:07:45Z</time>
      </trkpt>
      <trkpt lat="45.66585" lon="4.63137">
        <ele>408.8</ele>
        <time>2015-04-26T07:07:50Z</time>
      </trkpt>
      <trkpt lat="45.66595" lon="4.63133">
        <ele>411</ele>
        <time>2015-04-26T07:07:55Z</time>
      </trkpt>
      <trkpt lat="45.66605" lon="4.6313">
        <ele>413.8</ele>
        <time>2015-04-26T07:08:00Z</time>
      </trkpt>
      <trkpt lat="45.66615" lon="4.63125">
        <ele>414.5</ele>
        <time>2015-04-26T07:08:05Z</time>
      </trkpt>
      <trkpt lat="45.66625" lon="4.63122">
        <ele>414.4</ele>
        <time>2015-04-26T07:08:10Z</time>
      </trkpt>
      <trkpt lat="45.66635" lon="4.63115">
        <ele>415.4</ele>
        <time>2015-04-26T07:08:15Z</time>
      </trkpt>
      <trkpt lat="45.66645" lon="4.63108">
        <ele>416.3</ele>
        <time>2015-04-26T07:08:20Z</time>
      </trkpt>
      <trkpt lat="45.66655" lon="4.63102">
        <ele>418</ele>
        <time>2015-04-26T07:08:25Z</time>
      </trkpt>
      <trkpt lat="45.66663" lon="4.63098">
        <ele>419.2</ele>
        <time>2015-04-26T07:08:30Z</time>
      </trkpt>
      <trkpt lat="45.66673" lon="4.63097">
        <ele>419.9</ele>
        <time>2015-04-26T07:08:35Z</time>
      </trkpt>
      <trkpt lat="45.66682" lon="4.631">
        <ele>421.6</ele>
        <time>2015-04-26T07:08:40Z</time>
      </trkpt>
      <trkpt lat="45.6669" lon="4.63098">
        <ele>422.5</ele>
        <time>2015-04-26T07:08:45Z</time>
      </trkpt>
      <trkpt lat="45.66698" lon="4.63102">
        <ele>422.9</ele>
        <time>2015-04-26T07:08:50Z</time>
      </trkpt>
      <trkpt lat="45.66708" lon="4.63105">
        <ele>425.4</ele>
        <time>2015-04-26T07:08:55Z</time>
      </trkpt>
      <trkpt lat="45.66718" lon="4.63102">
        <ele>425.4</ele>
        <time>2015-04-26T07:09:00Z</time>
      </trkpt>
      <trkpt lat="45.66728" lon="4.63093">
        <ele>426.9</ele>
        <time>2015-04-26T07:09:05Z</time>
      </trkpt>
      <trkpt lat="45.66735" lon="4.63087">
        <ele>428.3</ele>
        <time>2015-04-26T07:09:10Z</time>
      </trkpt>
      <trkpt lat="45.66745" lon="4.63077">
        <ele>428.9</ele>
        <time>2015-04-26T07:09:15Z</time>
      </trkpt>
      <trkpt lat="45.66755" lon="4.6307">
        <ele>429.2</ele>
        <time>2015-04-26T07:09:20Z</time>
      </trkpt>
      <trkpt lat="45.66765" lon="4.63065">
        <ele>430.8</ele>
        <time>2015-04-26T07:09:25Z</time>
      </trkpt>
      <trkpt lat="45.6678" lon="4.63065">
        <ele>431</ele>
        <time>2015-04-26T07:09:30Z</time>
      </trkpt>
      <trkpt lat="45.66798" lon="4.63067">
        <ele>430.7</ele>
        <time>2015-04-26T07:09:35Z</time>
      </trkpt>
      <trkpt lat="45.66822" lon="4.6307">
        <ele>430.4</ele>
        <time>2015-04-26T07:09:40Z</time>
      </trkpt>
      <trkpt lat="45.66848" lon="4.63068">
        <ele>429.1</ele>
        <time>2015-04-26T07:09:45Z</time>
      </trkpt>
      <trkpt lat="45.66873" lon="4.6306">
        <ele>429.5</ele>
        <time>2015-04-26T07:09:50Z</time>
      </trkpt>
      <trkpt lat="45.6689" lon="4.63047">
        <ele>428.6</ele>
        <time>2015-04-26T07:09:55Z</time>
      </trkpt>
      <trkpt lat="45.66885" lon="4.63032">
        <ele>429.4</ele>
        <time>2015-04-26T07:10:00Z</time>
      </trkpt>
      <trkpt lat="45.66883" lon="4.63017">
        <ele>430.5</ele>
        <time>2015-04-26T07:10:05Z</time>
      </trkpt>
      <trkpt lat="45.66873" lon="4.63005">
        <ele>431.4</ele>
        <time>2015-04-26T07:10:10Z</time>
      </trkpt>
      <trkpt lat="45.66872" lon="4.6299">
        <ele>431.9</ele>
        <time>2015-04-26T07:10:15Z</time>
      </trkpt>
      <trkpt lat="45.6687" lon="4.62978">
        <ele>434</ele>
        <time>2015-04-26T07:10:20Z</time>
      </trkpt>
      <trkpt lat="45.66865" lon="4.6297">
        <ele>435.2</ele>
        <time>2015-04-26T07:10:25Z</time>
      </trkpt>
      <trkpt lat="45.66865" lon="4.62958">
        <ele>436.4</ele>
        <time>2015-04-26T07:10:30Z</time>
      </trkpt>
      <trkpt lat="45.66863" lon="4.6295">
        <ele>438.2</ele>
        <time>2015-04-26T07:10:35Z</time>
      </trkpt>
      <trkpt lat="45.66857" lon="4.62945">
        <ele>439.5</ele>
        <time>2015-04-26T07:10:40Z</time>
      </trkpt>
      <trkpt lat="45.66852" lon="4.62942">
        <ele>441.1</ele>
        <time>2015-04-26T07:10:45Z</time>
      </trkpt>
      <trkpt lat="45.66845" lon="4.62938">
        <ele>442.8</ele>
        <time>2015-04-26T07:10:50Z</time>
      </trkpt>
      <trkpt lat="45.66838" lon="4.62938">
        <ele>443.9</ele>
        <time>2015-04-26T07:10:55Z</time>
      </trkpt>
      <trkpt lat="45.66837" lon="4.62935">
        <ele>444.4</ele>
        <time>2015-04-26T07:11:05Z</time>
      </trkpt>
      <trkpt lat="45.66835" lon="4.62932">
        <ele>446.7</ele>
        <time>2015-04-26T07:11:10Z</time>
      </trkpt>
      <trkpt lat="45.66828" lon="4.62928">
        <ele>447.3</ele>
        <time>2015-04-26T07:11:15Z</time>
      </trkpt>
      <trkpt lat="45.66825" lon="4.62925">
        <ele>448.8</ele>
        <time>2015-04-26T07:11:20Z</time>
      </trkpt>
      <trkpt lat="45.66822" lon="4.6292">
        <ele>449.4</ele>
        <time>2015-04-26T07:11:25Z</time>
      </trkpt>
      <trkpt lat="45.66817" lon="4.62917">
        <ele>449.1</ele>
        <time>2015-04-26T07:11:30Z</time>
      </trkpt>
      <trkpt lat="45.66812" lon="4.62913">
        <ele>451.5</ele>
        <time>2015-04-26T07:11:35Z</time>
      </trkpt>
      <trkpt lat="45.66807" lon="4.6291">
        <ele>451.1</ele>
        <time>2015-04-26T07:11:50Z</time>
      </trkpt>
      <trkpt lat="45.668" lon="4.629">
        <ele>452.9</ele>
        <time>2015-04-26T07:11:55Z</time>
      </trkpt>
      <trkpt lat="45.66795" lon="4.62893">
        <ele>453.8</ele>
        <time>2015-04-26T07:12:00Z</time>
      </trkpt>
      <trkpt lat="45.66788" lon="4.62885">
        <ele>455.6</ele>
        <time>2015-04-26T07:12:05Z</time>
      </trkpt>
      <trkpt lat="45.6678" lon="4.6288">
        <ele>457</ele>
        <time>2015-04-26T07:12:10Z</time>
      </trkpt>
      <trkpt lat="45.66773" lon="4.62875">
        <ele>458.2</ele>
        <time>2015-04-26T07:12:15Z</time>
      </trkpt>
      <trkpt lat="45.66767" lon="4.6287">
        <ele>459</ele>
        <time>2015-04-26T07:12:20Z</time>
      </trkpt>
      <trkpt lat="45.66763" lon="4.6286">
        <ele>460.3</ele>
        <time>2015-04-26T07:12:25Z</time>
      </trkpt>
      <trkpt lat="45.66762" lon="4.6285">
        <ele>460.2</ele>
        <time>2015-04-26T07:12:30Z</time>
      </trkpt>
      <trkpt lat="45.66755" lon="4.62843">
        <ele>462.6</ele>
        <time>2015-04-26T07:12:35Z</time>
      </trkpt>
      <trkpt lat="45.66752" lon="4.62837">
        <ele>464.1</ele>
        <time>2015-04-26T07:12:40Z</time>
      </trkpt>
      <trkpt lat="45.66747" lon="4.62823">
        <ele>465.2</ele>
        <time>2015-04-26T07:12:45Z</time>
      </trkpt>
      <trkpt lat="45.66745" lon="4.62808">
        <ele>465.9</ele>
        <time>2015-04-26T07:12:50Z</time>
      </trkpt>
      <trkpt lat="45.66747" lon="4.62798">
        <ele>467.5</ele>
        <time>2015-04-26T07:12:55Z</time>
      </trkpt>
      <trkpt lat="45.6675" lon="4.62785">
        <ele>468.5</ele>
        <time>2015-04-26T07:13:00Z</time>
      </trkpt>
      <trkpt lat="45.66752" lon="4.6277">
        <ele>469.4</ele>
        <time>2015-04-26T07:13:05Z</time>
      </trkpt>
      <trkpt lat="45.6675" lon="4.62757">
        <ele>469.8</ele>
        <time>2015-04-26T07:13:10Z</time>
      </trkpt>
      <trkpt lat="45.6675" lon="4.62742">
        <ele>470.7</ele>
        <time>2015-04-26T07:13:15Z</time>
      </trkpt>
      <trkpt lat="45.66748" lon="4.62728">
        <ele>470.8</ele>
        <time>2015-04-26T07:13:20Z</time>
      </trkpt>
      <trkpt lat="45.6675" lon="4.62715">
        <ele>472.7</ele>
        <time>2015-04-26T07:13:25Z</time>
      </trkpt>
      <trkpt lat="45.6675" lon="4.62705">
        <ele>473.5</ele>
        <time>2015-04-26T07:13:30Z</time>
      </trkpt>
      <trkpt lat="45.66753" lon="4.62693">
        <ele>475.1</ele>
        <time>2015-04-26T07:13:35Z</time>
      </trkpt>
      <trkpt lat="45.66757" lon="4.62682">
        <ele>476.2</ele>
        <time>2015-04-26T07:13:40Z</time>
      </trkpt>
      <trkpt lat="45.6676" lon="4.62668">
        <ele>477.5</ele>
        <time>2015-04-26T07:13:45Z</time>
      </trkpt>
      <trkpt lat="45.6676" lon="4.62653">
        <ele>478.1</ele>
        <time>2015-04-26T07:13:50Z</time>
      </trkpt>
      <trkpt lat="45.66755" lon="4.62643">
        <ele>479.1</ele>
        <time>2015-04-26T07:13:55Z</time>
      </trkpt>
      <trkpt lat="45.6675" lon="4.62632">
        <ele>480.4</ele>
        <time>2015-04-26T07:14:00Z</time>
      </trkpt>
      <trkpt lat="45.66747" lon="4.6262">
        <ele>482.1</ele>
        <time>2015-04-26T07:14:05Z</time>
      </trkpt>
      <trkpt lat="45.66747" lon="4.62603">
        <ele>482.2</ele>
        <time>2015-04-26T07:14:10Z</time>
      </trkpt>
      <trkpt lat="45.66748" lon="4.62588">
        <ele>484.6</ele>
        <time>2015-04-26T07:14:15Z</time>
      </trkpt>
      <trkpt lat="45.6675" lon="4.62572">
        <ele>484.8</ele>
        <time>2015-04-26T07:14:20Z</time>
      </trkpt>
      <trkpt lat="45.66747" lon="4.62552">
        <ele>484.4</ele>
        <time>2015-04-26T07:14:25Z</time>
      </trkpt>
      <trkpt lat="45.66743" lon="4.62528">
        <ele>485.5</ele>
        <time>2015-04-26T07:14:30Z</time>
      </trkpt>
      <trkpt lat="45.66737" lon="4.625">
        <ele>484</ele>
        <time>2015-04-26T07:14:35Z</time>
      </trkpt>
      <trkpt lat="45.6673" lon="4.62472">
        <ele>485.2</ele>
        <time>2015-04-26T07:14:40Z</time>
      </trkpt>
      <trkpt lat="45.66723" lon="4.62443">
        <ele>485</ele>
        <time>2015-04-26T07:14:45Z</time>
      </trkpt>
      <trkpt lat="45.66717" lon="4.62417">
        <ele>486</ele>
        <time>2015-04-26T07:14:50Z</time>
      </trkpt>
      <trkpt lat="45.66705" lon="4.62393">
        <ele>484.8</ele>
        <time>2015-04-26T07:14:55Z</time>
      </trkpt>
      <trkpt lat="45.66693" lon="4.62375">
        <ele>484.9</ele>
        <time>2015-04-26T07:15:00Z</time>
      </trkpt>
      <trkpt lat="45.66683" lon="4.62363">
        <ele>489.1</ele>
        <time>2015-04-26T07:15:05Z</time>
      </trkpt>
      <trkpt lat="45.66673" lon="4.62355">
        <ele>490.4</ele>
        <time>2015-04-26T07:15:10Z</time>
      </trkpt>
      <trkpt lat="45.66665" lon="4.6235">
        <ele>491.7</ele>
        <time>2015-04-26T07:15:15Z</time>
      </trkpt>
      <trkpt lat="45.66653" lon="4.62343">
        <ele>492.2</ele>
        <time>2015-04-26T07:15:20Z</time>
      </trkpt>
      <trkpt lat="45.66643" lon="4.62335">
        <ele>494.2</ele>
        <time>2015-04-26T07:15:25Z</time>
      </trkpt>
      <trkpt lat="45.66633" lon="4.62322">
        <ele>493</ele>
        <time>2015-04-26T07:15:30Z</time>
      </trkpt>
      <trkpt lat="45.66628" lon="4.62302">
        <ele>494.2</ele>
        <time>2015-04-26T07:15:35Z</time>
      </trkpt>
      <trkpt lat="45.6662" lon="4.62282">
        <ele>496.5</ele>
        <time>2015-04-26T07:15:40Z</time>
      </trkpt>
      <trkpt lat="45.66608" lon="4.62263">
        <ele>496.8</ele>
        <time>2015-04-26T07:15:45Z</time>
      </trkpt>
      <trkpt lat="45.666" lon="4.62237">
        <ele>497.6</ele>
        <time>2015-04-26T07:15:50Z</time>
      </trkpt>
      <trkpt lat="45.66588" lon="4.6221">
        <ele>498.8</ele>
        <time>2015-04-26T07:15:55Z</time>
      </trkpt>
      <trkpt lat="45.6658" lon="4.62183">
        <ele>498.3</ele>
        <time>2015-04-26T07:16:00Z</time>
      </trkpt>
      <trkpt lat="45.66573" lon="4.62155">
        <ele>499.5</ele>
        <time>2015-04-26T07:16:05Z</time>
      </trkpt>
      <trkpt lat="45.66563" lon="4.62127">
        <ele>499.3</ele>
        <time>2015-04-26T07:16:10Z</time>
      </trkpt>
      <trkpt lat="45.66558" lon="4.62098">
        <ele>500.3</ele>
        <time>2015-04-26T07:16:15Z</time>
      </trkpt>
      <trkpt lat="45.6655" lon="4.62068">
        <ele>500.7</ele>
        <time>2015-04-26T07:16:20Z</time>
      </trkpt>
      <trkpt lat="45.66543" lon="4.62035">
        <ele>501.8</ele>
        <time>2015-04-26T07:16:25Z</time>
      </trkpt>
      <trkpt lat="45.66533" lon="4.62005">
        <ele>501.7</ele>
        <time>2015-04-26T07:16:30Z</time>
      </trkpt>
      <trkpt lat="45.66525" lon="4.61977">
        <ele>501.3</ele>
        <time>2015-04-26T07:16:35Z</time>
      </trkpt>
      <trkpt lat="45.66517" lon="4.61955">
        <ele>503.9</ele>
        <time>2015-04-26T07:16:40Z</time>
      </trkpt>
      <trkpt lat="45.66512" lon="4.61935">
        <ele>505</ele>
        <time>2015-04-26T07:16:45Z</time>
      </trkpt>
      <trkpt lat="45.66505" lon="4.61913">
        <ele>506.7</ele>
        <time>2015-04-26T07:16:50Z</time>
      </trkpt>
      <trkpt lat="45.665" lon="4.61895">
        <ele>508.3</ele>
        <time>2015-04-26T07:16:55Z</time>
      </trkpt>
      <trkpt lat="45.66498" lon="4.61873">
        <ele>508.5</ele>
        <time>2015-04-26T07:17:00Z</time>
      </trkpt>
      <trkpt lat="45.66497" lon="4.61853">
        <ele>509.5</ele>
        <time>2015-04-26T07:17:05Z</time>
      </trkpt>
      <trkpt lat="45.66495" lon="4.61837">
        <ele>511.3</ele>
        <time>2015-04-26T07:17:10Z</time>
      </trkpt>
      <trkpt lat="45.6649" lon="4.61823">
        <ele>513</ele>
        <time>2015-04-26T07:17:15Z</time>
      </trkpt>
      <trkpt lat="45.66492" lon="4.61805">
        <ele>513.3</ele>
        <time>2015-04-26T07:17:20Z</time>
      </trkpt>
      <trkpt lat="45.6649" lon="4.61783">
        <ele>513.5</ele>
        <time>2015-04-26T07:17:25Z</time>
      </trkpt>
      <trkpt lat="45.6649" lon="4.61763">
        <ele>514.9</ele>
        <time>2015-04-26T07:17:30Z</time>
      </trkpt>
      <trkpt lat="45.66493" lon="4.61742">
        <ele>514.9</ele>
        <time>2015-04-26T07:17:35Z</time>
      </trkpt>
      <trkpt lat="45.665" lon="4.61723">
        <ele>516.1</ele>
        <time>2015-04-26T07:17:40Z</time>
      </trkpt>
      <trkpt lat="45.66502" lon="4.61708">
        <ele>517</ele>
        <time>2015-04-26T07:17:45Z</time>
      </trkpt>
      <trkpt lat="45.66498" lon="4.61693">
        <ele>517.9</ele>
        <time>2015-04-26T07:17:50Z</time>
      </trkpt>
      <trkpt lat="45.66495" lon="4.6168">
        <ele>518.9</ele>
        <time>2015-04-26T07:17:55Z</time>
      </trkpt>
      <trkpt lat="45.66492" lon="4.61668">
        <ele>520.7</ele>
        <time>2015-04-26T07:18:00Z</time>
      </trkpt>
      <trkpt lat="45.66487" lon="4.6166">
        <ele>523.5</ele>
        <time>2015-04-26T07:18:05Z</time>
      </trkpt>
      <trkpt lat="45.66482" lon="4.61652">
        <ele>523.7</ele>
        <time>2015-04-26T07:18:10Z</time>
      </trkpt>
      <trkpt lat="45.66477" lon="4.61643">
        <ele>525.8</ele>
        <time>2015-04-26T07:18:15Z</time>
      </trkpt>
      <trkpt lat="45.66473" lon="4.61633">
        <ele>526.5</ele>
        <time>2015-04-26T07:18:20Z</time>
      </trkpt>
      <trkpt lat="45.66472" lon="4.61622">
        <ele>527.7</ele>
        <time>2015-04-26T07:18:25Z</time>
      </trkpt>
      <trkpt lat="45.6647" lon="4.61612">
        <ele>528.9</ele>
        <time>2015-04-26T07:18:30Z</time>
      </trkpt>
      <trkpt lat="45.66467" lon="4.616">
        <ele>530.7</ele>
        <time>2015-04-26T07:18:35Z</time>
      </trkpt>
      <trkpt lat="45.66465" lon="4.61588">
        <ele>531.5</ele>
        <time>2015-04-26T07:18:40Z</time>
      </trkpt>
      <trkpt lat="45.66463" lon="4.61578">
        <ele>532.6</ele>
        <time>2015-04-26T07:18:45Z</time>
      </trkpt>
      <trkpt lat="45.6646" lon="4.61567">
        <ele>534.1</ele>
        <time>2015-04-26T07:18:50Z</time>
      </trkpt>
      <trkpt lat="45.66457" lon="4.61555">
        <ele>535</ele>
        <time>2015-04-26T07:18:55Z</time>
      </trkpt>
      <trkpt lat="45.66453" lon="4.61547">
        <ele>537</ele>
        <time>2015-04-26T07:19:00Z</time>
      </trkpt>
      <trkpt lat="45.6645" lon="4.61538">
        <ele>538.7</ele>
        <time>2015-04-26T07:19:05Z</time>
      </trkpt>
      <trkpt lat="45.66447" lon="4.61528">
        <ele>539.9</ele>
        <time>2015-04-26T07:19:10Z</time>
      </trkpt>
      <trkpt lat="45.66443" lon="4.61515">
        <ele>540.7</ele>
        <time>2015-04-26T07:19:15Z</time>
      </trkpt>
      <trkpt lat="45.6644" lon="4.61502">
        <ele>542.2</ele>
        <time>2015-04-26T07:19:20Z</time>
      </trkpt>
      <trkpt lat="45.66438" lon="4.6149">
        <ele>543.4</ele>
        <time>2015-04-26T07:19:25Z</time>
      </trkpt>
      <trkpt lat="45.66432" lon="4.61482">
        <ele>544.8</ele>
        <time>2015-04-26T07:19:30Z</time>
      </trkpt>
      <trkpt lat="45.66425" lon="4.61472">
        <ele>545.4</ele>
        <time>2015-04-26T07:19:35Z</time>
      </trkpt>
      <trkpt lat="45.66418" lon="4.61462">
        <ele>546.4</ele>
        <time>2015-04-26T07:19:40Z</time>
      </trkpt>
      <trkpt lat="45.66415" lon="4.61448">
        <ele>548.4</ele>
        <time>2015-04-26T07:19:45Z</time>
      </trkpt>
      <trkpt lat="45.66412" lon="4.61437">
        <ele>549.7</ele>
        <time>2015-04-26T07:19:50Z</time>
      </trkpt>
      <trkpt lat="45.66405" lon="4.61427">
        <ele>551</ele>
        <time>2015-04-26T07:19:55Z</time>
      </trkpt>
      <trkpt lat="45.66402" lon="4.61413">
        <ele>552.7</ele>
        <time>2015-04-26T07:20:00Z</time>
      </trkpt>
      <trkpt lat="45.66398" lon="4.61402">
        <ele>554.4</ele>
        <time>2015-04-26T07:20:05Z</time>
      </trkpt>
      <trkpt lat="45.66395" lon="4.6139">
        <ele>555.6</ele>
        <time>2015-04-26T07:20:10Z</time>
      </trkpt>
      <trkpt lat="45.66392" lon="4.6138">
        <ele>556.1</ele>
        <time>2015-04-26T07:20:15Z</time>
      </trkpt>
      <trkpt lat="45.66387" lon="4.61368">
        <ele>557.4</ele>
        <time>2015-04-26T07:20:20Z</time>
      </trkpt>
      <trkpt lat="45.6638" lon="4.6136">
        <ele>558.4</ele>
        <time>2015-04-26T07:20:25Z</time>
      </trkpt>
      <trkpt lat="45.66373" lon="4.61352">
        <ele>558.8</ele>
        <time>2015-04-26T07:20:30Z</time>
      </trkpt>
      <trkpt lat="45.66367" lon="4.61347">
        <ele>561.5</ele>
        <time>2015-04-26T07:20:35Z</time>
      </trkpt>
      <trkpt lat="45.66358" lon="4.6134">
        <ele>562.6</ele>
        <time>2015-04-26T07:20:40Z</time>
      </trkpt>
      <trkpt lat="45.6635" lon="4.61335">
        <ele>563</ele>
        <time>2015-04-26T07:20:45Z</time>
      </trkpt>
      <trkpt lat="45.66338" lon="4.61333">
        <ele>563.5</ele>
        <time>2015-04-26T07:20:50Z</time>
      </trkpt>
      <trkpt lat="45.66328" lon="4.6133">
        <ele>565.7</ele>
        <time>2015-04-26T07:20:55Z</time>
      </trkpt>
      <trkpt lat="45.66317" lon="4.61328">
        <ele>565.2</ele>
        <time>2015-04-26T07:21:00Z</time>
      </trkpt>
      <trkpt lat="45.66307" lon="4.61323">
        <ele>566.7</ele>
        <time>2015-04-26T07:21:05Z</time>
      </trkpt>
      <trkpt lat="45.66295" lon="4.61322">
        <ele>568.4</ele>
        <time>2015-04-26T07:21:10Z</time>
      </trkpt>
      <trkpt lat="45.66285" lon="4.61317">
        <ele>570.1</ele>
        <time>2015-04-26T07:21:15Z</time>
      </trkpt>
      <trkpt lat="45.66277" lon="4.61313">
        <ele>571.2</ele>
        <time>2015-04-26T07:21:20Z</time>
      </trkpt>
      <trkpt lat="45.66267" lon="4.61308">
        <ele>572.3</ele>
        <time>2015-04-26T07:21:25Z</time>
      </trkpt>
      <trkpt lat="45.66257" lon="4.61302">
        <ele>573.2</ele>
        <time>2015-04-26T07:21:30Z</time>
      </trkpt>
      <trkpt lat="45.66247" lon="4.61292">
        <ele>573.8</ele>
        <time>2015-04-26T07:21:35Z</time>
      </trkpt>
      <trkpt lat="45.66238" lon="4.61282">
        <ele>575.7</ele>
        <time>2015-04-26T07:21:40Z</time>
      </trkpt>
      <trkpt lat="45.66232" lon="4.61268">
        <ele>576.2</ele>
        <time>2015-04-26T07:21:45Z</time>
      </trkpt>
      <trkpt lat="45.66225" lon="4.61253">
        <ele>577.4</ele>
        <time>2015-04-26T07:21:50Z</time>
      </trkpt>
      <trkpt lat="45.66217" lon="4.61243">
        <ele>578.5</ele>
        <time>2015-04-26T07:21:55Z</time>
      </trkpt>
      <trkpt lat="45.66208" lon="4.61232">
        <ele>581.2</ele>
        <time>2015-04-26T07:22:00Z</time>
      </trkpt>
      <trkpt lat="45.66198" lon="4.61222">
        <ele>580.9</ele>
        <time>2015-04-26T07:22:05Z</time>
      </trkpt>
      <trkpt lat="45.6619" lon="4.61212">
        <ele>581.7</ele>
        <time>2015-04-26T07:22:10Z</time>
      </trkpt>
      <trkpt lat="45.6618" lon="4.61202">
        <ele>582.3</ele>
        <time>2015-04-26T07:22:15Z</time>
      </trkpt>
      <trkpt lat="45.66172" lon="4.6119">
        <ele>583.5</ele>
        <time>2015-04-26T07:22:20Z</time>
      </trkpt>
      <trkpt lat="45.66163" lon="4.61182">
        <ele>585.4</ele>
        <time>2015-04-26T07:22:25Z</time>
      </trkpt>
      <trkpt lat="45.66153" lon="4.61172">
        <ele>585.8</ele>
        <time>2015-04-26T07:22:30Z</time>
      </trkpt>
      <trkpt lat="45.66147" lon="4.61158">
        <ele>587.3</ele>
        <time>2015-04-26T07:22:35Z</time>
      </trkpt>
      <trkpt lat="45.66143" lon="4.61138">
        <ele>587.1</ele>
        <time>2015-04-26T07:22:40Z</time>
      </trkpt>
      <trkpt lat="45.6614" lon="4.61113">
        <ele>587.6</ele>
        <time>2015-04-26T07:22:45Z</time>
      </trkpt>
      <trkpt lat="45.66137" lon="4.61087">
        <ele>587.9</ele>
        <time>2015-04-26T07:22:50Z</time>
      </trkpt>
      <trkpt lat="45.66132" lon="4.61062">
        <ele>588.4</ele>
        <time>2015-04-26T07:22:55Z</time>
      </trkpt>
      <trkpt lat="45.66125" lon="4.61035">
        <ele>589.5</ele>
        <time>2015-04-26T07:23:00Z</time>
      </trkpt>
      <trkpt lat="45.66118" lon="4.61008">
        <ele>589.7</ele>
        <time>2015-04-26T07:23:05Z</time>
      </trkpt>
      <trkpt lat="45.66108" lon="4.60982">
        <ele>589.4</ele>
        <time>2015-04-26T07:23:10Z</time>
      </trkpt>
      <trkpt lat="45.66098" lon="4.60955">
        <ele>590.9</ele>
        <time>2015-04-26T07:23:15Z</time>
      </trkpt>
      <trkpt lat="45.66085" lon="4.60937">
        <ele>593.1</ele>
        <time>2015-04-26T07:23:20Z</time>
      </trkpt>
      <trkpt lat="45.66072" lon="4.6092">
        <ele>593.8</ele>
        <time>2015-04-26T07:23:25Z</time>
      </trkpt>
      <trkpt lat="45.66058" lon="4.60902">
        <ele>594</ele>
        <time>2015-04-26T07:23:30Z</time>
      </trkpt>
      <trkpt lat="45.66042" lon="4.60877">
        <ele>594.4</ele>
        <time>2015-04-26T07:23:35Z</time>
      </trkpt>
      <trkpt lat="45.6603" lon="4.60842">
        <ele>593</ele>
        <time>2015-04-26T07:23:40Z</time>
      </trkpt>
      <trkpt lat="45.66008" lon="4.60812">
        <ele>593</ele>
        <time>2015-04-26T07:23:45Z</time>
      </trkpt>
      <trkpt lat="45.6599" lon="4.60782">
        <ele>593.5</ele>
        <time>2015-04-26T07:23:50Z</time>
      </trkpt>
      <trkpt lat="45.65975" lon="4.60745">
        <ele>593</ele>
        <time>2015-04-26T07:23:55Z</time>
      </trkpt>
      <trkpt lat="45.65963" lon="4.60698">
        <ele>592.2</ele>
        <time>2015-04-26T07:24:00Z</time>
      </trkpt>
      <trkpt lat="45.6595" lon="4.60648">
        <ele>590.8</ele>
        <time>2015-04-26T07:24:05Z</time>
      </trkpt>
      <trkpt lat="45.65932" lon="4.60603">
        <ele>590.4</ele>
        <time>2015-04-26T07:24:10Z</time>
      </trkpt>
      <trkpt lat="45.65915" lon="4.60555">
        <ele>588.2</ele>
        <time>2015-04-26T07:24:15Z</time>
      </trkpt>
      <trkpt lat="45.659" lon="4.60505">
        <ele>587.2</ele>
        <time>2015-04-26T07:24:20Z</time>
      </trkpt>
      <trkpt lat="45.65882" lon="4.6046">
        <ele>587.2</ele>
        <time>2015-04-26T07:24:25Z</time>
      </trkpt>
      <trkpt lat="45.65867" lon="4.60415">
        <ele>587.4</ele>
        <time>2015-04-26T07:24:30Z</time>
      </trkpt>
      <trkpt lat="45.65855" lon="4.60368">
        <ele>587.4</ele>
        <time>2015-04-26T07:24:35Z</time>
      </trkpt>
      <trkpt lat="45.65848" lon="4.60327">
        <ele>587.2</ele>
        <time>2015-04-26T07:24:40Z</time>
      </trkpt>
      <trkpt lat="45.65842" lon="4.60288">
        <ele>588.9</ele>
        <time>2015-04-26T07:24:45Z</time>
      </trkpt>
      <trkpt lat="45.65837" lon="4.60257">
        <ele>589.1</ele>
        <time>2015-04-26T07:24:50Z</time>
      </trkpt>
      <trkpt lat="45.65832" lon="4.60228">
        <ele>589.6</ele>
        <time>2015-04-26T07:24:55Z</time>
      </trkpt>
      <trkpt lat="45.65828" lon="4.60193">
        <ele>589.2</ele>
        <time>2015-04-26T07:25:00Z</time>
      </trkpt>
      <trkpt lat="45.65823" lon="4.6016">
        <ele>591.7</ele>
        <time>2015-04-26T07:25:05Z</time>
      </trkpt>
      <trkpt lat="45.65817" lon="4.60128">
        <ele>591.2</ele>
        <time>2015-04-26T07:25:10Z</time>
      </trkpt>
      <trkpt lat="45.65805" lon="4.60095">
        <ele>588.6</ele>
        <time>2015-04-26T07:25:15Z</time>
      </trkpt>
      <trkpt lat="45.6579" lon="4.60055">
        <ele>588.3</ele>
        <time>2015-04-26T07:25:20Z</time>
      </trkpt>
      <trkpt lat="45.65778" lon="4.60017">
        <ele>589.3</ele>
        <time>2015-04-26T07:25:25Z</time>
      </trkpt>
      <trkpt lat="45.65767" lon="4.59985">
        <ele>587.9</ele>
        <time>2015-04-26T07:25:30Z</time>
      </trkpt>
      <trkpt lat="45.65757" lon="4.5996">
        <ele>589.7</ele>
        <time>2015-04-26T07:25:35Z</time>
      </trkpt>
      <trkpt lat="45.65755" lon="4.5994">
        <ele>591.7</ele>
        <time>2015-04-26T07:25:40Z</time>
      </trkpt>
      <trkpt lat="45.65755" lon="4.59925">
        <ele>593.4</ele>
        <time>2015-04-26T07:25:45Z</time>
      </trkpt>
      <trkpt lat="45.65757" lon="4.59912">
        <ele>594.5</ele>
        <time>2015-04-26T07:25:50Z</time>
      </trkpt>
      <trkpt lat="45.65757" lon="4.59897">
        <ele>596.2</ele>
        <time>2015-04-26T07:25:55Z</time>
      </trkpt>
      <trkpt lat="45.65755" lon="4.59882">
        <ele>597.3</ele>
        <time>2015-04-26T07:26:00Z</time>
      </trkpt>
      <trkpt lat="45.65752" lon="4.59865">
        <ele>599.2</ele>
        <time>2015-04-26T07:26:05Z</time>
      </trkpt>
      <trkpt lat="45.65747" lon="4.59847">
        <ele>598.6</ele>
        <time>2015-04-26T07:26:10Z</time>
      </trkpt>
      <trkpt lat="45.65742" lon="4.5983">
        <ele>599.6</ele>
        <time>2015-04-26T07:26:15Z</time>
      </trkpt>
      <trkpt lat="45.65733" lon="4.5981">
        <ele>600.6</ele>
        <time>2015-04-26T07:26:20Z</time>
      </trkpt>
      <trkpt lat="45.65727" lon="4.5979">
        <ele>599.4</ele>
        <time>2015-04-26T07:26:25Z</time>
      </trkpt>
      <trkpt lat="45.65723" lon="4.59772">
        <ele>602</ele>
        <time>2015-04-26T07:26:30Z</time>
      </trkpt>
      <trkpt lat="45.6572" lon="4.59758">
        <ele>603.8</ele>
        <time>2015-04-26T07:26:35Z</time>
      </trkpt>
      <trkpt lat="45.65717" lon="4.59743">
        <ele>604.7</ele>
        <time>2015-04-26T07:26:40Z</time>
      </trkpt>
      <trkpt lat="45.65715" lon="4.59728">
        <ele>606.6</ele>
        <time>2015-04-26T07:26:45Z</time>
      </trkpt>
      <trkpt lat="45.65713" lon="4.59712">
        <ele>607.7</ele>
        <time>2015-04-26T07:26:50Z</time>
      </trkpt>
      <trkpt lat="45.6571" lon="4.59698">
        <ele>609.5</ele>
        <time>2015-04-26T07:26:55Z</time>
      </trkpt>
      <trkpt lat="45.65705" lon="4.59682">
        <ele>610.5</ele>
        <time>2015-04-26T07:27:00Z</time>
      </trkpt>
      <trkpt lat="45.65703" lon="4.59667">
        <ele>611.5</ele>
        <time>2015-04-26T07:27:05Z</time>
      </trkpt>
      <trkpt lat="45.657" lon="4.59652">
        <ele>614.1</ele>
        <time>2015-04-26T07:27:10Z</time>
      </trkpt>
      <trkpt lat="45.65698" lon="4.59637">
        <ele>615</ele>
        <time>2015-04-26T07:27:15Z</time>
      </trkpt>
      <trkpt lat="45.65693" lon="4.59625">
        <ele>615.9</ele>
        <time>2015-04-26T07:27:20Z</time>
      </trkpt>
      <trkpt lat="45.65683" lon="4.59622">
        <ele>616.4</ele>
        <time>2015-04-26T07:27:25Z</time>
      </trkpt>
      <trkpt lat="45.65677" lon="4.5962">
        <ele>617.7</ele>
        <time>2015-04-26T07:27:30Z</time>
      </trkpt>
      <trkpt lat="45.65673" lon="4.59618">
        <ele>618.4</ele>
        <time>2015-04-26T07:27:35Z</time>
      </trkpt>
      <trkpt lat="45.65673" lon="4.5962">
        <ele>618.6</ele>
        <time>2015-04-26T07:27:40Z</time>
      </trkpt>
      <trkpt lat="45.65673" lon="4.59618">
        <ele>617.5</ele>
        <time>2015-04-26T07:27:45Z</time>
      </trkpt>
      <trkpt lat="45.65678" lon="4.59615">
        <ele>618.2</ele>
        <time>2015-04-26T07:36:10Z</time>
      </trkpt>
      <trkpt lat="45.65693" lon="4.59625">
        <ele>615.7</ele>
        <time>2015-04-26T07:36:15Z</time>
      </trkpt>
      <trkpt lat="45.65695" lon="4.59647">
        <ele>615.3</ele>
        <time>2015-04-26T07:36:20Z</time>
      </trkpt>
      <trkpt lat="45.65677" lon="4.59672">
        <ele>613</ele>
        <time>2015-04-26T07:36:25Z</time>
      </trkpt>
      <trkpt lat="45.65657" lon="4.59693">
        <ele>612.5</ele>
        <time>2015-04-26T07:36:30Z</time>
      </trkpt>
      <trkpt lat="45.65635" lon="4.59717">
        <ele>610.6</ele>
        <time>2015-04-26T07:36:35Z</time>
      </trkpt>
      <trkpt lat="45.6561" lon="4.59745">
        <ele>608.6</ele>
        <time>2015-04-26T07:36:40Z</time>
      </trkpt>
      <trkpt lat="45.65578" lon="4.59773">
        <ele>607.6</ele>
        <time>2015-04-26T07:36:45Z</time>
      </trkpt>
      <trkpt lat="45.6554" lon="4.59803">
        <ele>606</ele>
        <time>2015-04-26T07:36:50Z</time>
      </trkpt>
      <trkpt lat="45.65523" lon="4.59858">
        <ele>603.5</ele>
        <time>2015-04-26T07:36:55Z</time>
      </trkpt>
      <trkpt lat="45.6551" lon="4.59913">
        <ele>602.6</ele>
        <time>2015-04-26T07:37:00Z</time>
      </trkpt>
      <trkpt lat="45.65487" lon="4.59963">
        <ele>599.5</ele>
        <time>2015-04-26T07:37:05Z</time>
      </trkpt>
      <trkpt lat="45.65457" lon="4.60002">
        <ele>597.4</ele>
        <time>2015-04-26T07:37:10Z</time>
      </trkpt>
      <trkpt lat="45.65415" lon="4.60017">
        <ele>596.1</ele>
        <time>2015-04-26T07:37:15Z</time>
      </trkpt>
      <trkpt lat="45.65385" lon="4.60058">
        <ele>595.1</ele>
        <time>2015-04-26T07:37:20Z</time>
      </trkpt>
      <trkpt lat="45.65368" lon="4.60097">
        <ele>597.1</ele>
        <time>2015-04-26T07:37:25Z</time>
      </trkpt>
      <trkpt lat="45.65357" lon="4.60115">
        <ele>597.5</ele>
        <time>2015-04-26T07:37:30Z</time>
      </trkpt>
      <trkpt lat="45.65348" lon="4.60128">
        <ele>599.1</ele>
        <time>2015-04-26T07:37:35Z</time>
      </trkpt>
      <trkpt lat="45.65337" lon="4.60142">
        <ele>599.4</ele>
        <time>2015-04-26T07:37:40Z</time>
      </trkpt>
      <trkpt lat="45.65328" lon="4.60167">
        <ele>599.4</ele>
        <time>2015-04-26T07:37:45Z</time>
      </trkpt>
      <trkpt lat="45.65317" lon="4.60183">
        <ele>601.1</ele>
        <time>2015-04-26T07:37:50Z</time>
      </trkpt>
      <trkpt lat="45.65307" lon="4.60193">
        <ele>602.8</ele>
        <time>2015-04-26T07:37:55Z</time>
      </trkpt>
      <trkpt lat="45.65298" lon="4.60198">
        <ele>604.6</ele>
        <time>2015-04-26T07:38:00Z</time>
      </trkpt>
      <trkpt lat="45.65293" lon="4.60205">
        <ele>606</ele>
        <time>2015-04-26T07:38:05Z</time>
      </trkpt>
      <trkpt lat="45.65285" lon="4.60217">
        <ele>607</ele>
        <time>2015-04-26T07:38:10Z</time>
      </trkpt>
      <trkpt lat="45.65278" lon="4.60227">
        <ele>608.6</ele>
        <time>2015-04-26T07:38:15Z</time>
      </trkpt>
      <trkpt lat="45.6527" lon="4.60235">
        <ele>609.5</ele>
        <time>2015-04-26T07:38:20Z</time>
      </trkpt>
      <trkpt lat="45.6526" lon="4.60243">
        <ele>609.8</ele>
        <time>2015-04-26T07:38:25Z</time>
      </trkpt>
      <trkpt lat="45.65248" lon="4.60252">
        <ele>610.9</ele>
        <time>2015-04-26T07:38:30Z</time>
      </trkpt>
      <trkpt lat="45.65235" lon="4.60263">
        <ele>609.1</ele>
        <time>2015-04-26T07:38:35Z</time>
      </trkpt>
      <trkpt lat="45.6522" lon="4.60273">
        <ele>609.8</ele>
        <time>2015-04-26T07:38:40Z</time>
      </trkpt>
      <trkpt lat="45.65205" lon="4.60282">
        <ele>609.2</ele>
        <time>2015-04-26T07:38:45Z</time>
      </trkpt>
      <trkpt lat="45.65192" lon="4.60288">
        <ele>610.6</ele>
        <time>2015-04-26T07:38:50Z</time>
      </trkpt>
      <trkpt lat="45.65177" lon="4.60293">
        <ele>610.2</ele>
        <time>2015-04-26T07:38:55Z</time>
      </trkpt>
      <trkpt lat="45.65163" lon="4.60297">
        <ele>610.1</ele>
        <time>2015-04-26T07:39:00Z</time>
      </trkpt>
      <trkpt lat="45.65147" lon="4.60298">
        <ele>609.9</ele>
        <time>2015-04-26T07:39:05Z</time>
      </trkpt>
      <trkpt lat="45.6513" lon="4.603">
        <ele>610.6</ele>
        <time>2015-04-26T07:39:10Z</time>
      </trkpt>
      <trkpt lat="45.6511" lon="4.60303">
        <ele>610.7</ele>
        <time>2015-04-26T07:39:15Z</time>
      </trkpt>
      <trkpt lat="45.65078" lon="4.60317">
        <ele>605.9</ele>
        <time>2015-04-26T07:39:20Z</time>
      </trkpt>
      <trkpt lat="45.65047" lon="4.60317">
        <ele>596.9</ele>
        <time>2015-04-26T07:39:25Z</time>
      </trkpt>
      <trkpt lat="45.65017" lon="4.60303">
        <ele>590.8</ele>
        <time>2015-04-26T07:39:30Z</time>
      </trkpt>
      <trkpt lat="45.64987" lon="4.60292">
        <ele>580.7</ele>
        <time>2015-04-26T07:39:35Z</time>
      </trkpt>
      <trkpt lat="45.64953" lon="4.6027">
        <ele>578.8</ele>
        <time>2015-04-26T07:39:40Z</time>
      </trkpt>
      <trkpt lat="45.64928" lon="4.60233">
        <ele>579.1</ele>
        <time>2015-04-26T07:39:45Z</time>
      </trkpt>
      <trkpt lat="45.6492" lon="4.60187">
        <ele>578.6</ele>
        <time>2015-04-26T07:39:50Z</time>
      </trkpt>
      <trkpt lat="45.64905" lon="4.6014">
        <ele>578.2</ele>
        <time>2015-04-26T07:39:55Z</time>
      </trkpt>
      <trkpt lat="45.64872" lon="4.60143">
        <ele>578.4</ele>
        <time>2015-04-26T07:40:00Z</time>
      </trkpt>
      <trkpt lat="45.64845" lon="4.60173">
        <ele>577.1</ele>
        <time>2015-04-26T07:40:05Z</time>
      </trkpt>
      <trkpt lat="45.64825" lon="4.6021">
        <ele>578</ele>
        <time>2015-04-26T07:40:10Z</time>
      </trkpt>
      <trkpt lat="45.6481" lon="4.60248">
        <ele>578.2</ele>
        <time>2015-04-26T07:40:15Z</time>
      </trkpt>
      <trkpt lat="45.64797" lon="4.6029">
        <ele>578.9</ele>
        <time>2015-04-26T07:40:20Z</time>
      </trkpt>
      <trkpt lat="45.64787" lon="4.6033">
        <ele>579.5</ele>
        <time>2015-04-26T07:40:25Z</time>
      </trkpt>
      <trkpt lat="45.64778" lon="4.60367">
        <ele>579.6</ele>
        <time>2015-04-26T07:40:30Z</time>
      </trkpt>
      <trkpt lat="45.64772" lon="4.60402">
        <ele>579.9</ele>
        <time>2015-04-26T07:40:35Z</time>
      </trkpt>
      <trkpt lat="45.64758" lon="4.60433">
        <ele>580</ele>
        <time>2015-04-26T07:40:40Z</time>
      </trkpt>
      <trkpt lat="45.64733" lon="4.60445">
        <ele>580.3</ele>
        <time>2015-04-26T07:40:45Z</time>
      </trkpt>
      <trkpt lat="45.64707" lon="4.60437">
        <ele>580</ele>
        <time>2015-04-26T07:40:50Z</time>
      </trkpt>
      <trkpt lat="45.64677" lon="4.60432">
        <ele>578.8</ele>
        <time>2015-04-26T07:40:55Z</time>
      </trkpt>
      <trkpt lat="45.6465" lon="4.60453">
        <ele>577.4</ele>
        <time>2015-04-26T07:41:00Z</time>
      </trkpt>
      <trkpt lat="45.64642" lon="4.605">
        <ele>578.2</ele>
        <time>2015-04-26T07:41:05Z</time>
      </trkpt>
      <trkpt lat="45.64653" lon="4.60538">
        <ele>578.2</ele>
        <time>2015-04-26T07:41:10Z</time>
      </trkpt>
      <trkpt lat="45.64677" lon="4.60567">
        <ele>576.6</ele>
        <time>2015-04-26T07:41:15Z</time>
      </trkpt>
      <trkpt lat="45.64703" lon="4.60592">
        <ele>576.4</ele>
        <time>2015-04-26T07:41:20Z</time>
      </trkpt>
      <trkpt lat="45.6471" lon="4.60617">
        <ele>577.7</ele>
        <time>2015-04-26T07:41:25Z</time>
      </trkpt>
      <trkpt lat="45.64723" lon="4.60633">
        <ele>579.3</ele>
        <time>2015-04-26T07:41:30Z</time>
      </trkpt>
      <trkpt lat="45.64738" lon="4.60655">
        <ele>579.3</ele>
        <time>2015-04-26T07:41:35Z</time>
      </trkpt>
      <trkpt lat="45.6473" lon="4.60665">
        <ele>579.9</ele>
        <time>2015-04-26T07:41:40Z</time>
      </trkpt>
      <trkpt lat="45.64718" lon="4.60673">
        <ele>581.8</ele>
        <time>2015-04-26T07:41:45Z</time>
      </trkpt>
      <trkpt lat="45.64708" lon="4.60687">
        <ele>582.6</ele>
        <time>2015-04-26T07:41:50Z</time>
      </trkpt>
      <trkpt lat="45.64693" lon="4.60697">
        <ele>581.9</ele>
        <time>2015-04-26T07:41:55Z</time>
      </trkpt>
      <trkpt lat="45.64677" lon="4.60703">
        <ele>583.3</ele>
        <time>2015-04-26T07:42:00Z</time>
      </trkpt>
      <trkpt lat="45.64658" lon="4.60708">
        <ele>583.5</ele>
        <time>2015-04-26T07:42:05Z</time>
      </trkpt>
      <trkpt lat="45.6464" lon="4.60708">
        <ele>582.7</ele>
        <time>2015-04-26T07:42:10Z</time>
      </trkpt>
      <trkpt lat="45.64618" lon="4.60708">
        <ele>581.2</ele>
        <time>2015-04-26T07:42:15Z</time>
      </trkpt>
      <trkpt lat="45.64602" lon="4.60717">
        <ele>583.3</ele>
        <time>2015-04-26T07:42:20Z</time>
      </trkpt>
      <trkpt lat="45.64587" lon="4.60735">
        <ele>583.6</ele>
        <time>2015-04-26T07:42:25Z</time>
      </trkpt>
      <trkpt lat="45.6458" lon="4.60757">
        <ele>584.1</ele>
        <time>2015-04-26T07:42:30Z</time>
      </trkpt>
      <trkpt lat="45.64577" lon="4.60773">
        <ele>583.5</ele>
        <time>2015-04-26T07:42:35Z</time>
      </trkpt>
      <trkpt lat="45.6457" lon="4.60787">
        <ele>585.9</ele>
        <time>2015-04-26T07:42:40Z</time>
      </trkpt>
      <trkpt lat="45.64567" lon="4.6079">
        <ele>585.5</ele>
        <time>2015-04-26T07:42:45Z</time>
      </trkpt>
      <trkpt lat="45.64565" lon="4.60793">
        <ele>585.4</ele>
        <time>2015-04-26T07:42:50Z</time>
      </trkpt>
      <trkpt lat="45.6456" lon="4.60807">
        <ele>587.1</ele>
        <time>2015-04-26T07:42:55Z</time>
      </trkpt>
      <trkpt lat="45.64552" lon="4.6082">
        <ele>586.5</ele>
        <time>2015-04-26T07:43:00Z</time>
      </trkpt>
      <trkpt lat="45.64542" lon="4.60833">
        <ele>587.2</ele>
        <time>2015-04-26T07:43:05Z</time>
      </trkpt>
      <trkpt lat="45.6453" lon="4.60843">
        <ele>589.2</ele>
        <time>2015-04-26T07:43:10Z</time>
      </trkpt>
      <trkpt lat="45.64515" lon="4.60853">
        <ele>590.6</ele>
        <time>2015-04-26T07:43:15Z</time>
      </trkpt>
      <trkpt lat="45.645" lon="4.60857">
        <ele>591.5</ele>
        <time>2015-04-26T07:43:20Z</time>
      </trkpt>
      <trkpt lat="45.64485" lon="4.60858">
        <ele>592.3</ele>
        <time>2015-04-26T07:43:25Z</time>
      </trkpt>
      <trkpt lat="45.64468" lon="4.60855">
        <ele>591.8</ele>
        <time>2015-04-26T07:43:30Z</time>
      </trkpt>
      <trkpt lat="45.6444" lon="4.6085">
        <ele>588.9</ele>
        <time>2015-04-26T07:43:35Z</time>
      </trkpt>
      <trkpt lat="45.64412" lon="4.60853">
        <ele>587.7</ele>
        <time>2015-04-26T07:43:40Z</time>
      </trkpt>
      <trkpt lat="45.64393" lon="4.60853">
        <ele>588.1</ele>
        <time>2015-04-26T07:43:45Z</time>
      </trkpt>
      <trkpt lat="45.6438" lon="4.60858">
        <ele>587.7</ele>
        <time>2015-04-26T07:43:50Z</time>
      </trkpt>
      <trkpt lat="45.64368" lon="4.60863">
        <ele>590.7</ele>
        <time>2015-04-26T07:43:55Z</time>
      </trkpt>
      <trkpt lat="45.64363" lon="4.60875">
        <ele>590.5</ele>
        <time>2015-04-26T07:44:00Z</time>
      </trkpt>
      <trkpt lat="45.64355" lon="4.60887">
        <ele>592.8</ele>
        <time>2015-04-26T07:44:05Z</time>
      </trkpt>
      <trkpt lat="45.64352" lon="4.60893">
        <ele>594.1</ele>
        <time>2015-04-26T07:44:10Z</time>
      </trkpt>
      <trkpt lat="45.64348" lon="4.60898">
        <ele>594.1</ele>
        <time>2015-04-26T07:44:15Z</time>
      </trkpt>
      <trkpt lat="45.64347" lon="4.60905">
        <ele>595.7</ele>
        <time>2015-04-26T07:44:20Z</time>
      </trkpt>
      <trkpt lat="45.64343" lon="4.60915">
        <ele>597.5</ele>
        <time>2015-04-26T07:44:25Z</time>
      </trkpt>
      <trkpt lat="45.64338" lon="4.60923">
        <ele>599.9</ele>
        <time>2015-04-26T07:44:30Z</time>
      </trkpt>
      <trkpt lat="45.64335" lon="4.60932">
        <ele>601.2</ele>
        <time>2015-04-26T07:44:35Z</time>
      </trkpt>
      <trkpt lat="45.6433" lon="4.60943">
        <ele>602.1</ele>
        <time>2015-04-26T07:44:40Z</time>
      </trkpt>
      <trkpt lat="45.64325" lon="4.60952">
        <ele>603.4</ele>
        <time>2015-04-26T07:44:45Z</time>
      </trkpt>
      <trkpt lat="45.64318" lon="4.60962">
        <ele>604.7</ele>
        <time>2015-04-26T07:44:50Z</time>
      </trkpt>
      <trkpt lat="45.64312" lon="4.60972">
        <ele>604.3</ele>
        <time>2015-04-26T07:44:55Z</time>
      </trkpt>
      <trkpt lat="45.64302" lon="4.60978">
        <ele>606</ele>
        <time>2015-04-26T07:45:00Z</time>
      </trkpt>
      <trkpt lat="45.6429" lon="4.60983">
        <ele>606.5</ele>
        <time>2015-04-26T07:45:05Z</time>
      </trkpt>
      <trkpt lat="45.64275" lon="4.6099">
        <ele>606.7</ele>
        <time>2015-04-26T07:45:10Z</time>
      </trkpt>
      <trkpt lat="45.64253" lon="4.61003">
        <ele>605.1</ele>
        <time>2015-04-26T07:45:15Z</time>
      </trkpt>
      <trkpt lat="45.64223" lon="4.61025">
        <ele>605.3</ele>
        <time>2015-04-26T07:45:20Z</time>
      </trkpt>
      <trkpt lat="45.64183" lon="4.61052">
        <ele>600.9</ele>
        <time>2015-04-26T07:45:25Z</time>
      </trkpt>
      <trkpt lat="45.64143" lon="4.61077">
        <ele>594.4</ele>
        <time>2015-04-26T07:45:30Z</time>
      </trkpt>
      <trkpt lat="45.64098" lon="4.61095">
        <ele>589.3</ele>
        <time>2015-04-26T07:45:35Z</time>
      </trkpt>
      <trkpt lat="45.64063" lon="4.61092">
        <ele>584.2</ele>
        <time>2015-04-26T07:45:40Z</time>
      </trkpt>
      <trkpt lat="45.64038" lon="4.61073">
        <ele>580.7</ele>
        <time>2015-04-26T07:45:45Z</time>
      </trkpt>
      <trkpt lat="45.64017" lon="4.61053">
        <ele>581.7</ele>
        <time>2015-04-26T07:45:50Z</time>
      </trkpt>
      <trkpt lat="45.63997" lon="4.61033">
        <ele>582.3</ele>
        <time>2015-04-26T07:45:55Z</time>
      </trkpt>
      <trkpt lat="45.63975" lon="4.61012">
        <ele>581.5</ele>
        <time>2015-04-26T07:46:00Z</time>
      </trkpt>
      <trkpt lat="45.63952" lon="4.61005">
        <ele>582</ele>
        <time>2015-04-26T07:46:05Z</time>
      </trkpt>
      <trkpt lat="45.6394" lon="4.61027">
        <ele>582.7</ele>
        <time>2015-04-26T07:46:10Z</time>
      </trkpt>
      <trkpt lat="45.63942" lon="4.61065">
        <ele>583.3</ele>
        <time>2015-04-26T07:46:15Z</time>
      </trkpt>
      <trkpt lat="45.6395" lon="4.61103">
        <ele>583.7</ele>
        <time>2015-04-26T07:46:20Z</time>
      </trkpt>
      <trkpt lat="45.63958" lon="4.61142">
        <ele>583.9</ele>
        <time>2015-04-26T07:46:25Z</time>
      </trkpt>
      <trkpt lat="45.63963" lon="4.61183">
        <ele>583.4</ele>
        <time>2015-04-26T07:46:30Z</time>
      </trkpt>
      <trkpt lat="45.63962" lon="4.61225">
        <ele>585.6</ele>
        <time>2015-04-26T07:46:35Z</time>
      </trkpt>
      <trkpt lat="45.63948" lon="4.61262">
        <ele>585.8</ele>
        <time>2015-04-26T07:46:40Z</time>
      </trkpt>
      <trkpt lat="45.63933" lon="4.613">
        <ele>585.5</ele>
        <time>2015-04-26T07:46:45Z</time>
      </trkpt>
      <trkpt lat="45.6392" lon="4.61337">
        <ele>585.7</ele>
        <time>2015-04-26T07:46:50Z</time>
      </trkpt>
      <trkpt lat="45.63907" lon="4.6137">
        <ele>585.2</ele>
        <time>2015-04-26T07:46:55Z</time>
      </trkpt>
      <trkpt lat="45.63893" lon="4.61403">
        <ele>585.6</ele>
        <time>2015-04-26T07:47:00Z</time>
      </trkpt>
      <trkpt lat="45.63883" lon="4.61432">
        <ele>584.7</ele>
        <time>2015-04-26T07:47:05Z</time>
      </trkpt>
      <trkpt lat="45.63882" lon="4.61465">
        <ele>585</ele>
        <time>2015-04-26T07:47:10Z</time>
      </trkpt>
      <trkpt lat="45.63887" lon="4.61488">
        <ele>585.5</ele>
        <time>2015-04-26T07:47:15Z</time>
      </trkpt>
      <trkpt lat="45.63903" lon="4.61485">
        <ele>585.1</ele>
        <time>2015-04-26T07:47:20Z</time>
      </trkpt>
      <trkpt lat="45.63927" lon="4.61477">
        <ele>583.8</ele>
        <time>2015-04-26T07:47:25Z</time>
      </trkpt>
      <trkpt lat="45.63948" lon="4.61455">
        <ele>585.8</ele>
        <time>2015-04-26T07:47:30Z</time>
      </trkpt>
      <trkpt lat="45.63972" lon="4.61408">
        <ele>575.6</ele>
        <time>2015-04-26T07:47:35Z</time>
      </trkpt>
      <trkpt lat="45.63993" lon="4.61382">
        <ele>572.5</ele>
        <time>2015-04-26T07:47:40Z</time>
      </trkpt>
      <trkpt lat="45.64018" lon="4.61363">
        <ele>563.4</ele>
        <time>2015-04-26T07:47:45Z</time>
      </trkpt>
      <trkpt lat="45.64043" lon="4.61352">
        <ele>556</ele>
        <time>2015-04-26T07:47:50Z</time>
      </trkpt>
      <trkpt lat="45.64068" lon="4.61347">
        <ele>557</ele>
        <time>2015-04-26T07:47:55Z</time>
      </trkpt>
      <trkpt lat="45.64092" lon="4.6135">
        <ele>554</ele>
        <time>2015-04-26T07:48:00Z</time>
      </trkpt>
      <trkpt lat="45.64113" lon="4.61353">
        <ele>545.5</ele>
        <time>2015-04-26T07:48:05Z</time>
      </trkpt>
      <trkpt lat="45.64118" lon="4.61353">
        <ele>544.9</ele>
        <time>2015-04-26T07:48:10Z</time>
      </trkpt>
      <trkpt lat="45.6413" lon="4.61355">
        <ele>545</ele>
        <time>2015-04-26T07:48:15Z</time>
      </trkpt>
      <trkpt lat="45.64155" lon="4.61352">
        <ele>542.9</ele>
        <time>2015-04-26T07:48:20Z</time>
      </trkpt>
      <trkpt lat="45.64178" lon="4.61357">
        <ele>540.9</ele>
        <time>2015-04-26T07:48:25Z</time>
      </trkpt>
      <trkpt lat="45.6421" lon="4.61357">
        <ele>535.6</ele>
        <time>2015-04-26T07:48:30Z</time>
      </trkpt>
      <trkpt lat="45.6424" lon="4.61367">
        <ele>530.2</ele>
        <time>2015-04-26T07:48:35Z</time>
      </trkpt>
      <trkpt lat="45.64247" lon="4.61377">
        <ele>533.2</ele>
        <time>2015-04-26T07:48:40Z</time>
      </trkpt>
      <trkpt lat="45.64252" lon="4.6138">
        <ele>532.9</ele>
        <time>2015-04-26T07:48:50Z</time>
      </trkpt>
      <trkpt lat="45.64252" lon="4.61382">
        <ele>533.2</ele>
        <time>2015-04-26T07:48:55Z</time>
      </trkpt>
      <trkpt lat="45.64252" lon="4.61382">
        <ele>533.3</ele>
        <time>2015-04-26T07:49:30Z</time>
      </trkpt>
      <trkpt lat="45.6426" lon="4.61395">
        <ele>533.2</ele>
        <time>2015-04-26T07:49:35Z</time>
      </trkpt>
      <trkpt lat="45.6426" lon="4.61397">
        <ele>534.3</ele>
        <time>2015-04-26T07:49:40Z</time>
      </trkpt>
      <trkpt lat="45.6426" lon="4.61397">
        <ele>534.8</ele>
        <time>2015-04-26T07:49:50Z</time>
      </trkpt>
      <trkpt lat="45.64263" lon="4.61407">
        <ele>535.2</ele>
        <time>2015-04-26T07:49:55Z</time>
      </trkpt>
      <trkpt lat="45.64265" lon="4.61415">
        <ele>537.9</ele>
        <time>2015-04-26T07:50:00Z</time>
      </trkpt>
      <trkpt lat="45.64267" lon="4.61425">
        <ele>538.3</ele>
        <time>2015-04-26T07:50:05Z</time>
      </trkpt>
      <trkpt lat="45.64272" lon="4.61437">
        <ele>541.4</ele>
        <time>2015-04-26T07:50:10Z</time>
      </trkpt>
      <trkpt lat="45.64273" lon="4.61445">
        <ele>543.2</ele>
        <time>2015-04-26T07:50:15Z</time>
      </trkpt>
      <trkpt lat="45.6428" lon="4.61452">
        <ele>545.1</ele>
        <time>2015-04-26T07:50:20Z</time>
      </trkpt>
      <trkpt lat="45.64283" lon="4.61462">
        <ele>547</ele>
        <time>2015-04-26T07:50:25Z</time>
      </trkpt>
      <trkpt lat="45.64285" lon="4.61467">
        <ele>548.3</ele>
        <time>2015-04-26T07:50:30Z</time>
      </trkpt>
      <trkpt lat="45.64287" lon="4.61473">
        <ele>550.2</ele>
        <time>2015-04-26T07:50:35Z</time>
      </trkpt>
      <trkpt lat="45.64288" lon="4.61483">
        <ele>551.5</ele>
        <time>2015-04-26T07:50:40Z</time>
      </trkpt>
      <trkpt lat="45.64292" lon="4.6149">
        <ele>553</ele>
        <time>2015-04-26T07:50:45Z</time>
      </trkpt>
      <trkpt lat="45.64295" lon="4.61502">
        <ele>555</ele>
        <time>2015-04-26T07:50:50Z</time>
      </trkpt>
      <trkpt lat="45.64303" lon="4.6151">
        <ele>556.7</ele>
        <time>2015-04-26T07:50:55Z</time>
      </trkpt>
      <trkpt lat="45.64308" lon="4.61515">
        <ele>557.6</ele>
        <time>2015-04-26T07:51:00Z</time>
      </trkpt>
      <trkpt lat="45.64315" lon="4.6152">
        <ele>559.6</ele>
        <time>2015-04-26T07:51:05Z</time>
      </trkpt>
      <trkpt lat="45.6432" lon="4.61525">
        <ele>560.9</ele>
        <time>2015-04-26T07:51:10Z</time>
      </trkpt>
      <trkpt lat="45.64323" lon="4.61532">
        <ele>562.5</ele>
        <time>2015-04-26T07:51:15Z</time>
      </trkpt>
      <trkpt lat="45.64328" lon="4.61537">
        <ele>563.3</ele>
        <time>2015-04-26T07:51:20Z</time>
      </trkpt>
      <trkpt lat="45.64333" lon="4.61543">
        <ele>564.9</ele>
        <time>2015-04-26T07:51:25Z</time>
      </trkpt>
      <trkpt lat="45.64337" lon="4.6155">
        <ele>566.2</ele>
        <time>2015-04-26T07:51:30Z</time>
      </trkpt>
      <trkpt lat="45.6434" lon="4.6156">
        <ele>567.7</ele>
        <time>2015-04-26T07:51:35Z</time>
      </trkpt>
      <trkpt lat="45.64345" lon="4.61568">
        <ele>568.7</ele>
        <time>2015-04-26T07:51:40Z</time>
      </trkpt>
      <trkpt lat="45.6435" lon="4.61578">
        <ele>570.2</ele>
        <time>2015-04-26T07:51:45Z</time>
      </trkpt>
      <trkpt lat="45.64352" lon="4.61587">
        <ele>571</ele>
        <time>2015-04-26T07:51:50Z</time>
      </trkpt>
      <trkpt lat="45.64355" lon="4.61595">
        <ele>572</ele>
        <time>2015-04-26T07:51:55Z</time>
      </trkpt>
      <trkpt lat="45.6436" lon="4.61605">
        <ele>572.7</ele>
        <time>2015-04-26T07:52:00Z</time>
      </trkpt>
      <trkpt lat="45.64362" lon="4.61608">
        <ele>574.8</ele>
        <time>2015-04-26T07:52:05Z</time>
      </trkpt>
      <trkpt lat="45.64368" lon="4.61617">
        <ele>575.1</ele>
        <time>2015-04-26T07:52:10Z</time>
      </trkpt>
      <trkpt lat="45.64375" lon="4.61627">
        <ele>576</ele>
        <time>2015-04-26T07:52:15Z</time>
      </trkpt>
      <trkpt lat="45.64382" lon="4.61635">
        <ele>578.6</ele>
        <time>2015-04-26T07:52:20Z</time>
      </trkpt>
      <trkpt lat="45.64388" lon="4.61645">
        <ele>580</ele>
        <time>2015-04-26T07:52:25Z</time>
      </trkpt>
      <trkpt lat="45.64393" lon="4.61655">
        <ele>581.4</ele>
        <time>2015-04-26T07:52:30Z</time>
      </trkpt>
      <trkpt lat="45.64398" lon="4.61665">
        <ele>582.1</ele>
        <time>2015-04-26T07:52:35Z</time>
      </trkpt>
      <trkpt lat="45.64405" lon="4.61678">
        <ele>582.6</ele>
        <time>2015-04-26T07:52:40Z</time>
      </trkpt>
      <trkpt lat="45.6441" lon="4.61692">
        <ele>584.7</ele>
        <time>2015-04-26T07:52:45Z</time>
      </trkpt>
      <trkpt lat="45.64422" lon="4.61707">
        <ele>583.9</ele>
        <time>2015-04-26T07:52:50Z</time>
      </trkpt>
      <trkpt lat="45.64438" lon="4.61715">
        <ele>584</ele>
        <time>2015-04-26T07:52:55Z</time>
      </trkpt>
      <trkpt lat="45.64453" lon="4.6172">
        <ele>585.8</ele>
        <time>2015-04-26T07:53:00Z</time>
      </trkpt>
      <trkpt lat="45.64467" lon="4.61728">
        <ele>587.5</ele>
        <time>2015-04-26T07:53:05Z</time>
      </trkpt>
      <trkpt lat="45.64477" lon="4.6174">
        <ele>588.6</ele>
        <time>2015-04-26T07:53:10Z</time>
      </trkpt>
      <trkpt lat="45.64487" lon="4.61752">
        <ele>589.8</ele>
        <time>2015-04-26T07:53:15Z</time>
      </trkpt>
      <trkpt lat="45.64497" lon="4.61763">
        <ele>590</ele>
        <time>2015-04-26T07:53:20Z</time>
      </trkpt>
      <trkpt lat="45.64507" lon="4.61778">
        <ele>590.9</ele>
        <time>2015-04-26T07:53:25Z</time>
      </trkpt>
      <trkpt lat="45.6451" lon="4.61798">
        <ele>593.3</ele>
        <time>2015-04-26T07:53:30Z</time>
      </trkpt>
      <trkpt lat="45.64502" lon="4.61817">
        <ele>592.2</ele>
        <time>2015-04-26T07:53:35Z</time>
      </trkpt>
      <trkpt lat="45.64488" lon="4.61825">
        <ele>594.8</ele>
        <time>2015-04-26T07:53:40Z</time>
      </trkpt>
      <trkpt lat="45.64475" lon="4.61828">
        <ele>596.1</ele>
        <time>2015-04-26T07:53:45Z</time>
      </trkpt>
      <trkpt lat="45.64463" lon="4.61828">
        <ele>598</ele>
        <time>2015-04-26T07:53:50Z</time>
      </trkpt>
      <trkpt lat="45.64452" lon="4.61828">
        <ele>598.9</ele>
        <time>2015-04-26T07:53:55Z</time>
      </trkpt>
      <trkpt lat="45.6444" lon="4.6184">
        <ele>599.4</ele>
        <time>2015-04-26T07:54:00Z</time>
      </trkpt>
      <trkpt lat="45.64428" lon="4.6186">
        <ele>598.7</ele>
        <time>2015-04-26T07:54:05Z</time>
      </trkpt>
      <trkpt lat="45.64418" lon="4.61883">
        <ele>599.1</ele>
        <time>2015-04-26T07:54:10Z</time>
      </trkpt>
      <trkpt lat="45.64413" lon="4.61908">
        <ele>599.1</ele>
        <time>2015-04-26T07:54:15Z</time>
      </trkpt>
      <trkpt lat="45.64413" lon="4.61935">
        <ele>600.2</ele>
        <time>2015-04-26T07:54:20Z</time>
      </trkpt>
      <trkpt lat="45.6442" lon="4.61962">
        <ele>601</ele>
        <time>2015-04-26T07:54:25Z</time>
      </trkpt>
      <trkpt lat="45.64427" lon="4.61987">
        <ele>604</ele>
        <time>2015-04-26T07:54:30Z</time>
      </trkpt>
      <trkpt lat="45.64433" lon="4.62007">
        <ele>605.2</ele>
        <time>2015-04-26T07:54:35Z</time>
      </trkpt>
      <trkpt lat="45.6444" lon="4.62028">
        <ele>607.5</ele>
        <time>2015-04-26T07:54:40Z</time>
      </trkpt>
      <trkpt lat="45.64445" lon="4.62048">
        <ele>608</ele>
        <time>2015-04-26T07:54:45Z</time>
      </trkpt>
      <trkpt lat="45.64452" lon="4.6207">
        <ele>608.7</ele>
        <time>2015-04-26T07:54:50Z</time>
      </trkpt>
      <trkpt lat="45.64457" lon="4.6209">
        <ele>610.7</ele>
        <time>2015-04-26T07:54:55Z</time>
      </trkpt>
      <trkpt lat="45.6446" lon="4.62112">
        <ele>609.5</ele>
        <time>2015-04-26T07:55:00Z</time>
      </trkpt>
      <trkpt lat="45.64462" lon="4.62133">
        <ele>612.1</ele>
        <time>2015-04-26T07:55:05Z</time>
      </trkpt>
      <trkpt lat="45.64463" lon="4.62153">
        <ele>611.6</ele>
        <time>2015-04-26T07:55:10Z</time>
      </trkpt>
      <trkpt lat="45.64465" lon="4.62175">
        <ele>613.2</ele>
        <time>2015-04-26T07:55:15Z</time>
      </trkpt>
      <trkpt lat="45.64465" lon="4.62197">
        <ele>614.7</ele>
        <time>2015-04-26T07:55:20Z</time>
      </trkpt>
      <trkpt lat="45.64468" lon="4.62222">
        <ele>615.6</ele>
        <time>2015-04-26T07:55:25Z</time>
      </trkpt>
      <trkpt lat="45.64465" lon="4.62253">
        <ele>615</ele>
        <time>2015-04-26T07:55:30Z</time>
      </trkpt>
      <trkpt lat="45.6446" lon="4.62283">
        <ele>615.3</ele>
        <time>2015-04-26T07:55:35Z</time>
      </trkpt>
      <trkpt lat="45.64453" lon="4.62323">
        <ele>613.7</ele>
        <time>2015-04-26T07:55:40Z</time>
      </trkpt>
      <trkpt lat="45.64453" lon="4.62377">
        <ele>606.1</ele>
        <time>2015-04-26T07:55:45Z</time>
      </trkpt>
      <trkpt lat="45.6446" lon="4.62432">
        <ele>603.3</ele>
        <time>2015-04-26T07:55:50Z</time>
      </trkpt>
      <trkpt lat="45.64465" lon="4.62475">
        <ele>599.1</ele>
        <time>2015-04-26T07:55:55Z</time>
      </trkpt>
      <trkpt lat="45.64422" lon="4.62485">
        <ele>593.6</ele>
        <time>2015-04-26T07:56:00Z</time>
      </trkpt>
      <trkpt lat="45.64395" lon="4.62527">
        <ele>588.4</ele>
        <time>2015-04-26T07:56:05Z</time>
      </trkpt>
      <trkpt lat="45.64392" lon="4.62595">
        <ele>583.1</ele>
        <time>2015-04-26T07:56:10Z</time>
      </trkpt>
      <trkpt lat="45.6436" lon="4.62647">
        <ele>578.2</ele>
        <time>2015-04-26T07:56:15Z</time>
      </trkpt>
      <trkpt lat="45.64333" lon="4.6271">
        <ele>572.9</ele>
        <time>2015-04-26T07:56:20Z</time>
      </trkpt>
      <trkpt lat="45.64337" lon="4.62743">
        <ele>570.1</ele>
        <time>2015-04-26T07:56:25Z</time>
      </trkpt>
      <trkpt lat="45.64355" lon="4.62763">
        <ele>568</ele>
        <time>2015-04-26T07:56:30Z</time>
      </trkpt>
      <trkpt lat="45.64385" lon="4.62788">
        <ele>568</ele>
        <time>2015-04-26T07:56:35Z</time>
      </trkpt>
      <trkpt lat="45.6443" lon="4.62797">
        <ele>557</ele>
        <time>2015-04-26T07:56:40Z</time>
      </trkpt>
      <trkpt lat="45.64462" lon="4.62792">
        <ele>552.8</ele>
        <time>2015-04-26T07:56:45Z</time>
      </trkpt>
      <trkpt lat="45.64502" lon="4.62778">
        <ele>545.3</ele>
        <time>2015-04-26T07:56:50Z</time>
      </trkpt>
      <trkpt lat="45.6455" lon="4.62777">
        <ele>539.5</ele>
        <time>2015-04-26T07:56:55Z</time>
      </trkpt>
      <trkpt lat="45.64587" lon="4.62813">
        <ele>538.3</ele>
        <time>2015-04-26T07:57:00Z</time>
      </trkpt>
      <trkpt lat="45.64617" lon="4.6286">
        <ele>534.1</ele>
        <time>2015-04-26T07:57:05Z</time>
      </trkpt>
      <trkpt lat="45.64647" lon="4.6291">
        <ele>532</ele>
        <time>2015-04-26T07:57:10Z</time>
      </trkpt>
      <trkpt lat="45.64673" lon="4.62962">
        <ele>527.1</ele>
        <time>2015-04-26T07:57:15Z</time>
      </trkpt>
      <trkpt lat="45.64707" lon="4.62995">
        <ele>523</ele>
        <time>2015-04-26T07:57:20Z</time>
      </trkpt>
      <trkpt lat="45.64757" lon="4.6299">
        <ele>514.1</ele>
        <time>2015-04-26T07:57:25Z</time>
      </trkpt>
      <trkpt lat="45.64793" lon="4.62987">
        <ele>504.6</ele>
        <time>2015-04-26T07:57:30Z</time>
      </trkpt>
      <trkpt lat="45.64797" lon="4.62977">
        <ele>499.4</ele>
        <time>2015-04-26T07:57:35Z</time>
      </trkpt>
      <trkpt lat="45.64818" lon="4.6298">
        <ele>495.7</ele>
        <time>2015-04-26T07:57:40Z</time>
      </trkpt>
      <trkpt lat="45.64853" lon="4.62995">
        <ele>491</ele>
        <time>2015-04-26T07:57:45Z</time>
      </trkpt>
      <trkpt lat="45.64888" lon="4.63017">
        <ele>483.2</ele>
        <time>2015-04-26T07:57:50Z</time>
      </trkpt>
      <trkpt lat="45.64927" lon="4.63012">
        <ele>475.3</ele>
        <time>2015-04-26T07:57:55Z</time>
      </trkpt>
      <trkpt lat="45.64965" lon="4.62977">
        <ele>467.1</ele>
        <time>2015-04-26T07:58:00Z</time>
      </trkpt>
      <trkpt lat="45.6501" lon="4.62927">
        <ele>458.4</ele>
        <time>2015-04-26T07:58:05Z</time>
      </trkpt>
      <trkpt lat="45.65055" lon="4.62872">
        <ele>449.9</ele>
        <time>2015-04-26T07:58:10Z</time>
      </trkpt>
      <trkpt lat="45.65103" lon="4.62835">
        <ele>443.2</ele>
        <time>2015-04-26T07:58:15Z</time>
      </trkpt>
      <trkpt lat="45.65152" lon="4.62838">
        <ele>434.5</ele>
        <time>2015-04-26T07:58:20Z</time>
      </trkpt>
      <trkpt lat="45.65178" lon="4.62867">
        <ele>426</ele>
        <time>2015-04-26T07:58:25Z</time>
      </trkpt>
      <trkpt lat="45.65212" lon="4.62867">
        <ele>425.7</ele>
        <time>2015-04-26T07:58:30Z</time>
      </trkpt>
      <trkpt lat="45.65247" lon="4.6286">
        <ele>424.4</ele>
        <time>2015-04-26T07:58:35Z</time>
      </trkpt>
      <trkpt lat="45.65283" lon="4.62855">
        <ele>424.6</ele>
        <time>2015-04-26T07:58:40Z</time>
      </trkpt>
      <trkpt lat="45.6532" lon="4.62857">
        <ele>420.7</ele>
        <time>2015-04-26T07:58:45Z</time>
      </trkpt>
      <trkpt lat="45.65347" lon="4.62843">
        <ele>414.8</ele>
        <time>2015-04-26T07:58:50Z</time>
      </trkpt>
      <trkpt lat="45.65335" lon="4.6281">
        <ele>413.3</ele>
        <time>2015-04-26T07:58:55Z</time>
      </trkpt>
      <trkpt lat="45.65333" lon="4.62763">
        <ele>411.5</ele>
        <time>2015-04-26T07:59:00Z</time>
      </trkpt>
      <trkpt lat="45.65343" lon="4.62717">
        <ele>410.1</ele>
        <time>2015-04-26T07:59:05Z</time>
      </trkpt>
      <trkpt lat="45.65353" lon="4.62667">
        <ele>408.9</ele>
        <time>2015-04-26T07:59:10Z</time>
      </trkpt>
      <trkpt lat="45.6539" lon="4.62657">
        <ele>407.2</ele>
        <time>2015-04-26T07:59:15Z</time>
      </trkpt>
      <trkpt lat="45.65413" lon="4.62675">
        <ele>408.4</ele>
        <time>2015-04-26T07:59:20Z</time>
      </trkpt>
      <trkpt lat="45.65438" lon="4.6269">
        <ele>410.9</ele>
        <time>2015-04-26T07:59:25Z</time>
      </trkpt>
      <trkpt lat="45.6546" lon="4.62707">
        <ele>412.3</ele>
        <time>2015-04-26T07:59:30Z</time>
      </trkpt>
      <trkpt lat="45.65478" lon="4.62722">
        <ele>413</ele>
        <time>2015-04-26T07:59:35Z</time>
      </trkpt>
      <trkpt lat="45.65482" lon="4.62713">
        <ele>412.9</ele>
        <time>2015-04-26T07:59:40Z</time>
      </trkpt>
      <trkpt lat="45.65478" lon="4.62703">
        <ele>414.7</ele>
        <time>2015-04-26T07:59:45Z</time>
      </trkpt>
      <trkpt lat="45.65473" lon="4.62693">
        <ele>416.1</ele>
        <time>2015-04-26T07:59:50Z</time>
      </trkpt>
      <trkpt lat="45.65468" lon="4.62685">
        <ele>416.3</ele>
        <time>2015-04-26T07:59:55Z</time>
      </trkpt>
      <trkpt lat="45.65463" lon="4.62675">
        <ele>418.8</ele>
        <time>2015-04-26T08:00:00Z</time>
      </trkpt>
      <trkpt lat="45.65462" lon="4.62662">
        <ele>421</ele>
        <time>2015-04-26T08:00:05Z</time>
      </trkpt>
      <trkpt lat="45.65462" lon="4.62652">
        <ele>422.3</ele>
        <time>2015-04-26T08:00:10Z</time>
      </trkpt>
      <trkpt lat="45.65462" lon="4.6264">
        <ele>423.9</ele>
        <time>2015-04-26T08:00:15Z</time>
      </trkpt>
      <trkpt lat="45.65465" lon="4.6263">
        <ele>424.6</ele>
        <time>2015-04-26T08:00:20Z</time>
      </trkpt>
      <trkpt lat="45.65467" lon="4.6262">
        <ele>426.6</ele>
        <time>2015-04-26T08:00:25Z</time>
      </trkpt>
      <trkpt lat="45.65467" lon="4.62612">
        <ele>428.3</ele>
        <time>2015-04-26T08:00:30Z</time>
      </trkpt>
      <trkpt lat="45.65468" lon="4.62602">
        <ele>429.4</ele>
        <time>2015-04-26T08:00:35Z</time>
      </trkpt>
      <trkpt lat="45.65472" lon="4.62592">
        <ele>431.5</ele>
        <time>2015-04-26T08:00:40Z</time>
      </trkpt>
      <trkpt lat="45.65473" lon="4.6258">
        <ele>432.6</ele>
        <time>2015-04-26T08:00:45Z</time>
      </trkpt>
      <trkpt lat="45.65478" lon="4.62572">
        <ele>434</ele>
        <time>2015-04-26T08:00:50Z</time>
      </trkpt>
      <trkpt lat="45.65483" lon="4.62563">
        <ele>435.3</ele>
        <time>2015-04-26T08:00:55Z</time>
      </trkpt>
      <trkpt lat="45.65488" lon="4.62558">
        <ele>436.5</ele>
        <time>2015-04-26T08:01:00Z</time>
      </trkpt>
      <trkpt lat="45.65495" lon="4.62553">
        <ele>438.4</ele>
        <time>2015-04-26T08:01:05Z</time>
      </trkpt>
      <trkpt lat="45.655" lon="4.62547">
        <ele>440.4</ele>
        <time>2015-04-26T08:01:10Z</time>
      </trkpt>
      <trkpt lat="45.65505" lon="4.62538">
        <ele>441.7</ele>
        <time>2015-04-26T08:01:15Z</time>
      </trkpt>
      <trkpt lat="45.65507" lon="4.62528">
        <ele>443.1</ele>
        <time>2015-04-26T08:01:20Z</time>
      </trkpt>
      <trkpt lat="45.6551" lon="4.6252">
        <ele>445.2</ele>
        <time>2015-04-26T08:01:25Z</time>
      </trkpt>
      <trkpt lat="45.65513" lon="4.62508">
        <ele>445.1</ele>
        <time>2015-04-26T08:01:30Z</time>
      </trkpt>
      <trkpt lat="45.65518" lon="4.62498">
        <ele>445.8</ele>
        <time>2015-04-26T08:01:35Z</time>
      </trkpt>
      <trkpt lat="45.65527" lon="4.62497">
        <ele>446.5</ele>
        <time>2015-04-26T08:01:40Z</time>
      </trkpt>
      <trkpt lat="45.65533" lon="4.62498">
        <ele>448.3</ele>
        <time>2015-04-26T08:01:45Z</time>
      </trkpt>
      <trkpt lat="45.6554" lon="4.62502">
        <ele>449.7</ele>
        <time>2015-04-26T08:01:50Z</time>
      </trkpt>
      <trkpt lat="45.65543" lon="4.62513">
        <ele>450.9</ele>
        <time>2015-04-26T08:01:55Z</time>
      </trkpt>
      <trkpt lat="45.65547" lon="4.62522">
        <ele>452.8</ele>
        <time>2015-04-26T08:02:00Z</time>
      </trkpt>
      <trkpt lat="45.6555" lon="4.62532">
        <ele>454.5</ele>
        <time>2015-04-26T08:02:05Z</time>
      </trkpt>
      <trkpt lat="45.65555" lon="4.62542">
        <ele>455.9</ele>
        <time>2015-04-26T08:02:10Z</time>
      </trkpt>
      <trkpt lat="45.6556" lon="4.62552">
        <ele>457</ele>
        <time>2015-04-26T08:02:15Z</time>
      </trkpt>
      <trkpt lat="45.65565" lon="4.62567">
        <ele>457.4</ele>
        <time>2015-04-26T08:02:20Z</time>
      </trkpt>
      <trkpt lat="45.65572" lon="4.62583">
        <ele>458</ele>
        <time>2015-04-26T08:02:25Z</time>
      </trkpt>
      <trkpt lat="45.65578" lon="4.626">
        <ele>458.4</ele>
        <time>2015-04-26T08:02:30Z</time>
      </trkpt>
      <trkpt lat="45.65587" lon="4.62618">
        <ele>458.7</ele>
        <time>2015-04-26T08:02:35Z</time>
      </trkpt>
      <trkpt lat="45.65595" lon="4.62635">
        <ele>459.7</ele>
        <time>2015-04-26T08:02:40Z</time>
      </trkpt>
      <trkpt lat="45.65605" lon="4.62645">
        <ele>458.6</ele>
        <time>2015-04-26T08:02:45Z</time>
      </trkpt>
      <trkpt lat="45.656" lon="4.6263">
        <ele>460</ele>
        <time>2015-04-26T08:02:50Z</time>
      </trkpt>
      <trkpt lat="45.65603" lon="4.62615">
        <ele>463.1</ele>
        <time>2015-04-26T08:02:55Z</time>
      </trkpt>
      <trkpt lat="45.65607" lon="4.62602">
        <ele>463.8</ele>
        <time>2015-04-26T08:03:00Z</time>
      </trkpt>
      <trkpt lat="45.6561" lon="4.62585">
        <ele>465.8</ele>
        <time>2015-04-26T08:03:05Z</time>
      </trkpt>
      <trkpt lat="45.65613" lon="4.6257">
        <ele>465.7</ele>
        <time>2015-04-26T08:03:10Z</time>
      </trkpt>
      <trkpt lat="45.6562" lon="4.62552">
        <ele>466.8</ele>
        <time>2015-04-26T08:03:15Z</time>
      </trkpt>
      <trkpt lat="45.65628" lon="4.62527">
        <ele>466.8</ele>
        <time>2015-04-26T08:03:20Z</time>
      </trkpt>
      <trkpt lat="45.65638" lon="4.62487">
        <ele>464.2</ele>
        <time>2015-04-26T08:03:25Z</time>
      </trkpt>
      <trkpt lat="45.65653" lon="4.62438">
        <ele>460.6</ele>
        <time>2015-04-26T08:03:30Z</time>
      </trkpt>
      <trkpt lat="45.65677" lon="4.62407">
        <ele>458.9</ele>
        <time>2015-04-26T08:03:35Z</time>
      </trkpt>
      <trkpt lat="45.65692" lon="4.62375">
        <ele>461.3</ele>
        <time>2015-04-26T08:03:40Z</time>
      </trkpt>
      <trkpt lat="45.65695" lon="4.62347">
        <ele>461</ele>
        <time>2015-04-26T08:03:45Z</time>
      </trkpt>
      <trkpt lat="45.65692" lon="4.62323">
        <ele>462.2</ele>
        <time>2015-04-26T08:03:50Z</time>
      </trkpt>
      <trkpt lat="45.6569" lon="4.62307">
        <ele>464.2</ele>
        <time>2015-04-26T08:03:55Z</time>
      </trkpt>
      <trkpt lat="45.65687" lon="4.6229">
        <ele>464.9</ele>
        <time>2015-04-26T08:04:00Z</time>
      </trkpt>
      <trkpt lat="45.65685" lon="4.62277">
        <ele>466.3</ele>
        <time>2015-04-26T08:04:05Z</time>
      </trkpt>
      <trkpt lat="45.65687" lon="4.62263">
        <ele>468</ele>
        <time>2015-04-26T08:04:10Z</time>
      </trkpt>
      <trkpt lat="45.65687" lon="4.6225">
        <ele>469.5</ele>
        <time>2015-04-26T08:04:15Z</time>
      </trkpt>
      <trkpt lat="45.65687" lon="4.62237">
        <ele>470.5</ele>
        <time>2015-04-26T08:04:20Z</time>
      </trkpt>
      <trkpt lat="45.65687" lon="4.62223">
        <ele>472.3</ele>
        <time>2015-04-26T08:04:25Z</time>
      </trkpt>
      <trkpt lat="45.65688" lon="4.62208">
        <ele>473.7</ele>
        <time>2015-04-26T08:04:30Z</time>
      </trkpt>
      <trkpt lat="45.65692" lon="4.62195">
        <ele>474.5</ele>
        <time>2015-04-26T08:04:35Z</time>
      </trkpt>
      <trkpt lat="45.65695" lon="4.6218">
        <ele>474.6</ele>
        <time>2015-04-26T08:04:40Z</time>
      </trkpt>
      <trkpt lat="45.65698" lon="4.62165">
        <ele>477</ele>
        <time>2015-04-26T08:04:45Z</time>
      </trkpt>
      <trkpt lat="45.657" lon="4.6215">
        <ele>478.1</ele>
        <time>2015-04-26T08:04:50Z</time>
      </trkpt>
      <trkpt lat="45.65702" lon="4.62133">
        <ele>479.1</ele>
        <time>2015-04-26T08:04:55Z</time>
      </trkpt>
      <trkpt lat="45.65702" lon="4.62117">
        <ele>480.2</ele>
        <time>2015-04-26T08:05:00Z</time>
      </trkpt>
      <trkpt lat="45.65702" lon="4.621">
        <ele>481.1</ele>
        <time>2015-04-26T08:05:05Z</time>
      </trkpt>
      <trkpt lat="45.65703" lon="4.62078">
        <ele>483.3</ele>
        <time>2015-04-26T08:05:10Z</time>
      </trkpt>
      <trkpt lat="45.65705" lon="4.62053">
        <ele>482.8</ele>
        <time>2015-04-26T08:05:15Z</time>
      </trkpt>
      <trkpt lat="45.65713" lon="4.62023">
        <ele>483.2</ele>
        <time>2015-04-26T08:05:20Z</time>
      </trkpt>
      <trkpt lat="45.65723" lon="4.61997">
        <ele>481.5</ele>
        <time>2015-04-26T08:05:25Z</time>
      </trkpt>
      <trkpt lat="45.65735" lon="4.61973">
        <ele>483.8</ele>
        <time>2015-04-26T08:05:30Z</time>
      </trkpt>
      <trkpt lat="45.65743" lon="4.6195">
        <ele>483.2</ele>
        <time>2015-04-26T08:05:35Z</time>
      </trkpt>
      <trkpt lat="45.65748" lon="4.6193">
        <ele>486.1</ele>
        <time>2015-04-26T08:05:40Z</time>
      </trkpt>
      <trkpt lat="45.65752" lon="4.61913">
        <ele>487.7</ele>
        <time>2015-04-26T08:05:45Z</time>
      </trkpt>
      <trkpt lat="45.6575" lon="4.61895">
        <ele>487</ele>
        <time>2015-04-26T08:05:50Z</time>
      </trkpt>
      <trkpt lat="45.65755" lon="4.6185">
        <ele>484</ele>
        <time>2015-04-26T08:05:55Z</time>
      </trkpt>
      <trkpt lat="45.6577" lon="4.61798">
        <ele>481.9</ele>
        <time>2015-04-26T08:06:00Z</time>
      </trkpt>
      <trkpt lat="45.65778" lon="4.61752">
        <ele>481.9</ele>
        <time>2015-04-26T08:06:05Z</time>
      </trkpt>
      <trkpt lat="45.6576" lon="4.61743">
        <ele>476.2</ele>
        <time>2015-04-26T08:06:10Z</time>
      </trkpt>
      <trkpt lat="45.65747" lon="4.6174">
        <ele>478.1</ele>
        <time>2015-04-26T08:06:15Z</time>
      </trkpt>
      <trkpt lat="45.65737" lon="4.61737">
        <ele>479.2</ele>
        <time>2015-04-26T08:06:20Z</time>
      </trkpt>
      <trkpt lat="45.65727" lon="4.61737">
        <ele>481.2</ele>
        <time>2015-04-26T08:06:25Z</time>
      </trkpt>
      <trkpt lat="45.65717" lon="4.61735">
        <ele>483.4</ele>
        <time>2015-04-26T08:06:30Z</time>
      </trkpt>
      <trkpt lat="45.65708" lon="4.6173">
        <ele>484.8</ele>
        <time>2015-04-26T08:06:35Z</time>
      </trkpt>
      <trkpt lat="45.65703" lon="4.61718">
        <ele>486.4</ele>
        <time>2015-04-26T08:06:40Z</time>
      </trkpt>
      <trkpt lat="45.65702" lon="4.61705">
        <ele>487.8</ele>
        <time>2015-04-26T08:06:45Z</time>
      </trkpt>
      <trkpt lat="45.65705" lon="4.61692">
        <ele>488.9</ele>
        <time>2015-04-26T08:06:50Z</time>
      </trkpt>
      <trkpt lat="45.65708" lon="4.61678">
        <ele>490.1</ele>
        <time>2015-04-26T08:06:55Z</time>
      </trkpt>
      <trkpt lat="45.65713" lon="4.61663">
        <ele>491.9</ele>
        <time>2015-04-26T08:07:00Z</time>
      </trkpt>
      <trkpt lat="45.65718" lon="4.6165">
        <ele>492.9</ele>
        <time>2015-04-26T08:07:05Z</time>
      </trkpt>
      <trkpt lat="45.65722" lon="4.61635">
        <ele>493.7</ele>
        <time>2015-04-26T08:07:10Z</time>
      </trkpt>
      <trkpt lat="45.65725" lon="4.61618">
        <ele>495.1</ele>
        <time>2015-04-26T08:07:15Z</time>
      </trkpt>
      <trkpt lat="45.65725" lon="4.61602">
        <ele>496.1</ele>
        <time>2015-04-26T08:07:20Z</time>
      </trkpt>
      <trkpt lat="45.65723" lon="4.61583">
        <ele>496.9</ele>
        <time>2015-04-26T08:07:25Z</time>
      </trkpt>
      <trkpt lat="45.6572" lon="4.61563">
        <ele>497.6</ele>
        <time>2015-04-26T08:07:30Z</time>
      </trkpt>
      <trkpt lat="45.65717" lon="4.61542">
        <ele>498.5</ele>
        <time>2015-04-26T08:07:35Z</time>
      </trkpt>
      <trkpt lat="45.6571" lon="4.61523">
        <ele>499.4</ele>
        <time>2015-04-26T08:07:40Z</time>
      </trkpt>
      <trkpt lat="45.65702" lon="4.61508">
        <ele>500.2</ele>
        <time>2015-04-26T08:07:45Z</time>
      </trkpt>
      <trkpt lat="45.65695" lon="4.61488">
        <ele>500.2</ele>
        <time>2015-04-26T08:07:50Z</time>
      </trkpt>
      <trkpt lat="45.6569" lon="4.61475">
        <ele>501.4</ele>
        <time>2015-04-26T08:07:55Z</time>
      </trkpt>
      <trkpt lat="45.65687" lon="4.61465">
        <ele>502.8</ele>
        <time>2015-04-26T08:08:00Z</time>
      </trkpt>
      <trkpt lat="45.65682" lon="4.61453">
        <ele>504.1</ele>
        <time>2015-04-26T08:08:05Z</time>
      </trkpt>
      <trkpt lat="45.65677" lon="4.61443">
        <ele>504.5</ele>
        <time>2015-04-26T08:08:10Z</time>
      </trkpt>
      <trkpt lat="45.65672" lon="4.61432">
        <ele>506.1</ele>
        <time>2015-04-26T08:08:15Z</time>
      </trkpt>
      <trkpt lat="45.65667" lon="4.6142">
        <ele>506.8</ele>
        <time>2015-04-26T08:08:20Z</time>
      </trkpt>
      <trkpt lat="45.65662" lon="4.61407">
        <ele>507.9</ele>
        <time>2015-04-26T08:08:25Z</time>
      </trkpt>
      <trkpt lat="45.65658" lon="4.61395">
        <ele>509.3</ele>
        <time>2015-04-26T08:08:30Z</time>
      </trkpt>
      <trkpt lat="45.65653" lon="4.61383">
        <ele>511</ele>
        <time>2015-04-26T08:08:35Z</time>
      </trkpt>
      <trkpt lat="45.65648" lon="4.61372">
        <ele>511.3</ele>
        <time>2015-04-26T08:08:40Z</time>
      </trkpt>
      <trkpt lat="45.65643" lon="4.6136">
        <ele>512.2</ele>
        <time>2015-04-26T08:08:45Z</time>
      </trkpt>
      <trkpt lat="45.65638" lon="4.61348">
        <ele>514.1</ele>
        <time>2015-04-26T08:08:50Z</time>
      </trkpt>
      <trkpt lat="45.65632" lon="4.61335">
        <ele>515</ele>
        <time>2015-04-26T08:08:55Z</time>
      </trkpt>
      <trkpt lat="45.65628" lon="4.61323">
        <ele>515.6</ele>
        <time>2015-04-26T08:09:00Z</time>
      </trkpt>
      <trkpt lat="45.65622" lon="4.61312">
        <ele>516.6</ele>
        <time>2015-04-26T08:09:05Z</time>
      </trkpt>
      <trkpt lat="45.65617" lon="4.61302">
        <ele>517.4</ele>
        <time>2015-04-26T08:09:10Z</time>
      </trkpt>
      <trkpt lat="45.65612" lon="4.6129">
        <ele>518.7</ele>
        <time>2015-04-26T08:09:15Z</time>
      </trkpt>
      <trkpt lat="45.65605" lon="4.61277">
        <ele>520</ele>
        <time>2015-04-26T08:09:20Z</time>
      </trkpt>
      <trkpt lat="45.65603" lon="4.61263">
        <ele>520.6</ele>
        <time>2015-04-26T08:09:25Z</time>
      </trkpt>
      <trkpt lat="45.65603" lon="4.61248">
        <ele>521.2</ele>
        <time>2015-04-26T08:09:30Z</time>
      </trkpt>
      <trkpt lat="45.65605" lon="4.61235">
        <ele>522</ele>
        <time>2015-04-26T08:09:35Z</time>
      </trkpt>
      <trkpt lat="45.65608" lon="4.61222">
        <ele>523.6</ele>
        <time>2015-04-26T08:09:40Z</time>
      </trkpt>
      <trkpt lat="45.6561" lon="4.61208">
        <ele>525</ele>
        <time>2015-04-26T08:09:45Z</time>
      </trkpt>
      <trkpt lat="45.65613" lon="4.61193">
        <ele>525.9</ele>
        <time>2015-04-26T08:09:50Z</time>
      </trkpt>
      <trkpt lat="45.65617" lon="4.61178">
        <ele>526.4</ele>
        <time>2015-04-26T08:09:55Z</time>
      </trkpt>
      <trkpt lat="45.65622" lon="4.61163">
        <ele>528.1</ele>
        <time>2015-04-26T08:10:00Z</time>
      </trkpt>
      <trkpt lat="45.65628" lon="4.6115">
        <ele>528.3</ele>
        <time>2015-04-26T08:10:05Z</time>
      </trkpt>
      <trkpt lat="45.65635" lon="4.61137">
        <ele>529.2</ele>
        <time>2015-04-26T08:10:10Z</time>
      </trkpt>
      <trkpt lat="45.65645" lon="4.61123">
        <ele>530.1</ele>
        <time>2015-04-26T08:10:15Z</time>
      </trkpt>
      <trkpt lat="45.65648" lon="4.61107">
        <ele>530.3</ele>
        <time>2015-04-26T08:10:20Z</time>
      </trkpt>
      <trkpt lat="45.65653" lon="4.61088">
        <ele>530.8</ele>
        <time>2015-04-26T08:10:25Z</time>
      </trkpt>
      <trkpt lat="45.6565" lon="4.61073">
        <ele>532.3</ele>
        <time>2015-04-26T08:10:30Z</time>
      </trkpt>
      <trkpt lat="45.65645" lon="4.61062">
        <ele>533.9</ele>
        <time>2015-04-26T08:10:35Z</time>
      </trkpt>
      <trkpt lat="45.65642" lon="4.6105">
        <ele>535.5</ele>
        <time>2015-04-26T08:10:40Z</time>
      </trkpt>
      <trkpt lat="45.65638" lon="4.6104">
        <ele>535.4</ele>
        <time>2015-04-26T08:10:45Z</time>
      </trkpt>
      <trkpt lat="45.65632" lon="4.6103">
        <ele>536.6</ele>
        <time>2015-04-26T08:10:50Z</time>
      </trkpt>
      <trkpt lat="45.65618" lon="4.6102">
        <ele>535.8</ele>
        <time>2015-04-26T08:10:55Z</time>
      </trkpt>
      <trkpt lat="45.65603" lon="4.61012">
        <ele>535.2</ele>
        <time>2015-04-26T08:11:00Z</time>
      </trkpt>
      <trkpt lat="45.65587" lon="4.61008">
        <ele>535</ele>
        <time>2015-04-26T08:11:05Z</time>
      </trkpt>
      <trkpt lat="45.6557" lon="4.61008">
        <ele>534.9</ele>
        <time>2015-04-26T08:11:10Z</time>
      </trkpt>
      <trkpt lat="45.6555" lon="4.6101">
        <ele>534.2</ele>
        <time>2015-04-26T08:11:15Z</time>
      </trkpt>
      <trkpt lat="45.6553" lon="4.60993">
        <ele>533.5</ele>
        <time>2015-04-26T08:11:20Z</time>
      </trkpt>
      <trkpt lat="45.65517" lon="4.60955">
        <ele>532.8</ele>
        <time>2015-04-26T08:11:25Z</time>
      </trkpt>
      <trkpt lat="45.65502" lon="4.60915">
        <ele>530.8</ele>
        <time>2015-04-26T08:11:30Z</time>
      </trkpt>
      <trkpt lat="45.65488" lon="4.60872">
        <ele>529.7</ele>
        <time>2015-04-26T08:11:35Z</time>
      </trkpt>
      <trkpt lat="45.65478" lon="4.60828">
        <ele>529.1</ele>
        <time>2015-04-26T08:11:40Z</time>
      </trkpt>
      <trkpt lat="45.65483" lon="4.6079">
        <ele>528.8</ele>
        <time>2015-04-26T08:11:45Z</time>
      </trkpt>
      <trkpt lat="45.65495" lon="4.60767">
        <ele>529.1</ele>
        <time>2015-04-26T08:11:50Z</time>
      </trkpt>
      <trkpt lat="45.65507" lon="4.60747">
        <ele>530.2</ele>
        <time>2015-04-26T08:11:55Z</time>
      </trkpt>
      <trkpt lat="45.65515" lon="4.60727">
        <ele>530.3</ele>
        <time>2015-04-26T08:12:00Z</time>
      </trkpt>
      <trkpt lat="45.65523" lon="4.60708">
        <ele>531.8</ele>
        <time>2015-04-26T08:12:05Z</time>
      </trkpt>
      <trkpt lat="45.6553" lon="4.60697">
        <ele>532.4</ele>
        <time>2015-04-26T08:12:10Z</time>
      </trkpt>
      <trkpt lat="45.65535" lon="4.60687">
        <ele>534.2</ele>
        <time>2015-04-26T08:12:15Z</time>
      </trkpt>
      <trkpt lat="45.65542" lon="4.60677">
        <ele>533.9</ele>
        <time>2015-04-26T08:12:20Z</time>
      </trkpt>
      <trkpt lat="45.65548" lon="4.60667">
        <ele>535.5</ele>
        <time>2015-04-26T08:12:25Z</time>
      </trkpt>
      <trkpt lat="45.65555" lon="4.60657">
        <ele>536.4</ele>
        <time>2015-04-26T08:12:30Z</time>
      </trkpt>
      <trkpt lat="45.65562" lon="4.60648">
        <ele>537.8</ele>
        <time>2015-04-26T08:12:35Z</time>
      </trkpt>
      <trkpt lat="45.6557" lon="4.60642">
        <ele>539.7</ele>
        <time>2015-04-26T08:12:40Z</time>
      </trkpt>
      <trkpt lat="45.6558" lon="4.60637">
        <ele>541.3</ele>
        <time>2015-04-26T08:12:45Z</time>
      </trkpt>
      <trkpt lat="45.65588" lon="4.60632">
        <ele>541.8</ele>
        <time>2015-04-26T08:12:50Z</time>
      </trkpt>
      <trkpt lat="45.65595" lon="4.60625">
        <ele>542.1</ele>
        <time>2015-04-26T08:12:55Z</time>
      </trkpt>
      <trkpt lat="45.656" lon="4.60613">
        <ele>543.3</ele>
        <time>2015-04-26T08:13:00Z</time>
      </trkpt>
      <trkpt lat="45.65605" lon="4.60598">
        <ele>543.5</ele>
        <time>2015-04-26T08:13:05Z</time>
      </trkpt>
      <trkpt lat="45.65608" lon="4.60583">
        <ele>544.6</ele>
        <time>2015-04-26T08:13:10Z</time>
      </trkpt>
      <trkpt lat="45.65613" lon="4.6057">
        <ele>545.4</ele>
        <time>2015-04-26T08:13:15Z</time>
      </trkpt>
      <trkpt lat="45.65618" lon="4.60557">
        <ele>545.9</ele>
        <time>2015-04-26T08:13:20Z</time>
      </trkpt>
      <trkpt lat="45.65623" lon="4.60545">
        <ele>546.7</ele>
        <time>2015-04-26T08:13:25Z</time>
      </trkpt>
      <trkpt lat="45.65627" lon="4.60533">
        <ele>547.7</ele>
        <time>2015-04-26T08:13:30Z</time>
      </trkpt>
      <trkpt lat="45.6563" lon="4.60522">
        <ele>549.3</ele>
        <time>2015-04-26T08:13:35Z</time>
      </trkpt>
      <trkpt lat="45.65632" lon="4.6051">
        <ele>551</ele>
        <time>2015-04-26T08:13:40Z</time>
      </trkpt>
      <trkpt lat="45.65635" lon="4.60497">
        <ele>552</ele>
        <time>2015-04-26T08:13:45Z</time>
      </trkpt>
      <trkpt lat="45.65638" lon="4.60485">
        <ele>552.1</ele>
        <time>2015-04-26T08:13:50Z</time>
      </trkpt>
      <trkpt lat="45.65642" lon="4.60473">
        <ele>553.6</ele>
        <time>2015-04-26T08:13:55Z</time>
      </trkpt>
      <trkpt lat="45.65647" lon="4.6046">
        <ele>555.6</ele>
        <time>2015-04-26T08:14:00Z</time>
      </trkpt>
      <trkpt lat="45.65652" lon="4.60448">
        <ele>557.5</ele>
        <time>2015-04-26T08:14:05Z</time>
      </trkpt>
      <trkpt lat="45.65657" lon="4.60438">
        <ele>557.8</ele>
        <time>2015-04-26T08:14:10Z</time>
      </trkpt>
      <trkpt lat="45.6566" lon="4.60427">
        <ele>559.7</ele>
        <time>2015-04-26T08:14:15Z</time>
      </trkpt>
      <trkpt lat="45.65662" lon="4.60415">
        <ele>559.2</ele>
        <time>2015-04-26T08:14:20Z</time>
      </trkpt>
      <trkpt lat="45.65667" lon="4.60402">
        <ele>561.8</ele>
        <time>2015-04-26T08:14:25Z</time>
      </trkpt>
      <trkpt lat="45.6567" lon="4.60392">
        <ele>562</ele>
        <time>2015-04-26T08:14:30Z</time>
      </trkpt>
      <trkpt lat="45.65675" lon="4.60382">
        <ele>563.7</ele>
        <time>2015-04-26T08:14:35Z</time>
      </trkpt>
      <trkpt lat="45.6568" lon="4.6037">
        <ele>565.2</ele>
        <time>2015-04-26T08:14:40Z</time>
      </trkpt>
      <trkpt lat="45.65685" lon="4.60358">
        <ele>566.1</ele>
        <time>2015-04-26T08:14:45Z</time>
      </trkpt>
      <trkpt lat="45.6569" lon="4.60348">
        <ele>566.8</ele>
        <time>2015-04-26T08:14:50Z</time>
      </trkpt>
      <trkpt lat="45.65695" lon="4.60338">
        <ele>568</ele>
        <time>2015-04-26T08:14:55Z</time>
      </trkpt>
      <trkpt lat="45.65698" lon="4.60328">
        <ele>569.5</ele>
        <time>2015-04-26T08:15:00Z</time>
      </trkpt>
      <trkpt lat="45.65705" lon="4.60318">
        <ele>571.1</ele>
        <time>2015-04-26T08:15:05Z</time>
      </trkpt>
      <trkpt lat="45.65708" lon="4.6031">
        <ele>571.9</ele>
        <time>2015-04-26T08:15:10Z</time>
      </trkpt>
      <trkpt lat="45.65715" lon="4.60302">
        <ele>573.4</ele>
        <time>2015-04-26T08:15:15Z</time>
      </trkpt>
      <trkpt lat="45.65722" lon="4.60297">
        <ele>574.5</ele>
        <time>2015-04-26T08:15:20Z</time>
      </trkpt>
      <trkpt lat="45.6573" lon="4.6029">
        <ele>576.1</ele>
        <time>2015-04-26T08:15:25Z</time>
      </trkpt>
      <trkpt lat="45.65735" lon="4.60285">
        <ele>577.1</ele>
        <time>2015-04-26T08:15:30Z</time>
      </trkpt>
      <trkpt lat="45.65742" lon="4.6028">
        <ele>578.4</ele>
        <time>2015-04-26T08:15:35Z</time>
      </trkpt>
      <trkpt lat="45.65748" lon="4.60275">
        <ele>580.3</ele>
        <time>2015-04-26T08:15:40Z</time>
      </trkpt>
      <trkpt lat="45.65755" lon="4.60268">
        <ele>581.7</ele>
        <time>2015-04-26T08:15:45Z</time>
      </trkpt>
      <trkpt lat="45.65762" lon="4.60265">
        <ele>583.6</ele>
        <time>2015-04-26T08:15:50Z</time>
      </trkpt>
      <trkpt lat="45.65768" lon="4.60263">
        <ele>584.2</ele>
        <time>2015-04-26T08:15:55Z</time>
      </trkpt>
      <trkpt lat="45.65775" lon="4.60263">
        <ele>585.4</ele>
        <time>2015-04-26T08:16:00Z</time>
      </trkpt>
      <trkpt lat="45.65782" lon="4.60263">
        <ele>587.1</ele>
        <time>2015-04-26T08:16:05Z</time>
      </trkpt>
      <trkpt lat="45.65792" lon="4.60263">
        <ele>587.8</ele>
        <time>2015-04-26T08:16:10Z</time>
      </trkpt>
      <trkpt lat="45.65798" lon="4.60258">
        <ele>588.8</ele>
        <time>2015-04-26T08:16:15Z</time>
      </trkpt>
      <trkpt lat="45.65808" lon="4.60252">
        <ele>589.3</ele>
        <time>2015-04-26T08:16:20Z</time>
      </trkpt>
      <trkpt lat="45.65818" lon="4.60243">
        <ele>590.1</ele>
        <time>2015-04-26T08:16:25Z</time>
      </trkpt>
      <trkpt lat="45.65828" lon="4.60235">
        <ele>590.5</ele>
        <time>2015-04-26T08:16:30Z</time>
      </trkpt>
      <trkpt lat="45.6583" lon="4.60215">
        <ele>591.5</ele>
        <time>2015-04-26T08:16:35Z</time>
      </trkpt>
      <trkpt lat="45.65827" lon="4.60192">
        <ele>589.8</ele>
        <time>2015-04-26T08:16:40Z</time>
      </trkpt>
      <trkpt lat="45.65823" lon="4.6017">
        <ele>590.9</ele>
        <time>2015-04-26T08:16:45Z</time>
      </trkpt>
      <trkpt lat="45.65818" lon="4.60145">
        <ele>590.7</ele>
        <time>2015-04-26T08:16:50Z</time>
      </trkpt>
      <trkpt lat="45.65812" lon="4.60118">
        <ele>593.7</ele>
        <time>2015-04-26T08:16:55Z</time>
      </trkpt>
      <trkpt lat="45.65797" lon="4.60082">
        <ele>590.6</ele>
        <time>2015-04-26T08:17:00Z</time>
      </trkpt>
      <trkpt lat="45.65787" lon="4.60045">
        <ele>590.7</ele>
        <time>2015-04-26T08:17:05Z</time>
      </trkpt>
      <trkpt lat="45.65777" lon="4.6001">
        <ele>589.7</ele>
        <time>2015-04-26T08:17:10Z</time>
      </trkpt>
      <trkpt lat="45.65765" lon="4.59983">
        <ele>591.5</ele>
        <time>2015-04-26T08:17:15Z</time>
      </trkpt>
      <trkpt lat="45.65757" lon="4.59958">
        <ele>591.3</ele>
        <time>2015-04-26T08:17:20Z</time>
      </trkpt>
      <trkpt lat="45.65753" lon="4.59935">
        <ele>590.5</ele>
        <time>2015-04-26T08:17:25Z</time>
      </trkpt>
      <trkpt lat="45.65755" lon="4.5992">
        <ele>594.4</ele>
        <time>2015-04-26T08:17:30Z</time>
      </trkpt>
      <trkpt lat="45.65758" lon="4.59907">
        <ele>594.4</ele>
        <time>2015-04-26T08:17:35Z</time>
      </trkpt>
      <trkpt lat="45.65758" lon="4.59893">
        <ele>598.5</ele>
        <time>2015-04-26T08:17:40Z</time>
      </trkpt>
      <trkpt lat="45.65755" lon="4.59878">
        <ele>598.3</ele>
        <time>2015-04-26T08:17:45Z</time>
      </trkpt>
      <trkpt lat="45.65752" lon="4.5986">
        <ele>600</ele>
        <time>2015-04-26T08:17:50Z</time>
      </trkpt>
      <trkpt lat="45.65747" lon="4.59842">
        <ele>600.3</ele>
        <time>2015-04-26T08:17:55Z</time>
      </trkpt>
      <trkpt lat="45.6574" lon="4.59823">
        <ele>600.9</ele>
        <time>2015-04-26T08:18:00Z</time>
      </trkpt>
      <trkpt lat="45.65733" lon="4.59803">
        <ele>601.8</ele>
        <time>2015-04-26T08:18:05Z</time>
      </trkpt>
      <trkpt lat="45.65727" lon="4.59785">
        <ele>602.7</ele>
        <time>2015-04-26T08:18:10Z</time>
      </trkpt>
      <trkpt lat="45.65723" lon="4.59765">
        <ele>603.6</ele>
        <time>2015-04-26T08:18:15Z</time>
      </trkpt>
      <trkpt lat="45.6572" lon="4.59752">
        <ele>605.2</ele>
        <time>2015-04-26T08:18:20Z</time>
      </trkpt>
      <trkpt lat="45.65718" lon="4.59738">
        <ele>605.9</ele>
        <time>2015-04-26T08:18:25Z</time>
      </trkpt>
      <trkpt lat="45.65717" lon="4.59725">
        <ele>607.1</ele>
        <time>2015-04-26T08:18:30Z</time>
      </trkpt>
      <trkpt lat="45.65715" lon="4.5971">
        <ele>609.2</ele>
        <time>2015-04-26T08:18:35Z</time>
      </trkpt>
      <trkpt lat="45.65712" lon="4.59697">
        <ele>609.6</ele>
        <time>2015-04-26T08:18:40Z</time>
      </trkpt>
      <trkpt lat="45.65708" lon="4.59683">
        <ele>610.4</ele>
        <time>2015-04-26T08:18:45Z</time>
      </trkpt>
      <trkpt lat="45.65705" lon="4.5967">
        <ele>612.2</ele>
        <time>2015-04-26T08:18:50Z</time>
      </trkpt>
      <trkpt lat="45.65703" lon="4.59657">
        <ele>614.9</ele>
        <time>2015-04-26T08:18:55Z</time>
      </trkpt>
      <trkpt lat="45.65698" lon="4.59645">
        <ele>615.9</ele>
        <time>2015-04-26T08:19:00Z</time>
      </trkpt>
      <trkpt lat="45.65697" lon="4.59635">
        <ele>615.8</ele>
        <time>2015-04-26T08:19:05Z</time>
      </trkpt>
      <trkpt lat="45.65693" lon="4.59625">
        <ele>616.2</ele>
        <time>2015-04-26T08:19:10Z</time>
      </trkpt>
      <trkpt lat="45.65687" lon="4.59618">
        <ele>617.9</ele>
        <time>2015-04-26T08:19:15Z</time>
      </trkpt>
      <trkpt lat="45.65678" lon="4.59617">
        <ele>619</ele>
        <time>2015-04-26T08:19:20Z</time>
      </trkpt>
      <trkpt lat="45.65677" lon="4.59618">
        <ele>620.1</ele>
        <time>2015-04-26T08:19:25Z</time>
      </trkpt>
      <trkpt lat="45.65677" lon="4.5962">
        <ele>619.2</ele>
        <time>2015-04-26T08:28:05Z</time>
      </trkpt>
      <trkpt lat="45.65675" lon="4.5962">
        <ele>619.3</ele>
        <time>2015-04-26T08:28:10Z</time>
      </trkpt>
      <trkpt lat="45.65672" lon="4.5962">
        <ele>619.6</ele>
        <time>2015-04-26T08:28:15Z</time>
      </trkpt>
      <trkpt lat="45.65663" lon="4.59623">
        <ele>621</ele>
        <time>2015-04-26T08:28:20Z</time>
      </trkpt>
      <trkpt lat="45.65653" lon="4.59628">
        <ele>623.9</ele>
        <time>2015-04-26T08:28:25Z</time>
      </trkpt>
      <trkpt lat="45.65645" lon="4.59635">
        <ele>624.5</ele>
        <time>2015-04-26T08:28:30Z</time>
      </trkpt>
      <trkpt lat="45.65637" lon="4.5964">
        <ele>629.2</ele>
        <time>2015-04-26T08:28:35Z</time>
      </trkpt>
      <trkpt lat="45.65628" lon="4.59643">
        <ele>630</ele>
        <time>2015-04-26T08:28:40Z</time>
      </trkpt>
      <trkpt lat="45.6562" lon="4.59645">
        <ele>629.3</ele>
        <time>2015-04-26T08:28:45Z</time>
      </trkpt>
      <trkpt lat="45.65612" lon="4.59637">
        <ele>630.9</ele>
        <time>2015-04-26T08:28:50Z</time>
      </trkpt>
      <trkpt lat="45.65605" lon="4.59627">
        <ele>632.6</ele>
        <time>2015-04-26T08:28:55Z</time>
      </trkpt>
      <trkpt lat="45.656" lon="4.59617">
        <ele>633.9</ele>
        <time>2015-04-26T08:29:00Z</time>
      </trkpt>
      <trkpt lat="45.65595" lon="4.59607">
        <ele>636</ele>
        <time>2015-04-26T08:29:05Z</time>
      </trkpt>
      <trkpt lat="45.65588" lon="4.59595">
        <ele>636</ele>
        <time>2015-04-26T08:29:10Z</time>
      </trkpt>
      <trkpt lat="45.65582" lon="4.59588">
        <ele>637.9</ele>
        <time>2015-04-26T08:29:15Z</time>
      </trkpt>
      <trkpt lat="45.65575" lon="4.59583">
        <ele>638.2</ele>
        <time>2015-04-26T08:29:20Z</time>
      </trkpt>
      <trkpt lat="45.65567" lon="4.5958">
        <ele>639.5</ele>
        <time>2015-04-26T08:29:25Z</time>
      </trkpt>
      <trkpt lat="45.6556" lon="4.59575">
        <ele>640.5</ele>
        <time>2015-04-26T08:29:30Z</time>
      </trkpt>
      <trkpt lat="45.65553" lon="4.59573">
        <ele>641.6</ele>
        <time>2015-04-26T08:29:35Z</time>
      </trkpt>
      <trkpt lat="45.65545" lon="4.5957">
        <ele>642.9</ele>
        <time>2015-04-26T08:29:40Z</time>
      </trkpt>
      <trkpt lat="45.65538" lon="4.59565">
        <ele>644.5</ele>
        <time>2015-04-26T08:29:45Z</time>
      </trkpt>
      <trkpt lat="45.65532" lon="4.59558">
        <ele>645.3</ele>
        <time>2015-04-26T08:29:50Z</time>
      </trkpt>
      <trkpt lat="45.65525" lon="4.59552">
        <ele>646.7</ele>
        <time>2015-04-26T08:29:55Z</time>
      </trkpt>
      <trkpt lat="45.6552" lon="4.59547">
        <ele>647.7</ele>
        <time>2015-04-26T08:30:00Z</time>
      </trkpt>
      <trkpt lat="45.65515" lon="4.59538">
        <ele>649.2</ele>
        <time>2015-04-26T08:30:05Z</time>
      </trkpt>
      <trkpt lat="45.6551" lon="4.5953">
        <ele>647.7</ele>
        <time>2015-04-26T08:30:10Z</time>
      </trkpt>
      <trkpt lat="45.65505" lon="4.59523">
        <ele>651.2</ele>
        <time>2015-04-26T08:30:15Z</time>
      </trkpt>
      <trkpt lat="45.655" lon="4.59515">
        <ele>652.5</ele>
        <time>2015-04-26T08:30:20Z</time>
      </trkpt>
      <trkpt lat="45.65493" lon="4.59508">
        <ele>653.6</ele>
        <time>2015-04-26T08:30:25Z</time>
      </trkpt>
      <trkpt lat="45.65487" lon="4.595">
        <ele>654.3</ele>
        <time>2015-04-26T08:30:30Z</time>
      </trkpt>
      <trkpt lat="45.65482" lon="4.59487">
        <ele>654.9</ele>
        <time>2015-04-26T08:30:35Z</time>
      </trkpt>
      <trkpt lat="45.6548" lon="4.59475">
        <ele>655.3</ele>
        <time>2015-04-26T08:30:40Z</time>
      </trkpt>
      <trkpt lat="45.65477" lon="4.59463">
        <ele>655.8</ele>
        <time>2015-04-26T08:30:45Z</time>
      </trkpt>
      <trkpt lat="45.65472" lon="4.5945">
        <ele>656.7</ele>
        <time>2015-04-26T08:30:50Z</time>
      </trkpt>
      <trkpt lat="45.65465" lon="4.5944">
        <ele>658</ele>
        <time>2015-04-26T08:30:55Z</time>
      </trkpt>
      <trkpt lat="45.65458" lon="4.59428">
        <ele>658.6</ele>
        <time>2015-04-26T08:31:00Z</time>
      </trkpt>
      <trkpt lat="45.65453" lon="4.59418">
        <ele>659.1</ele>
        <time>2015-04-26T08:31:05Z</time>
      </trkpt>
      <trkpt lat="45.65445" lon="4.59407">
        <ele>660.7</ele>
        <time>2015-04-26T08:31:10Z</time>
      </trkpt>
      <trkpt lat="45.65437" lon="4.59393">
        <ele>661.1</ele>
        <time>2015-04-26T08:31:15Z</time>
      </trkpt>
      <trkpt lat="45.6543" lon="4.5938">
        <ele>662.5</ele>
        <time>2015-04-26T08:31:20Z</time>
      </trkpt>
      <trkpt lat="45.65423" lon="4.59367">
        <ele>663.3</ele>
        <time>2015-04-26T08:31:25Z</time>
      </trkpt>
      <trkpt lat="45.65415" lon="4.59355">
        <ele>664.3</ele>
        <time>2015-04-26T08:31:30Z</time>
      </trkpt>
      <trkpt lat="45.65407" lon="4.59342">
        <ele>664.3</ele>
        <time>2015-04-26T08:31:35Z</time>
      </trkpt>
      <trkpt lat="45.65397" lon="4.59332">
        <ele>666.3</ele>
        <time>2015-04-26T08:31:40Z</time>
      </trkpt>
      <trkpt lat="45.65385" lon="4.5932">
        <ele>667.9</ele>
        <time>2015-04-26T08:31:45Z</time>
      </trkpt>
      <trkpt lat="45.65375" lon="4.59308">
        <ele>669.3</ele>
        <time>2015-04-26T08:31:50Z</time>
      </trkpt>
      <trkpt lat="45.65363" lon="4.59298">
        <ele>668.3</ele>
        <time>2015-04-26T08:31:55Z</time>
      </trkpt>
      <trkpt lat="45.65352" lon="4.59285">
        <ele>670.1</ele>
        <time>2015-04-26T08:32:00Z</time>
      </trkpt>
      <trkpt lat="45.6534" lon="4.59273">
        <ele>670.9</ele>
        <time>2015-04-26T08:32:05Z</time>
      </trkpt>
      <trkpt lat="45.65328" lon="4.59265">
        <ele>672.4</ele>
        <time>2015-04-26T08:32:10Z</time>
      </trkpt>
      <trkpt lat="45.65317" lon="4.59262">
        <ele>673.1</ele>
        <time>2015-04-26T08:32:15Z</time>
      </trkpt>
      <trkpt lat="45.65303" lon="4.5926">
        <ele>674.7</ele>
        <time>2015-04-26T08:32:20Z</time>
      </trkpt>
      <trkpt lat="45.65292" lon="4.59257">
        <ele>674.6</ele>
        <time>2015-04-26T08:32:25Z</time>
      </trkpt>
      <trkpt lat="45.6528" lon="4.59255">
        <ele>675.5</ele>
        <time>2015-04-26T08:32:30Z</time>
      </trkpt>
      <trkpt lat="45.6527" lon="4.59257">
        <ele>678.4</ele>
        <time>2015-04-26T08:32:35Z</time>
      </trkpt>
      <trkpt lat="45.65257" lon="4.59257">
        <ele>678.6</ele>
        <time>2015-04-26T08:32:40Z</time>
      </trkpt>
      <trkpt lat="45.65245" lon="4.59257">
        <ele>679.2</ele>
        <time>2015-04-26T08:32:45Z</time>
      </trkpt>
      <trkpt lat="45.65233" lon="4.59258">
        <ele>679.7</ele>
        <time>2015-04-26T08:32:50Z</time>
      </trkpt>
      <trkpt lat="45.6522" lon="4.59258">
        <ele>680.2</ele>
        <time>2015-04-26T08:32:55Z</time>
      </trkpt>
      <trkpt lat="45.6521" lon="4.5925">
        <ele>681.6</ele>
        <time>2015-04-26T08:33:00Z</time>
      </trkpt>
      <trkpt lat="45.65203" lon="4.59235">
        <ele>682.4</ele>
        <time>2015-04-26T08:33:05Z</time>
      </trkpt>
      <trkpt lat="45.65195" lon="4.59222">
        <ele>683.3</ele>
        <time>2015-04-26T08:33:10Z</time>
      </trkpt>
      <trkpt lat="45.6518" lon="4.59222">
        <ele>683.4</ele>
        <time>2015-04-26T08:33:15Z</time>
      </trkpt>
      <trkpt lat="45.65167" lon="4.59222">
        <ele>684.2</ele>
        <time>2015-04-26T08:33:20Z</time>
      </trkpt>
      <trkpt lat="45.65148" lon="4.59223">
        <ele>684.8</ele>
        <time>2015-04-26T08:33:25Z</time>
      </trkpt>
      <trkpt lat="45.65125" lon="4.59225">
        <ele>684</ele>
        <time>2015-04-26T08:33:30Z</time>
      </trkpt>
      <trkpt lat="45.65102" lon="4.5923">
        <ele>683.7</ele>
        <time>2015-04-26T08:33:35Z</time>
      </trkpt>
      <trkpt lat="45.65085" lon="4.59242">
        <ele>684.5</ele>
        <time>2015-04-26T08:33:40Z</time>
      </trkpt>
      <trkpt lat="45.65073" lon="4.59248">
        <ele>686.2</ele>
        <time>2015-04-26T08:33:45Z</time>
      </trkpt>
      <trkpt lat="45.65063" lon="4.59252">
        <ele>689.1</ele>
        <time>2015-04-26T08:33:50Z</time>
      </trkpt>
      <trkpt lat="45.65052" lon="4.5925">
        <ele>689.2</ele>
        <time>2015-04-26T08:33:55Z</time>
      </trkpt>
      <trkpt lat="45.6504" lon="4.59247">
        <ele>691.4</ele>
        <time>2015-04-26T08:34:00Z</time>
      </trkpt>
      <trkpt lat="45.65025" lon="4.59238">
        <ele>691.5</ele>
        <time>2015-04-26T08:34:05Z</time>
      </trkpt>
      <trkpt lat="45.65007" lon="4.59222">
        <ele>690.5</ele>
        <time>2015-04-26T08:34:10Z</time>
      </trkpt>
      <trkpt lat="45.64987" lon="4.59197">
        <ele>687.7</ele>
        <time>2015-04-26T08:34:15Z</time>
      </trkpt>
      <trkpt lat="45.64968" lon="4.5917">
        <ele>686.6</ele>
        <time>2015-04-26T08:34:20Z</time>
      </trkpt>
      <trkpt lat="45.64952" lon="4.59137">
        <ele>685.3</ele>
        <time>2015-04-26T08:34:25Z</time>
      </trkpt>
      <trkpt lat="45.6493" lon="4.59112">
        <ele>686.4</ele>
        <time>2015-04-26T08:34:30Z</time>
      </trkpt>
      <trkpt lat="45.64902" lon="4.59125">
        <ele>682</ele>
        <time>2015-04-26T08:34:35Z</time>
      </trkpt>
      <trkpt lat="45.64877" lon="4.59142">
        <ele>685.2</ele>
        <time>2015-04-26T08:34:40Z</time>
      </trkpt>
      <trkpt lat="45.64858" lon="4.59147">
        <ele>687</ele>
        <time>2015-04-26T08:34:45Z</time>
      </trkpt>
      <trkpt lat="45.64843" lon="4.5915">
        <ele>686.1</ele>
        <time>2015-04-26T08:34:50Z</time>
      </trkpt>
      <trkpt lat="45.6483" lon="4.59157">
        <ele>688.5</ele>
        <time>2015-04-26T08:34:55Z</time>
      </trkpt>
      <trkpt lat="45.64818" lon="4.59163">
        <ele>690.2</ele>
        <time>2015-04-26T08:35:00Z</time>
      </trkpt>
      <trkpt lat="45.64808" lon="4.5917">
        <ele>691.5</ele>
        <time>2015-04-26T08:35:05Z</time>
      </trkpt>
      <trkpt lat="45.648" lon="4.59182">
        <ele>693.2</ele>
        <time>2015-04-26T08:35:10Z</time>
      </trkpt>
      <trkpt lat="45.64797" lon="4.59195">
        <ele>693.7</ele>
        <time>2015-04-26T08:35:15Z</time>
      </trkpt>
      <trkpt lat="45.64793" lon="4.59207">
        <ele>695.6</ele>
        <time>2015-04-26T08:35:20Z</time>
      </trkpt>
      <trkpt lat="45.6479" lon="4.59218">
        <ele>697.3</ele>
        <time>2015-04-26T08:35:25Z</time>
      </trkpt>
      <trkpt lat="45.64787" lon="4.59228">
        <ele>698.8</ele>
        <time>2015-04-26T08:35:30Z</time>
      </trkpt>
      <trkpt lat="45.64782" lon="4.59237">
        <ele>699.5</ele>
        <time>2015-04-26T08:35:35Z</time>
      </trkpt>
      <trkpt lat="45.64778" lon="4.59245">
        <ele>701</ele>
        <time>2015-04-26T08:35:40Z</time>
      </trkpt>
      <trkpt lat="45.64775" lon="4.59253">
        <ele>702.8</ele>
        <time>2015-04-26T08:35:45Z</time>
      </trkpt>
      <trkpt lat="45.64768" lon="4.5926">
        <ele>703.8</ele>
        <time>2015-04-26T08:35:50Z</time>
      </trkpt>
      <trkpt lat="45.64762" lon="4.59263">
        <ele>704.5</ele>
        <time>2015-04-26T08:35:55Z</time>
      </trkpt>
      <trkpt lat="45.64755" lon="4.5926">
        <ele>706</ele>
        <time>2015-04-26T08:36:00Z</time>
      </trkpt>
      <trkpt lat="45.64748" lon="4.59255">
        <ele>706.8</ele>
        <time>2015-04-26T08:36:05Z</time>
      </trkpt>
      <trkpt lat="45.64742" lon="4.59248">
        <ele>708.2</ele>
        <time>2015-04-26T08:36:10Z</time>
      </trkpt>
      <trkpt lat="45.64735" lon="4.59242">
        <ele>708.2</ele>
        <time>2015-04-26T08:36:15Z</time>
      </trkpt>
      <trkpt lat="45.64728" lon="4.59237">
        <ele>710.5</ele>
        <time>2015-04-26T08:36:20Z</time>
      </trkpt>
      <trkpt lat="45.64722" lon="4.5923">
        <ele>711.1</ele>
        <time>2015-04-26T08:36:25Z</time>
      </trkpt>
      <trkpt lat="45.64715" lon="4.59223">
        <ele>711.3</ele>
        <time>2015-04-26T08:36:30Z</time>
      </trkpt>
      <trkpt lat="45.64708" lon="4.59217">
        <ele>714.2</ele>
        <time>2015-04-26T08:36:35Z</time>
      </trkpt>
      <trkpt lat="45.64703" lon="4.5921">
        <ele>714.9</ele>
        <time>2015-04-26T08:36:40Z</time>
      </trkpt>
      <trkpt lat="45.64695" lon="4.59203">
        <ele>715.9</ele>
        <time>2015-04-26T08:36:45Z</time>
      </trkpt>
      <trkpt lat="45.6469" lon="4.59195">
        <ele>715.9</ele>
        <time>2015-04-26T08:36:50Z</time>
      </trkpt>
      <trkpt lat="45.64687" lon="4.59187">
        <ele>717</ele>
        <time>2015-04-26T08:36:55Z</time>
      </trkpt>
      <trkpt lat="45.64683" lon="4.59177">
        <ele>717.9</ele>
        <time>2015-04-26T08:37:00Z</time>
      </trkpt>
      <trkpt lat="45.64678" lon="4.59168">
        <ele>719</ele>
        <time>2015-04-26T08:37:05Z</time>
      </trkpt>
      <trkpt lat="45.64672" lon="4.59162">
        <ele>721.1</ele>
        <time>2015-04-26T08:37:10Z</time>
      </trkpt>
      <trkpt lat="45.64667" lon="4.59157">
        <ele>722</ele>
        <time>2015-04-26T08:37:15Z</time>
      </trkpt>
      <trkpt lat="45.64662" lon="4.59153">
        <ele>723.3</ele>
        <time>2015-04-26T08:37:20Z</time>
      </trkpt>
      <trkpt lat="45.6466" lon="4.59143">
        <ele>723.7</ele>
        <time>2015-04-26T08:37:25Z</time>
      </trkpt>
      <trkpt lat="45.64658" lon="4.59137">
        <ele>725.7</ele>
        <time>2015-04-26T08:37:30Z</time>
      </trkpt>
      <trkpt lat="45.64652" lon="4.5914">
        <ele>727</ele>
        <time>2015-04-26T08:37:35Z</time>
      </trkpt>
      <trkpt lat="45.64645" lon="4.59152">
        <ele>726.8</ele>
        <time>2015-04-26T08:37:40Z</time>
      </trkpt>
      <trkpt lat="45.6464" lon="4.59165">
        <ele>727.3</ele>
        <time>2015-04-26T08:37:45Z</time>
      </trkpt>
      <trkpt lat="45.64635" lon="4.59182">
        <ele>727.6</ele>
        <time>2015-04-26T08:37:50Z</time>
      </trkpt>
      <trkpt lat="45.64633" lon="4.59202">
        <ele>727.4</ele>
        <time>2015-04-26T08:37:55Z</time>
      </trkpt>
      <trkpt lat="45.64633" lon="4.59222">
        <ele>728.2</ele>
        <time>2015-04-26T08:38:00Z</time>
      </trkpt>
      <trkpt lat="45.64635" lon="4.59242">
        <ele>729.3</ele>
        <time>2015-04-26T08:38:05Z</time>
      </trkpt>
      <trkpt lat="45.64632" lon="4.59258">
        <ele>729.8</ele>
        <time>2015-04-26T08:38:10Z</time>
      </trkpt>
      <trkpt lat="45.6463" lon="4.59272">
        <ele>731.4</ele>
        <time>2015-04-26T08:38:15Z</time>
      </trkpt>
      <trkpt lat="45.64625" lon="4.59287">
        <ele>733</ele>
        <time>2015-04-26T08:38:20Z</time>
      </trkpt>
      <trkpt lat="45.64622" lon="4.59302">
        <ele>733</ele>
        <time>2015-04-26T08:38:25Z</time>
      </trkpt>
      <trkpt lat="45.64617" lon="4.59315">
        <ele>734.2</ele>
        <time>2015-04-26T08:38:30Z</time>
      </trkpt>
      <trkpt lat="45.64612" lon="4.59328">
        <ele>736.1</ele>
        <time>2015-04-26T08:38:35Z</time>
      </trkpt>
      <trkpt lat="45.64603" lon="4.59338">
        <ele>737.5</ele>
        <time>2015-04-26T08:38:40Z</time>
      </trkpt>
      <trkpt lat="45.64593" lon="4.59345">
        <ele>739.2</ele>
        <time>2015-04-26T08:38:45Z</time>
      </trkpt>
      <trkpt lat="45.64585" lon="4.59352">
        <ele>740</ele>
        <time>2015-04-26T08:38:50Z</time>
      </trkpt>
      <trkpt lat="45.64578" lon="4.59357">
        <ele>741.4</ele>
        <time>2015-04-26T08:38:55Z</time>
      </trkpt>
      <trkpt lat="45.6457" lon="4.59362">
        <ele>741.7</ele>
        <time>2015-04-26T08:39:00Z</time>
      </trkpt>
      <trkpt lat="45.64562" lon="4.59367">
        <ele>742.6</ele>
        <time>2015-04-26T08:39:05Z</time>
      </trkpt>
      <trkpt lat="45.64555" lon="4.5937">
        <ele>743.6</ele>
        <time>2015-04-26T08:39:10Z</time>
      </trkpt>
      <trkpt lat="45.64547" lon="4.59372">
        <ele>745.3</ele>
        <time>2015-04-26T08:39:15Z</time>
      </trkpt>
      <trkpt lat="45.64538" lon="4.59372">
        <ele>747</ele>
        <time>2015-04-26T08:39:20Z</time>
      </trkpt>
      <trkpt lat="45.64532" lon="4.59367">
        <ele>747</ele>
        <time>2015-04-26T08:39:25Z</time>
      </trkpt>
      <trkpt lat="45.64523" lon="4.59367">
        <ele>748.6</ele>
        <time>2015-04-26T08:39:30Z</time>
      </trkpt>
      <trkpt lat="45.64515" lon="4.5937">
        <ele>749.6</ele>
        <time>2015-04-26T08:39:35Z</time>
      </trkpt>
      <trkpt lat="45.64507" lon="4.59375">
        <ele>750.5</ele>
        <time>2015-04-26T08:39:40Z</time>
      </trkpt>
      <trkpt lat="45.64498" lon="4.59382">
        <ele>750.9</ele>
        <time>2015-04-26T08:39:45Z</time>
      </trkpt>
      <trkpt lat="45.64488" lon="4.5939">
        <ele>752.8</ele>
        <time>2015-04-26T08:39:50Z</time>
      </trkpt>
      <trkpt lat="45.6448" lon="4.594">
        <ele>752.9</ele>
        <time>2015-04-26T08:39:55Z</time>
      </trkpt>
      <trkpt lat="45.64472" lon="4.5941">
        <ele>754.3</ele>
        <time>2015-04-26T08:40:00Z</time>
      </trkpt>
      <trkpt lat="45.64463" lon="4.59418">
        <ele>754</ele>
        <time>2015-04-26T08:40:05Z</time>
      </trkpt>
      <trkpt lat="45.64457" lon="4.59427">
        <ele>754.8</ele>
        <time>2015-04-26T08:40:10Z</time>
      </trkpt>
      <trkpt lat="45.64452" lon="4.59435">
        <ele>756.5</ele>
        <time>2015-04-26T08:40:15Z</time>
      </trkpt>
      <trkpt lat="45.64447" lon="4.59442">
        <ele>757.3</ele>
        <time>2015-04-26T08:40:20Z</time>
      </trkpt>
      <trkpt lat="45.64442" lon="4.5945">
        <ele>759.9</ele>
        <time>2015-04-26T08:40:25Z</time>
      </trkpt>
      <trkpt lat="45.64435" lon="4.59457">
        <ele>761</ele>
        <time>2015-04-26T08:40:30Z</time>
      </trkpt>
      <trkpt lat="45.6443" lon="4.59463">
        <ele>762.6</ele>
        <time>2015-04-26T08:40:35Z</time>
      </trkpt>
      <trkpt lat="45.64423" lon="4.5947">
        <ele>763.5</ele>
        <time>2015-04-26T08:40:40Z</time>
      </trkpt>
      <trkpt lat="45.64418" lon="4.59477">
        <ele>765.5</ele>
        <time>2015-04-26T08:40:45Z</time>
      </trkpt>
      <trkpt lat="45.64415" lon="4.59483">
        <ele>766.3</ele>
        <time>2015-04-26T08:40:50Z</time>
      </trkpt>
      <trkpt lat="45.64412" lon="4.59493">
        <ele>767.3</ele>
        <time>2015-04-26T08:40:55Z</time>
      </trkpt>
      <trkpt lat="45.64407" lon="4.59502">
        <ele>768.9</ele>
        <time>2015-04-26T08:41:00Z</time>
      </trkpt>
      <trkpt lat="45.64403" lon="4.5951">
        <ele>769.3</ele>
        <time>2015-04-26T08:41:05Z</time>
      </trkpt>
      <trkpt lat="45.644" lon="4.59518">
        <ele>770.3</ele>
        <time>2015-04-26T08:41:10Z</time>
      </trkpt>
      <trkpt lat="45.64398" lon="4.59527">
        <ele>771.3</ele>
        <time>2015-04-26T08:41:15Z</time>
      </trkpt>
      <trkpt lat="45.64395" lon="4.59533">
        <ele>772.1</ele>
        <time>2015-04-26T08:41:20Z</time>
      </trkpt>
      <trkpt lat="45.64392" lon="4.5954">
        <ele>772.8</ele>
        <time>2015-04-26T08:41:25Z</time>
      </trkpt>
      <trkpt lat="45.64388" lon="4.59552">
        <ele>774</ele>
        <time>2015-04-26T08:41:30Z</time>
      </trkpt>
      <trkpt lat="45.64385" lon="4.59563">
        <ele>774.6</ele>
        <time>2015-04-26T08:41:35Z</time>
      </trkpt>
      <trkpt lat="45.64382" lon="4.59573">
        <ele>775.1</ele>
        <time>2015-04-26T08:41:40Z</time>
      </trkpt>
      <trkpt lat="45.6438" lon="4.59583">
        <ele>777</ele>
        <time>2015-04-26T08:41:45Z</time>
      </trkpt>
      <trkpt lat="45.64377" lon="4.59593">
        <ele>779.2</ele>
        <time>2015-04-26T08:41:50Z</time>
      </trkpt>
      <trkpt lat="45.64373" lon="4.59607">
        <ele>778.6</ele>
        <time>2015-04-26T08:41:55Z</time>
      </trkpt>
      <trkpt lat="45.6437" lon="4.59618">
        <ele>779.9</ele>
        <time>2015-04-26T08:42:00Z</time>
      </trkpt>
      <trkpt lat="45.64367" lon="4.59633">
        <ele>780.7</ele>
        <time>2015-04-26T08:42:05Z</time>
      </trkpt>
      <trkpt lat="45.64363" lon="4.59647">
        <ele>781.9</ele>
        <time>2015-04-26T08:42:10Z</time>
      </trkpt>
      <trkpt lat="45.6436" lon="4.59658">
        <ele>783.8</ele>
        <time>2015-04-26T08:42:15Z</time>
      </trkpt>
      <trkpt lat="45.64358" lon="4.59673">
        <ele>784.2</ele>
        <time>2015-04-26T08:42:20Z</time>
      </trkpt>
      <trkpt lat="45.64352" lon="4.59683">
        <ele>785.4</ele>
        <time>2015-04-26T08:42:25Z</time>
      </trkpt>
      <trkpt lat="45.64342" lon="4.59688">
        <ele>786.1</ele>
        <time>2015-04-26T08:42:30Z</time>
      </trkpt>
      <trkpt lat="45.64332" lon="4.59693">
        <ele>788.1</ele>
        <time>2015-04-26T08:42:35Z</time>
      </trkpt>
      <trkpt lat="45.6432" lon="4.59697">
        <ele>787.9</ele>
        <time>2015-04-26T08:42:40Z</time>
      </trkpt>
      <trkpt lat="45.64312" lon="4.59702">
        <ele>789.6</ele>
        <time>2015-04-26T08:42:45Z</time>
      </trkpt>
      <trkpt lat="45.64303" lon="4.59712">
        <ele>790.4</ele>
        <time>2015-04-26T08:42:50Z</time>
      </trkpt>
      <trkpt lat="45.64292" lon="4.59722">
        <ele>791.9</ele>
        <time>2015-04-26T08:42:55Z</time>
      </trkpt>
      <trkpt lat="45.64273" lon="4.5973">
        <ele>792</ele>
        <time>2015-04-26T08:43:00Z</time>
      </trkpt>
      <trkpt lat="45.64247" lon="4.5973">
        <ele>786.5</ele>
        <time>2015-04-26T08:43:05Z</time>
      </trkpt>
      <trkpt lat="45.6422" lon="4.59723">
        <ele>785.7</ele>
        <time>2015-04-26T08:43:10Z</time>
      </trkpt>
      <trkpt lat="45.64187" lon="4.59732">
        <ele>786.2</ele>
        <time>2015-04-26T08:43:15Z</time>
      </trkpt>
      <trkpt lat="45.64158" lon="4.5973">
        <ele>783.5</ele>
        <time>2015-04-26T08:43:20Z</time>
      </trkpt>
      <trkpt lat="45.64147" lon="4.59723">
        <ele>786.1</ele>
        <time>2015-04-26T08:43:25Z</time>
      </trkpt>
      <trkpt lat="45.64133" lon="4.59722">
        <ele>788</ele>
        <time>2015-04-26T08:43:30Z</time>
      </trkpt>
      <trkpt lat="45.64123" lon="4.5972">
        <ele>788.2</ele>
        <time>2015-04-26T08:43:35Z</time>
      </trkpt>
      <trkpt lat="45.6411" lon="4.59722">
        <ele>789.6</ele>
        <time>2015-04-26T08:43:40Z</time>
      </trkpt>
      <trkpt lat="45.64098" lon="4.59722">
        <ele>790.5</ele>
        <time>2015-04-26T08:43:45Z</time>
      </trkpt>
      <trkpt lat="45.64087" lon="4.59722">
        <ele>791.1</ele>
        <time>2015-04-26T08:43:50Z</time>
      </trkpt>
      <trkpt lat="45.64077" lon="4.59725">
        <ele>793</ele>
        <time>2015-04-26T08:43:55Z</time>
      </trkpt>
      <trkpt lat="45.64067" lon="4.59725">
        <ele>794.4</ele>
        <time>2015-04-26T08:44:00Z</time>
      </trkpt>
      <trkpt lat="45.64057" lon="4.59725">
        <ele>794.9</ele>
        <time>2015-04-26T08:44:05Z</time>
      </trkpt>
      <trkpt lat="45.64045" lon="4.59727">
        <ele>795</ele>
        <time>2015-04-26T08:44:10Z</time>
      </trkpt>
      <trkpt lat="45.64033" lon="4.59725">
        <ele>797</ele>
        <time>2015-04-26T08:44:15Z</time>
      </trkpt>
      <trkpt lat="45.6402" lon="4.59728">
        <ele>796.3</ele>
        <time>2015-04-26T08:44:20Z</time>
      </trkpt>
      <trkpt lat="45.64005" lon="4.59728">
        <ele>796.3</ele>
        <time>2015-04-26T08:44:25Z</time>
      </trkpt>
      <trkpt lat="45.63977" lon="4.5973">
        <ele>794.2</ele>
        <time>2015-04-26T08:44:30Z</time>
      </trkpt>
      <trkpt lat="45.63955" lon="4.59722">
        <ele>793.5</ele>
        <time>2015-04-26T08:44:35Z</time>
      </trkpt>
      <trkpt lat="45.63937" lon="4.59715">
        <ele>795.2</ele>
        <time>2015-04-26T08:44:40Z</time>
      </trkpt>
      <trkpt lat="45.63918" lon="4.59712">
        <ele>791.1</ele>
        <time>2015-04-26T08:44:45Z</time>
      </trkpt>
      <trkpt lat="45.639" lon="4.59708">
        <ele>794.3</ele>
        <time>2015-04-26T08:44:50Z</time>
      </trkpt>
      <trkpt lat="45.6388" lon="4.59707">
        <ele>794.6</ele>
        <time>2015-04-26T08:44:55Z</time>
      </trkpt>
      <trkpt lat="45.6386" lon="4.59707">
        <ele>793.3</ele>
        <time>2015-04-26T08:45:00Z</time>
      </trkpt>
      <trkpt lat="45.63842" lon="4.59702">
        <ele>795.3</ele>
        <time>2015-04-26T08:45:05Z</time>
      </trkpt>
      <trkpt lat="45.63822" lon="4.59697">
        <ele>795.9</ele>
        <time>2015-04-26T08:45:10Z</time>
      </trkpt>
      <trkpt lat="45.63803" lon="4.59693">
        <ele>796.5</ele>
        <time>2015-04-26T08:45:15Z</time>
      </trkpt>
      <trkpt lat="45.63787" lon="4.59688">
        <ele>797.9</ele>
        <time>2015-04-26T08:45:20Z</time>
      </trkpt>
      <trkpt lat="45.63775" lon="4.59683">
        <ele>799.7</ele>
        <time>2015-04-26T08:45:25Z</time>
      </trkpt>
      <trkpt lat="45.63765" lon="4.59683">
        <ele>801</ele>
        <time>2015-04-26T08:45:30Z</time>
      </trkpt>
      <trkpt lat="45.63755" lon="4.59682">
        <ele>802.7</ele>
        <time>2015-04-26T08:45:35Z</time>
      </trkpt>
      <trkpt lat="45.63745" lon="4.59678">
        <ele>803.5</ele>
        <time>2015-04-26T08:45:40Z</time>
      </trkpt>
      <trkpt lat="45.63735" lon="4.59678">
        <ele>805.6</ele>
        <time>2015-04-26T08:45:45Z</time>
      </trkpt>
      <trkpt lat="45.63725" lon="4.59677">
        <ele>807.3</ele>
        <time>2015-04-26T08:45:50Z</time>
      </trkpt>
      <trkpt lat="45.63715" lon="4.59677">
        <ele>807.8</ele>
        <time>2015-04-26T08:45:55Z</time>
      </trkpt>
      <trkpt lat="45.63703" lon="4.59677">
        <ele>808.9</ele>
        <time>2015-04-26T08:46:00Z</time>
      </trkpt>
      <trkpt lat="45.63692" lon="4.59677">
        <ele>809.6</ele>
        <time>2015-04-26T08:46:05Z</time>
      </trkpt>
      <trkpt lat="45.63678" lon="4.59677">
        <ele>810.4</ele>
        <time>2015-04-26T08:46:10Z</time>
      </trkpt>
      <trkpt lat="45.63665" lon="4.5968">
        <ele>810.1</ele>
        <time>2015-04-26T08:46:15Z</time>
      </trkpt>
      <trkpt lat="45.6365" lon="4.59687">
        <ele>810.1</ele>
        <time>2015-04-26T08:46:20Z</time>
      </trkpt>
      <trkpt lat="45.63635" lon="4.59693">
        <ele>811</ele>
        <time>2015-04-26T08:46:25Z</time>
      </trkpt>
      <trkpt lat="45.63622" lon="4.597">
        <ele>811.4</ele>
        <time>2015-04-26T08:46:30Z</time>
      </trkpt>
      <trkpt lat="45.63608" lon="4.59702">
        <ele>813.5</ele>
        <time>2015-04-26T08:46:35Z</time>
      </trkpt>
      <trkpt lat="45.63598" lon="4.59695">
        <ele>813.1</ele>
        <time>2015-04-26T08:46:40Z</time>
      </trkpt>
      <trkpt lat="45.63588" lon="4.59685">
        <ele>815.2</ele>
        <time>2015-04-26T08:46:45Z</time>
      </trkpt>
      <trkpt lat="45.6358" lon="4.59677">
        <ele>817.3</ele>
        <time>2015-04-26T08:46:50Z</time>
      </trkpt>
      <trkpt lat="45.63575" lon="4.59665">
        <ele>816.5</ele>
        <time>2015-04-26T08:46:55Z</time>
      </trkpt>
      <trkpt lat="45.63572" lon="4.59653">
        <ele>817.2</ele>
        <time>2015-04-26T08:47:00Z</time>
      </trkpt>
      <trkpt lat="45.63567" lon="4.59642">
        <ele>817.5</ele>
        <time>2015-04-26T08:47:05Z</time>
      </trkpt>
      <trkpt lat="45.6356" lon="4.5962">
        <ele>817.9</ele>
        <time>2015-04-26T08:47:10Z</time>
      </trkpt>
      <trkpt lat="45.63547" lon="4.59602">
        <ele>817.6</ele>
        <time>2015-04-26T08:47:15Z</time>
      </trkpt>
      <trkpt lat="45.63533" lon="4.59582">
        <ele>816.9</ele>
        <time>2015-04-26T08:47:20Z</time>
      </trkpt>
      <trkpt lat="45.63523" lon="4.59552">
        <ele>814.8</ele>
        <time>2015-04-26T08:47:25Z</time>
      </trkpt>
      <trkpt lat="45.63518" lon="4.5951">
        <ele>814.7</ele>
        <time>2015-04-26T08:47:30Z</time>
      </trkpt>
      <trkpt lat="45.63512" lon="4.59472">
        <ele>812.3</ele>
        <time>2015-04-26T08:47:35Z</time>
      </trkpt>
      <trkpt lat="45.6351" lon="4.59433">
        <ele>811.7</ele>
        <time>2015-04-26T08:47:40Z</time>
      </trkpt>
      <trkpt lat="45.63513" lon="4.59413">
        <ele>813</ele>
        <time>2015-04-26T08:47:45Z</time>
      </trkpt>
      <trkpt lat="45.63517" lon="4.59405">
        <ele>813.4</ele>
        <time>2015-04-26T08:47:50Z</time>
      </trkpt>
      <trkpt lat="45.63522" lon="4.59395">
        <ele>815.4</ele>
        <time>2015-04-26T08:47:55Z</time>
      </trkpt>
      <trkpt lat="45.63527" lon="4.59387">
        <ele>817.1</ele>
        <time>2015-04-26T08:48:00Z</time>
      </trkpt>
      <trkpt lat="45.63533" lon="4.59377">
        <ele>819.1</ele>
        <time>2015-04-26T08:48:05Z</time>
      </trkpt>
      <trkpt lat="45.63537" lon="4.59367">
        <ele>819.5</ele>
        <time>2015-04-26T08:48:10Z</time>
      </trkpt>
      <trkpt lat="45.6354" lon="4.59357">
        <ele>821.3</ele>
        <time>2015-04-26T08:48:15Z</time>
      </trkpt>
      <trkpt lat="45.63543" lon="4.59345">
        <ele>823.4</ele>
        <time>2015-04-26T08:48:20Z</time>
      </trkpt>
      <trkpt lat="45.63547" lon="4.59338">
        <ele>824.5</ele>
        <time>2015-04-26T08:48:25Z</time>
      </trkpt>
      <trkpt lat="45.6355" lon="4.5933">
        <ele>825.6</ele>
        <time>2015-04-26T08:48:30Z</time>
      </trkpt>
      <trkpt lat="45.63552" lon="4.5932">
        <ele>826.3</ele>
        <time>2015-04-26T08:48:35Z</time>
      </trkpt>
      <trkpt lat="45.63555" lon="4.5931">
        <ele>828.2</ele>
        <time>2015-04-26T08:48:40Z</time>
      </trkpt>
      <trkpt lat="45.63558" lon="4.59303">
        <ele>829.3</ele>
        <time>2015-04-26T08:48:45Z</time>
      </trkpt>
      <trkpt lat="45.63562" lon="4.59293">
        <ele>830.3</ele>
        <time>2015-04-26T08:48:50Z</time>
      </trkpt>
      <trkpt lat="45.63563" lon="4.59282">
        <ele>832.6</ele>
        <time>2015-04-26T08:48:55Z</time>
      </trkpt>
      <trkpt lat="45.63567" lon="4.59275">
        <ele>832.8</ele>
        <time>2015-04-26T08:49:00Z</time>
      </trkpt>
      <trkpt lat="45.6357" lon="4.59267">
        <ele>834</ele>
        <time>2015-04-26T08:49:05Z</time>
      </trkpt>
      <trkpt lat="45.63577" lon="4.59258">
        <ele>835.2</ele>
        <time>2015-04-26T08:49:10Z</time>
      </trkpt>
      <trkpt lat="45.63583" lon="4.5925">
        <ele>835.7</ele>
        <time>2015-04-26T08:49:15Z</time>
      </trkpt>
      <trkpt lat="45.6359" lon="4.59245">
        <ele>836</ele>
        <time>2015-04-26T08:49:20Z</time>
      </trkpt>
      <trkpt lat="45.63598" lon="4.59235">
        <ele>837.8</ele>
        <time>2015-04-26T08:49:25Z</time>
      </trkpt>
      <trkpt lat="45.63607" lon="4.59225">
        <ele>837.9</ele>
        <time>2015-04-26T08:49:30Z</time>
      </trkpt>
      <trkpt lat="45.63617" lon="4.5922">
        <ele>839.1</ele>
        <time>2015-04-26T08:49:35Z</time>
      </trkpt>
      <trkpt lat="45.63625" lon="4.5921">
        <ele>839.1</ele>
        <time>2015-04-26T08:49:40Z</time>
      </trkpt>
      <trkpt lat="45.63633" lon="4.59198">
        <ele>839.8</ele>
        <time>2015-04-26T08:49:45Z</time>
      </trkpt>
      <trkpt lat="45.63642" lon="4.59188">
        <ele>840.1</ele>
        <time>2015-04-26T08:49:50Z</time>
      </trkpt>
      <trkpt lat="45.6365" lon="4.59178">
        <ele>840</ele>
        <time>2015-04-26T08:49:55Z</time>
      </trkpt>
      <trkpt lat="45.63658" lon="4.59175">
        <ele>841.2</ele>
        <time>2015-04-26T08:50:00Z</time>
      </trkpt>
      <trkpt lat="45.63665" lon="4.59178">
        <ele>842.3</ele>
        <time>2015-04-26T08:50:05Z</time>
      </trkpt>
      <trkpt lat="45.6367" lon="4.59187">
        <ele>844.2</ele>
        <time>2015-04-26T08:50:10Z</time>
      </trkpt>
      <trkpt lat="45.63673" lon="4.59195">
        <ele>845.8</ele>
        <time>2015-04-26T08:50:15Z</time>
      </trkpt>
      <trkpt lat="45.63677" lon="4.59205">
        <ele>848.2</ele>
        <time>2015-04-26T08:50:20Z</time>
      </trkpt>
      <trkpt lat="45.63682" lon="4.59213">
        <ele>849.4</ele>
        <time>2015-04-26T08:50:25Z</time>
      </trkpt>
      <trkpt lat="45.63687" lon="4.59218">
        <ele>850.1</ele>
        <time>2015-04-26T08:50:30Z</time>
      </trkpt>
      <trkpt lat="45.63692" lon="4.59227">
        <ele>852.2</ele>
        <time>2015-04-26T08:50:35Z</time>
      </trkpt>
      <trkpt lat="45.63692" lon="4.59235">
        <ele>853.5</ele>
        <time>2015-04-26T08:50:40Z</time>
      </trkpt>
      <trkpt lat="45.63692" lon="4.59243">
        <ele>855.5</ele>
        <time>2015-04-26T08:50:45Z</time>
      </trkpt>
      <trkpt lat="45.6369" lon="4.59255">
        <ele>856.4</ele>
        <time>2015-04-26T08:50:50Z</time>
      </trkpt>
      <trkpt lat="45.63693" lon="4.59263">
        <ele>858.1</ele>
        <time>2015-04-26T08:50:55Z</time>
      </trkpt>
      <trkpt lat="45.63695" lon="4.5927">
        <ele>859</ele>
        <time>2015-04-26T08:51:00Z</time>
      </trkpt>
      <trkpt lat="45.637" lon="4.59277">
        <ele>861.3</ele>
        <time>2015-04-26T08:51:05Z</time>
      </trkpt>
      <trkpt lat="45.63703" lon="4.59283">
        <ele>863.2</ele>
        <time>2015-04-26T08:51:10Z</time>
      </trkpt>
      <trkpt lat="45.63707" lon="4.59292">
        <ele>864.1</ele>
        <time>2015-04-26T08:51:15Z</time>
      </trkpt>
      <trkpt lat="45.6371" lon="4.593">
        <ele>865.4</ele>
        <time>2015-04-26T08:51:20Z</time>
      </trkpt>
      <trkpt lat="45.63715" lon="4.59305">
        <ele>866.8</ele>
        <time>2015-04-26T08:51:25Z</time>
      </trkpt>
      <trkpt lat="45.63718" lon="4.59312">
        <ele>868.2</ele>
        <time>2015-04-26T08:51:30Z</time>
      </trkpt>
      <trkpt lat="45.63722" lon="4.59318">
        <ele>869.7</ele>
        <time>2015-04-26T08:51:35Z</time>
      </trkpt>
      <trkpt lat="45.63722" lon="4.59327">
        <ele>871.3</ele>
        <time>2015-04-26T08:51:40Z</time>
      </trkpt>
      <trkpt lat="45.63722" lon="4.59337">
        <ele>872.5</ele>
        <time>2015-04-26T08:51:45Z</time>
      </trkpt>
      <trkpt lat="45.63727" lon="4.59345">
        <ele>873.7</ele>
        <time>2015-04-26T08:51:50Z</time>
      </trkpt>
      <trkpt lat="45.6373" lon="4.59353">
        <ele>874.4</ele>
        <time>2015-04-26T08:51:55Z</time>
      </trkpt>
      <trkpt lat="45.63738" lon="4.59358">
        <ele>875</ele>
        <time>2015-04-26T08:52:00Z</time>
      </trkpt>
      <trkpt lat="45.63745" lon="4.59363">
        <ele>876.2</ele>
        <time>2015-04-26T08:52:05Z</time>
      </trkpt>
      <trkpt lat="45.6375" lon="4.5937">
        <ele>877.7</ele>
        <time>2015-04-26T08:52:10Z</time>
      </trkpt>
      <trkpt lat="45.63755" lon="4.59378">
        <ele>878.8</ele>
        <time>2015-04-26T08:52:15Z</time>
      </trkpt>
      <trkpt lat="45.6376" lon="4.59385">
        <ele>880.2</ele>
        <time>2015-04-26T08:52:20Z</time>
      </trkpt>
      <trkpt lat="45.6376" lon="4.59392">
        <ele>881.2</ele>
        <time>2015-04-26T08:52:25Z</time>
      </trkpt>
      <trkpt lat="45.63758" lon="4.59405">
        <ele>881.4</ele>
        <time>2015-04-26T08:52:30Z</time>
      </trkpt>
      <trkpt lat="45.63765" lon="4.59408">
        <ele>880.1</ele>
        <time>2015-04-26T08:52:35Z</time>
      </trkpt>
      <trkpt lat="45.63773" lon="4.5941">
        <ele>881</ele>
        <time>2015-04-26T08:52:40Z</time>
      </trkpt>
      <trkpt lat="45.6378" lon="4.59412">
        <ele>881.1</ele>
        <time>2015-04-26T08:52:45Z</time>
      </trkpt>
      <trkpt lat="45.63785" lon="4.5942">
        <ele>880.5</ele>
        <time>2015-04-26T08:52:50Z</time>
      </trkpt>
      <trkpt lat="45.63795" lon="4.59433">
        <ele>879.2</ele>
        <time>2015-04-26T08:52:55Z</time>
      </trkpt>
      <trkpt lat="45.638" lon="4.59442">
        <ele>879.5</ele>
        <time>2015-04-26T08:53:00Z</time>
      </trkpt>
      <trkpt lat="45.638" lon="4.59447">
        <ele>877.1</ele>
        <time>2015-04-26T08:53:05Z</time>
      </trkpt>
      <trkpt lat="45.63803" lon="4.59448">
        <ele>877.2</ele>
        <time>2015-04-26T08:53:20Z</time>
      </trkpt>
      <trkpt lat="45.63818" lon="4.59453">
        <ele>876.8</ele>
        <time>2015-04-26T08:53:25Z</time>
      </trkpt>
      <trkpt lat="45.63845" lon="4.59455">
        <ele>873.2</ele>
        <time>2015-04-26T08:53:30Z</time>
      </trkpt>
      <trkpt lat="45.63873" lon="4.59455">
        <ele>873.1</ele>
        <time>2015-04-26T08:53:35Z</time>
      </trkpt>
      <trkpt lat="45.63882" lon="4.59455">
        <ele>874.2</ele>
        <time>2015-04-26T08:53:40Z</time>
      </trkpt>
      <trkpt lat="45.6389" lon="4.5945">
        <ele>874.2</ele>
        <time>2015-04-26T08:53:45Z</time>
      </trkpt>
      <trkpt lat="45.63898" lon="4.59435">
        <ele>876.1</ele>
        <time>2015-04-26T08:53:50Z</time>
      </trkpt>
      <trkpt lat="45.63905" lon="4.59422">
        <ele>877.3</ele>
        <time>2015-04-26T08:53:55Z</time>
      </trkpt>
      <trkpt lat="45.6391" lon="4.59408">
        <ele>877.8</ele>
        <time>2015-04-26T08:54:00Z</time>
      </trkpt>
      <trkpt lat="45.6392" lon="4.59415">
        <ele>876.2</ele>
        <time>2015-04-26T08:54:05Z</time>
      </trkpt>
      <trkpt lat="45.63935" lon="4.59427">
        <ele>875.7</ele>
        <time>2015-04-26T08:54:10Z</time>
      </trkpt>
      <trkpt lat="45.63952" lon="4.59413">
        <ele>876.3</ele>
        <time>2015-04-26T08:54:15Z</time>
      </trkpt>
      <trkpt lat="45.63967" lon="4.59385">
        <ele>875.3</ele>
        <time>2015-04-26T08:54:20Z</time>
      </trkpt>
      <trkpt lat="45.63975" lon="4.59353">
        <ele>872.2</ele>
        <time>2015-04-26T08:54:25Z</time>
      </trkpt>
      <trkpt lat="45.63973" lon="4.59308">
        <ele>868.9</ele>
        <time>2015-04-26T08:54:30Z</time>
      </trkpt>
      <trkpt lat="45.63965" lon="4.59258">
        <ele>867.9</ele>
        <time>2015-04-26T08:54:35Z</time>
      </trkpt>
      <trkpt lat="45.63953" lon="4.59215">
        <ele>862.9</ele>
        <time>2015-04-26T08:54:40Z</time>
      </trkpt>
      <trkpt lat="45.63947" lon="4.5918">
        <ele>858.6</ele>
        <time>2015-04-26T08:54:45Z</time>
      </trkpt>
      <trkpt lat="45.6397" lon="4.59145">
        <ele>856.7</ele>
        <time>2015-04-26T08:54:50Z</time>
      </trkpt>
      <trkpt lat="45.63998" lon="4.59105">
        <ele>851.5</ele>
        <time>2015-04-26T08:54:55Z</time>
      </trkpt>
      <trkpt lat="45.6403" lon="4.59053">
        <ele>845.5</ele>
        <time>2015-04-26T08:55:00Z</time>
      </trkpt>
      <trkpt lat="45.64048" lon="4.58997">
        <ele>838.2</ele>
        <time>2015-04-26T08:55:05Z</time>
      </trkpt>
      <trkpt lat="45.64048" lon="4.58935">
        <ele>836.5</ele>
        <time>2015-04-26T08:55:10Z</time>
      </trkpt>
      <trkpt lat="45.6405" lon="4.58875">
        <ele>837.7</ele>
        <time>2015-04-26T08:55:15Z</time>
      </trkpt>
      <trkpt lat="45.6407" lon="4.58825">
        <ele>829.2</ele>
        <time>2015-04-26T08:55:20Z</time>
      </trkpt>
      <trkpt lat="45.64073" lon="4.58802">
        <ele>827.2</ele>
        <time>2015-04-26T08:55:25Z</time>
      </trkpt>
      <trkpt lat="45.64067" lon="4.58798">
        <ele>828.7</ele>
        <time>2015-04-26T08:55:30Z</time>
      </trkpt>
      <trkpt lat="45.64062" lon="4.588">
        <ele>828.5</ele>
        <time>2015-04-26T08:55:35Z</time>
      </trkpt>
      <trkpt lat="45.64053" lon="4.58803">
        <ele>830.1</ele>
        <time>2015-04-26T08:55:40Z</time>
      </trkpt>
      <trkpt lat="45.64043" lon="4.58805">
        <ele>831.5</ele>
        <time>2015-04-26T08:55:45Z</time>
      </trkpt>
      <trkpt lat="45.64033" lon="4.58805">
        <ele>833.9</ele>
        <time>2015-04-26T08:55:50Z</time>
      </trkpt>
      <trkpt lat="45.64025" lon="4.58803">
        <ele>834.2</ele>
        <time>2015-04-26T08:55:55Z</time>
      </trkpt>
      <trkpt lat="45.64015" lon="4.58803">
        <ele>836.3</ele>
        <time>2015-04-26T08:56:00Z</time>
      </trkpt>
      <trkpt lat="45.64008" lon="4.58803">
        <ele>837.7</ele>
        <time>2015-04-26T08:56:05Z</time>
      </trkpt>
      <trkpt lat="45.64" lon="4.58805">
        <ele>838.1</ele>
        <time>2015-04-26T08:56:10Z</time>
      </trkpt>
      <trkpt lat="45.63993" lon="4.58807">
        <ele>839.2</ele>
        <time>2015-04-26T08:56:15Z</time>
      </trkpt>
      <trkpt lat="45.63987" lon="4.58807">
        <ele>840.1</ele>
        <time>2015-04-26T08:56:20Z</time>
      </trkpt>
      <trkpt lat="45.63978" lon="4.58808">
        <ele>842.8</ele>
        <time>2015-04-26T08:56:25Z</time>
      </trkpt>
      <trkpt lat="45.63972" lon="4.58808">
        <ele>843.5</ele>
        <time>2015-04-26T08:56:30Z</time>
      </trkpt>
      <trkpt lat="45.63963" lon="4.58808">
        <ele>844.8</ele>
        <time>2015-04-26T08:56:35Z</time>
      </trkpt>
      <trkpt lat="45.63957" lon="4.58807">
        <ele>845.9</ele>
        <time>2015-04-26T08:56:40Z</time>
      </trkpt>
      <trkpt lat="45.63948" lon="4.58805">
        <ele>846.9</ele>
        <time>2015-04-26T08:56:45Z</time>
      </trkpt>
      <trkpt lat="45.6394" lon="4.58802">
        <ele>847.9</ele>
        <time>2015-04-26T08:56:50Z</time>
      </trkpt>
      <trkpt lat="45.63932" lon="4.58795">
        <ele>848.5</ele>
        <time>2015-04-26T08:56:55Z</time>
      </trkpt>
      <trkpt lat="45.63923" lon="4.58788">
        <ele>849.4</ele>
        <time>2015-04-26T08:57:00Z</time>
      </trkpt>
      <trkpt lat="45.63915" lon="4.58782">
        <ele>851</ele>
        <time>2015-04-26T08:57:05Z</time>
      </trkpt>
      <trkpt lat="45.63907" lon="4.58772">
        <ele>850.7</ele>
        <time>2015-04-26T08:57:10Z</time>
      </trkpt>
      <trkpt lat="45.63898" lon="4.5876">
        <ele>851.5</ele>
        <time>2015-04-26T08:57:15Z</time>
      </trkpt>
      <trkpt lat="45.63888" lon="4.5875">
        <ele>852.8</ele>
        <time>2015-04-26T08:57:20Z</time>
      </trkpt>
      <trkpt lat="45.63877" lon="4.5874">
        <ele>853.3</ele>
        <time>2015-04-26T08:57:25Z</time>
      </trkpt>
      <trkpt lat="45.63862" lon="4.58733">
        <ele>854.8</ele>
        <time>2015-04-26T08:57:30Z</time>
      </trkpt>
      <trkpt lat="45.63838" lon="4.58717">
        <ele>850.8</ele>
        <time>2015-04-26T08:57:35Z</time>
      </trkpt>
      <trkpt lat="45.63807" lon="4.58697">
        <ele>851.8</ele>
        <time>2015-04-26T08:57:40Z</time>
      </trkpt>
      <trkpt lat="45.63773" lon="4.58703">
        <ele>847.9</ele>
        <time>2015-04-26T08:57:45Z</time>
      </trkpt>
      <trkpt lat="45.63743" lon="4.58715">
        <ele>846.9</ele>
        <time>2015-04-26T08:57:50Z</time>
      </trkpt>
      <trkpt lat="45.63708" lon="4.5871">
        <ele>844.9</ele>
        <time>2015-04-26T08:57:55Z</time>
      </trkpt>
      <trkpt lat="45.6367" lon="4.58702">
        <ele>841.3</ele>
        <time>2015-04-26T08:58:00Z</time>
      </trkpt>
      <trkpt lat="45.6363" lon="4.58698">
        <ele>841.3</ele>
        <time>2015-04-26T08:58:05Z</time>
      </trkpt>
      <trkpt lat="45.636" lon="4.58667">
        <ele>843.5</ele>
        <time>2015-04-26T08:58:10Z</time>
      </trkpt>
      <trkpt lat="45.63593" lon="4.5861">
        <ele>833.6</ele>
        <time>2015-04-26T08:58:15Z</time>
      </trkpt>
      <trkpt lat="45.6361" lon="4.58552">
        <ele>830.1</ele>
        <time>2015-04-26T08:58:20Z</time>
      </trkpt>
      <trkpt lat="45.63617" lon="4.5849">
        <ele>823.4</ele>
        <time>2015-04-26T08:58:25Z</time>
      </trkpt>
      <trkpt lat="45.63638" lon="4.58457">
        <ele>818.4</ele>
        <time>2015-04-26T08:58:30Z</time>
      </trkpt>
      <trkpt lat="45.6362" lon="4.58437">
        <ele>817.1</ele>
        <time>2015-04-26T08:58:35Z</time>
      </trkpt>
      <trkpt lat="45.6359" lon="4.58412">
        <ele>814.4</ele>
        <time>2015-04-26T08:58:40Z</time>
      </trkpt>
      <trkpt lat="45.6356" lon="4.58378">
        <ele>811.9</ele>
        <time>2015-04-26T08:58:45Z</time>
      </trkpt>
      <trkpt lat="45.6353" lon="4.58337">
        <ele>810.8</ele>
        <time>2015-04-26T08:58:50Z</time>
      </trkpt>
      <trkpt lat="45.635" lon="4.58295">
        <ele>807.2</ele>
        <time>2015-04-26T08:58:55Z</time>
      </trkpt>
      <trkpt lat="45.63463" lon="4.58262">
        <ele>804.7</ele>
        <time>2015-04-26T08:59:00Z</time>
      </trkpt>
      <trkpt lat="45.63427" lon="4.58237">
        <ele>798.5</ele>
        <time>2015-04-26T08:59:05Z</time>
      </trkpt>
      <trkpt lat="45.63388" lon="4.58218">
        <ele>802.7</ele>
        <time>2015-04-26T08:59:10Z</time>
      </trkpt>
      <trkpt lat="45.6337" lon="4.58182">
        <ele>796.1</ele>
        <time>2015-04-26T08:59:15Z</time>
      </trkpt>
      <trkpt lat="45.63333" lon="4.58143">
        <ele>791.2</ele>
        <time>2015-04-26T08:59:20Z</time>
      </trkpt>
      <trkpt lat="45.63303" lon="4.581">
        <ele>782.9</ele>
        <time>2015-04-26T08:59:25Z</time>
      </trkpt>
      <trkpt lat="45.63267" lon="4.58048">
        <ele>774.4</ele>
        <time>2015-04-26T08:59:30Z</time>
      </trkpt>
      <trkpt lat="45.63245" lon="4.57995">
        <ele>767.5</ele>
        <time>2015-04-26T08:59:35Z</time>
      </trkpt>
      <trkpt lat="45.6322" lon="4.57928">
        <ele>757.7</ele>
        <time>2015-04-26T08:59:40Z</time>
      </trkpt>
      <trkpt lat="45.63198" lon="4.57865">
        <ele>752.2</ele>
        <time>2015-04-26T08:59:45Z</time>
      </trkpt>
      <trkpt lat="45.63182" lon="4.57797">
        <ele>750.2</ele>
        <time>2015-04-26T08:59:50Z</time>
      </trkpt>
      <trkpt lat="45.63163" lon="4.57725">
        <ele>737.5</ele>
        <time>2015-04-26T08:59:55Z</time>
      </trkpt>
      <trkpt lat="45.63152" lon="4.57645">
        <ele>738.5</ele>
        <time>2015-04-26T09:00:00Z</time>
      </trkpt>
      <trkpt lat="45.63138" lon="4.57573">
        <ele>727.2</ele>
        <time>2015-04-26T09:00:05Z</time>
      </trkpt>
      <trkpt lat="45.63108" lon="4.57557">
        <ele>721.9</ele>
        <time>2015-04-26T09:00:10Z</time>
      </trkpt>
      <trkpt lat="45.6308" lon="4.5757">
        <ele>724.4</ele>
        <time>2015-04-26T09:00:15Z</time>
      </trkpt>
      <trkpt lat="45.63055" lon="4.57603">
        <ele>721</ele>
        <time>2015-04-26T09:00:20Z</time>
      </trkpt>
      <trkpt lat="45.63033" lon="4.57635">
        <ele>720</ele>
        <time>2015-04-26T09:00:25Z</time>
      </trkpt>
      <trkpt lat="45.63013" lon="4.57658">
        <ele>720.8</ele>
        <time>2015-04-26T09:00:30Z</time>
      </trkpt>
      <trkpt lat="45.62992" lon="4.57682">
        <ele>721.1</ele>
        <time>2015-04-26T09:00:35Z</time>
      </trkpt>
      <trkpt lat="45.62973" lon="4.57702">
        <ele>723.2</ele>
        <time>2015-04-26T09:00:40Z</time>
      </trkpt>
      <trkpt lat="45.62957" lon="4.5772">
        <ele>722.3</ele>
        <time>2015-04-26T09:00:45Z</time>
      </trkpt>
      <trkpt lat="45.62943" lon="4.57742">
        <ele>723.2</ele>
        <time>2015-04-26T09:00:50Z</time>
      </trkpt>
      <trkpt lat="45.62927" lon="4.57768">
        <ele>722.7</ele>
        <time>2015-04-26T09:00:55Z</time>
      </trkpt>
      <trkpt lat="45.62915" lon="4.57807">
        <ele>720.8</ele>
        <time>2015-04-26T09:01:00Z</time>
      </trkpt>
      <trkpt lat="45.6291" lon="4.57855">
        <ele>719.5</ele>
        <time>2015-04-26T09:01:05Z</time>
      </trkpt>
      <trkpt lat="45.62905" lon="4.57905">
        <ele>716.1</ele>
        <time>2015-04-26T09:01:10Z</time>
      </trkpt>
      <trkpt lat="45.62902" lon="4.57958">
        <ele>716.5</ele>
        <time>2015-04-26T09:01:15Z</time>
      </trkpt>
      <trkpt lat="45.62903" lon="4.58015">
        <ele>713</ele>
        <time>2015-04-26T09:01:20Z</time>
      </trkpt>
      <trkpt lat="45.62907" lon="4.58075">
        <ele>711</ele>
        <time>2015-04-26T09:01:25Z</time>
      </trkpt>
      <trkpt lat="45.62912" lon="4.58135">
        <ele>707.6</ele>
        <time>2015-04-26T09:01:30Z</time>
      </trkpt>
      <trkpt lat="45.6292" lon="4.5819">
        <ele>708.6</ele>
        <time>2015-04-26T09:01:35Z</time>
      </trkpt>
      <trkpt lat="45.62912" lon="4.58237">
        <ele>706.4</ele>
        <time>2015-04-26T09:01:40Z</time>
      </trkpt>
      <trkpt lat="45.62893" lon="4.5827">
        <ele>706.2</ele>
        <time>2015-04-26T09:01:45Z</time>
      </trkpt>
      <trkpt lat="45.6286" lon="4.58278">
        <ele>704.2</ele>
        <time>2015-04-26T09:01:50Z</time>
      </trkpt>
      <trkpt lat="45.62832" lon="4.58263">
        <ele>703.4</ele>
        <time>2015-04-26T09:01:55Z</time>
      </trkpt>
      <trkpt lat="45.6282" lon="4.58258">
        <ele>701.8</ele>
        <time>2015-04-26T09:02:00Z</time>
      </trkpt>
      <trkpt lat="45.6281" lon="4.5826">
        <ele>706.4</ele>
        <time>2015-04-26T09:02:05Z</time>
      </trkpt>
      <trkpt lat="45.62798" lon="4.5826">
        <ele>708</ele>
        <time>2015-04-26T09:02:10Z</time>
      </trkpt>
      <trkpt lat="45.6279" lon="4.58258">
        <ele>709.5</ele>
        <time>2015-04-26T09:02:15Z</time>
      </trkpt>
      <trkpt lat="45.62778" lon="4.58258">
        <ele>711.1</ele>
        <time>2015-04-26T09:02:20Z</time>
      </trkpt>
      <trkpt lat="45.62768" lon="4.58255">
        <ele>711.6</ele>
        <time>2015-04-26T09:02:25Z</time>
      </trkpt>
      <trkpt lat="45.62758" lon="4.58255">
        <ele>713.2</ele>
        <time>2015-04-26T09:02:30Z</time>
      </trkpt>
      <trkpt lat="45.62753" lon="4.58267">
        <ele>714</ele>
        <time>2015-04-26T09:02:35Z</time>
      </trkpt>
      <trkpt lat="45.62748" lon="4.58272">
        <ele>714.6</ele>
        <time>2015-04-26T09:02:40Z</time>
      </trkpt>
      <trkpt lat="45.62742" lon="4.5828">
        <ele>716</ele>
        <time>2015-04-26T09:02:45Z</time>
      </trkpt>
      <trkpt lat="45.62737" lon="4.58287">
        <ele>716</ele>
        <time>2015-04-26T09:02:50Z</time>
      </trkpt>
      <trkpt lat="45.62728" lon="4.58295">
        <ele>716.8</ele>
        <time>2015-04-26T09:02:55Z</time>
      </trkpt>
      <trkpt lat="45.62723" lon="4.58302">
        <ele>718.5</ele>
        <time>2015-04-26T09:03:00Z</time>
      </trkpt>
      <trkpt lat="45.62717" lon="4.58308">
        <ele>718.4</ele>
        <time>2015-04-26T09:03:05Z</time>
      </trkpt>
      <trkpt lat="45.62712" lon="4.58315">
        <ele>719.6</ele>
        <time>2015-04-26T09:03:10Z</time>
      </trkpt>
      <trkpt lat="45.62707" lon="4.5832">
        <ele>720</ele>
        <time>2015-04-26T09:03:15Z</time>
      </trkpt>
      <trkpt lat="45.62702" lon="4.58325">
        <ele>722.5</ele>
        <time>2015-04-26T09:03:20Z</time>
      </trkpt>
      <trkpt lat="45.62698" lon="4.58327">
        <ele>723.3</ele>
        <time>2015-04-26T09:03:25Z</time>
      </trkpt>
      <trkpt lat="45.6269" lon="4.58332">
        <ele>724.5</ele>
        <time>2015-04-26T09:03:30Z</time>
      </trkpt>
      <trkpt lat="45.62685" lon="4.58337">
        <ele>725.6</ele>
        <time>2015-04-26T09:03:35Z</time>
      </trkpt>
      <trkpt lat="45.6268" lon="4.5834">
        <ele>725.8</ele>
        <time>2015-04-26T09:03:40Z</time>
      </trkpt>
      <trkpt lat="45.62675" lon="4.58345">
        <ele>727.2</ele>
        <time>2015-04-26T09:03:45Z</time>
      </trkpt>
      <trkpt lat="45.62672" lon="4.5835">
        <ele>727.4</ele>
        <time>2015-04-26T09:03:50Z</time>
      </trkpt>
      <trkpt lat="45.62665" lon="4.58357">
        <ele>728.4</ele>
        <time>2015-04-26T09:03:55Z</time>
      </trkpt>
      <trkpt lat="45.6266" lon="4.58365">
        <ele>731.4</ele>
        <time>2015-04-26T09:04:00Z</time>
      </trkpt>
      <trkpt lat="45.62653" lon="4.58372">
        <ele>731.1</ele>
        <time>2015-04-26T09:04:05Z</time>
      </trkpt>
      <trkpt lat="45.62648" lon="4.58378">
        <ele>732.7</ele>
        <time>2015-04-26T09:04:10Z</time>
      </trkpt>
      <trkpt lat="45.62643" lon="4.58388">
        <ele>732.9</ele>
        <time>2015-04-26T09:04:15Z</time>
      </trkpt>
      <trkpt lat="45.6264" lon="4.58398">
        <ele>735.1</ele>
        <time>2015-04-26T09:04:20Z</time>
      </trkpt>
      <trkpt lat="45.62633" lon="4.58408">
        <ele>735</ele>
        <time>2015-04-26T09:04:25Z</time>
      </trkpt>
      <trkpt lat="45.62628" lon="4.58417">
        <ele>736.6</ele>
        <time>2015-04-26T09:04:30Z</time>
      </trkpt>
      <trkpt lat="45.62623" lon="4.58422">
        <ele>736.9</ele>
        <time>2015-04-26T09:04:35Z</time>
      </trkpt>
      <trkpt lat="45.6262" lon="4.5843">
        <ele>738.3</ele>
        <time>2015-04-26T09:04:40Z</time>
      </trkpt>
      <trkpt lat="45.62615" lon="4.58438">
        <ele>738.8</ele>
        <time>2015-04-26T09:04:45Z</time>
      </trkpt>
      <trkpt lat="45.62613" lon="4.5844">
        <ele>739.4</ele>
        <time>2015-04-26T09:04:50Z</time>
      </trkpt>
      <trkpt lat="45.62612" lon="4.58445">
        <ele>739.8</ele>
        <time>2015-04-26T09:04:55Z</time>
      </trkpt>
      <trkpt lat="45.62608" lon="4.58447">
        <ele>740</ele>
        <time>2015-04-26T09:05:00Z</time>
      </trkpt>
      <trkpt lat="45.62603" lon="4.5845">
        <ele>740.8</ele>
        <time>2015-04-26T09:05:05Z</time>
      </trkpt>
      <trkpt lat="45.62598" lon="4.58455">
        <ele>741.7</ele>
        <time>2015-04-26T09:05:10Z</time>
      </trkpt>
      <trkpt lat="45.6259" lon="4.58462">
        <ele>743.3</ele>
        <time>2015-04-26T09:05:15Z</time>
      </trkpt>
      <trkpt lat="45.62585" lon="4.58468">
        <ele>746.4</ele>
        <time>2015-04-26T09:05:20Z</time>
      </trkpt>
      <trkpt lat="45.62577" lon="4.58472">
        <ele>746.9</ele>
        <time>2015-04-26T09:05:25Z</time>
      </trkpt>
      <trkpt lat="45.62573" lon="4.58473">
        <ele>747.8</ele>
        <time>2015-04-26T09:05:30Z</time>
      </trkpt>
      <trkpt lat="45.62572" lon="4.58478">
        <ele>747.9</ele>
        <time>2015-04-26T09:05:35Z</time>
      </trkpt>
      <trkpt lat="45.62563" lon="4.58487">
        <ele>749.3</ele>
        <time>2015-04-26T09:05:40Z</time>
      </trkpt>
      <trkpt lat="45.62558" lon="4.58495">
        <ele>750.8</ele>
        <time>2015-04-26T09:05:45Z</time>
      </trkpt>
      <trkpt lat="45.62555" lon="4.58503">
        <ele>750.8</ele>
        <time>2015-04-26T09:05:50Z</time>
      </trkpt>
      <trkpt lat="45.62552" lon="4.58515">
        <ele>752.7</ele>
        <time>2015-04-26T09:05:55Z</time>
      </trkpt>
      <trkpt lat="45.62547" lon="4.58527">
        <ele>753.1</ele>
        <time>2015-04-26T09:06:00Z</time>
      </trkpt>
      <trkpt lat="45.62542" lon="4.58543">
        <ele>754</ele>
        <time>2015-04-26T09:06:05Z</time>
      </trkpt>
      <trkpt lat="45.62535" lon="4.58562">
        <ele>754.5</ele>
        <time>2015-04-26T09:06:10Z</time>
      </trkpt>
      <trkpt lat="45.62528" lon="4.58582">
        <ele>754.1</ele>
        <time>2015-04-26T09:06:15Z</time>
      </trkpt>
      <trkpt lat="45.62522" lon="4.58605">
        <ele>755.3</ele>
        <time>2015-04-26T09:06:20Z</time>
      </trkpt>
      <trkpt lat="45.62518" lon="4.58625">
        <ele>755.7</ele>
        <time>2015-04-26T09:06:25Z</time>
      </trkpt>
      <trkpt lat="45.62507" lon="4.58642">
        <ele>756.9</ele>
        <time>2015-04-26T09:06:30Z</time>
      </trkpt>
      <trkpt lat="45.62498" lon="4.58657">
        <ele>757.6</ele>
        <time>2015-04-26T09:06:35Z</time>
      </trkpt>
      <trkpt lat="45.6249" lon="4.58665">
        <ele>758.5</ele>
        <time>2015-04-26T09:06:40Z</time>
      </trkpt>
      <trkpt lat="45.62482" lon="4.58678">
        <ele>760</ele>
        <time>2015-04-26T09:06:45Z</time>
      </trkpt>
      <trkpt lat="45.62475" lon="4.58685">
        <ele>761</ele>
        <time>2015-04-26T09:06:50Z</time>
      </trkpt>
      <trkpt lat="45.62467" lon="4.58693">
        <ele>762.4</ele>
        <time>2015-04-26T09:06:55Z</time>
      </trkpt>
      <trkpt lat="45.62467" lon="4.58697">
        <ele>762.4</ele>
        <time>2015-04-26T09:07:00Z</time>
      </trkpt>
      <trkpt lat="45.6246" lon="4.58703">
        <ele>763.7</ele>
        <time>2015-04-26T09:07:10Z</time>
      </trkpt>
      <trkpt lat="45.62458" lon="4.58705">
        <ele>764.4</ele>
        <time>2015-04-26T09:07:15Z</time>
      </trkpt>
      <trkpt lat="45.62457" lon="4.58708">
        <ele>764.9</ele>
        <time>2015-04-26T09:07:20Z</time>
      </trkpt>
      <trkpt lat="45.62448" lon="4.58715">
        <ele>766.1</ele>
        <time>2015-04-26T09:07:25Z</time>
      </trkpt>
      <trkpt lat="45.62447" lon="4.5872">
        <ele>767.2</ele>
        <time>2015-04-26T09:07:30Z</time>
      </trkpt>
      <trkpt lat="45.62437" lon="4.58733">
        <ele>768.5</ele>
        <time>2015-04-26T09:07:35Z</time>
      </trkpt>
      <trkpt lat="45.62432" lon="4.58743">
        <ele>768.2</ele>
        <time>2015-04-26T09:07:40Z</time>
      </trkpt>
      <trkpt lat="45.62427" lon="4.5875">
        <ele>769.7</ele>
        <time>2015-04-26T09:07:45Z</time>
      </trkpt>
      <trkpt lat="45.62422" lon="4.58758">
        <ele>770.8</ele>
        <time>2015-04-26T09:07:50Z</time>
      </trkpt>
      <trkpt lat="45.62413" lon="4.58763">
        <ele>772.1</ele>
        <time>2015-04-26T09:07:55Z</time>
      </trkpt>
      <trkpt lat="45.62408" lon="4.5877">
        <ele>772.7</ele>
        <time>2015-04-26T09:08:00Z</time>
      </trkpt>
      <trkpt lat="45.62405" lon="4.58773">
        <ele>773.3</ele>
        <time>2015-04-26T09:08:05Z</time>
      </trkpt>
      <trkpt lat="45.62398" lon="4.5878">
        <ele>774</ele>
        <time>2015-04-26T09:08:10Z</time>
      </trkpt>
      <trkpt lat="45.62392" lon="4.58785">
        <ele>774.5</ele>
        <time>2015-04-26T09:08:15Z</time>
      </trkpt>
      <trkpt lat="45.62383" lon="4.5879">
        <ele>775.7</ele>
        <time>2015-04-26T09:08:20Z</time>
      </trkpt>
      <trkpt lat="45.6238" lon="4.58795">
        <ele>776.7</ele>
        <time>2015-04-26T09:08:25Z</time>
      </trkpt>
      <trkpt lat="45.62373" lon="4.58802">
        <ele>778</ele>
        <time>2015-04-26T09:08:30Z</time>
      </trkpt>
      <trkpt lat="45.62365" lon="4.58805">
        <ele>779.1</ele>
        <time>2015-04-26T09:08:35Z</time>
      </trkpt>
      <trkpt lat="45.62358" lon="4.58808">
        <ele>780.2</ele>
        <time>2015-04-26T09:08:40Z</time>
      </trkpt>
      <trkpt lat="45.62353" lon="4.58812">
        <ele>780.3</ele>
        <time>2015-04-26T09:08:45Z</time>
      </trkpt>
      <trkpt lat="45.62347" lon="4.58815">
        <ele>782.3</ele>
        <time>2015-04-26T09:08:50Z</time>
      </trkpt>
      <trkpt lat="45.62338" lon="4.58817">
        <ele>783.1</ele>
        <time>2015-04-26T09:08:55Z</time>
      </trkpt>
      <trkpt lat="45.62332" lon="4.5882">
        <ele>784</ele>
        <time>2015-04-26T09:09:00Z</time>
      </trkpt>
      <trkpt lat="45.62323" lon="4.58823">
        <ele>786.2</ele>
        <time>2015-04-26T09:09:05Z</time>
      </trkpt>
      <trkpt lat="45.62318" lon="4.58825">
        <ele>787.6</ele>
        <time>2015-04-26T09:09:10Z</time>
      </trkpt>
      <trkpt lat="45.62313" lon="4.58827">
        <ele>788.7</ele>
        <time>2015-04-26T09:09:15Z</time>
      </trkpt>
      <trkpt lat="45.62308" lon="4.58825">
        <ele>789.5</ele>
        <time>2015-04-26T09:09:20Z</time>
      </trkpt>
      <trkpt lat="45.62302" lon="4.58823">
        <ele>790.7</ele>
        <time>2015-04-26T09:09:25Z</time>
      </trkpt>
      <trkpt lat="45.62297" lon="4.58822">
        <ele>792.5</ele>
        <time>2015-04-26T09:09:30Z</time>
      </trkpt>
      <trkpt lat="45.62292" lon="4.5882">
        <ele>793.5</ele>
        <time>2015-04-26T09:09:35Z</time>
      </trkpt>
      <trkpt lat="45.62285" lon="4.58817">
        <ele>794.6</ele>
        <time>2015-04-26T09:09:40Z</time>
      </trkpt>
      <trkpt lat="45.6228" lon="4.58812">
        <ele>795.7</ele>
        <time>2015-04-26T09:09:45Z</time>
      </trkpt>
      <trkpt lat="45.62273" lon="4.58808">
        <ele>796.1</ele>
        <time>2015-04-26T09:09:50Z</time>
      </trkpt>
      <trkpt lat="45.62267" lon="4.58805">
        <ele>797.9</ele>
        <time>2015-04-26T09:09:55Z</time>
      </trkpt>
      <trkpt lat="45.6226" lon="4.588">
        <ele>798.6</ele>
        <time>2015-04-26T09:10:00Z</time>
      </trkpt>
      <trkpt lat="45.62252" lon="4.58798">
        <ele>798.6</ele>
        <time>2015-04-26T09:10:05Z</time>
      </trkpt>
      <trkpt lat="45.62242" lon="4.58793">
        <ele>799.3</ele>
        <time>2015-04-26T09:10:10Z</time>
      </trkpt>
      <trkpt lat="45.6223" lon="4.5879">
        <ele>800.4</ele>
        <time>2015-04-26T09:10:15Z</time>
      </trkpt>
      <trkpt lat="45.62217" lon="4.5879">
        <ele>799.2</ele>
        <time>2015-04-26T09:10:20Z</time>
      </trkpt>
      <trkpt lat="45.62205" lon="4.58795">
        <ele>800.7</ele>
        <time>2015-04-26T09:10:25Z</time>
      </trkpt>
      <trkpt lat="45.62197" lon="4.58813">
        <ele>800.6</ele>
        <time>2015-04-26T09:10:30Z</time>
      </trkpt>
      <trkpt lat="45.62187" lon="4.58833">
        <ele>801.4</ele>
        <time>2015-04-26T09:10:35Z</time>
      </trkpt>
      <trkpt lat="45.62173" lon="4.58852">
        <ele>801.4</ele>
        <time>2015-04-26T09:10:40Z</time>
      </trkpt>
      <trkpt lat="45.62162" lon="4.58867">
        <ele>802.1</ele>
        <time>2015-04-26T09:10:45Z</time>
      </trkpt>
      <trkpt lat="45.6215" lon="4.5888">
        <ele>803.1</ele>
        <time>2015-04-26T09:10:50Z</time>
      </trkpt>
      <trkpt lat="45.62143" lon="4.58892">
        <ele>804.3</ele>
        <time>2015-04-26T09:10:55Z</time>
      </trkpt>
      <trkpt lat="45.62135" lon="4.58903">
        <ele>806.1</ele>
        <time>2015-04-26T09:11:00Z</time>
      </trkpt>
      <trkpt lat="45.62128" lon="4.58913">
        <ele>806.8</ele>
        <time>2015-04-26T09:11:05Z</time>
      </trkpt>
      <trkpt lat="45.62123" lon="4.5892">
        <ele>808.9</ele>
        <time>2015-04-26T09:11:10Z</time>
      </trkpt>
      <trkpt lat="45.62117" lon="4.5893">
        <ele>810.4</ele>
        <time>2015-04-26T09:11:15Z</time>
      </trkpt>
      <trkpt lat="45.6211" lon="4.58938">
        <ele>810.8</ele>
        <time>2015-04-26T09:11:20Z</time>
      </trkpt>
      <trkpt lat="45.62103" lon="4.58948">
        <ele>812.4</ele>
        <time>2015-04-26T09:11:25Z</time>
      </trkpt>
      <trkpt lat="45.62097" lon="4.58962">
        <ele>813.2</ele>
        <time>2015-04-26T09:11:30Z</time>
      </trkpt>
      <trkpt lat="45.62088" lon="4.58973">
        <ele>813.8</ele>
        <time>2015-04-26T09:11:35Z</time>
      </trkpt>
      <trkpt lat="45.6208" lon="4.58988">
        <ele>814.9</ele>
        <time>2015-04-26T09:11:40Z</time>
      </trkpt>
      <trkpt lat="45.6207" lon="4.59005">
        <ele>815.4</ele>
        <time>2015-04-26T09:11:45Z</time>
      </trkpt>
      <trkpt lat="45.62065" lon="4.59022">
        <ele>816.3</ele>
        <time>2015-04-26T09:11:50Z</time>
      </trkpt>
      <trkpt lat="45.62058" lon="4.5904">
        <ele>817.3</ele>
        <time>2015-04-26T09:11:55Z</time>
      </trkpt>
      <trkpt lat="45.62052" lon="4.59058">
        <ele>818.6</ele>
        <time>2015-04-26T09:12:00Z</time>
      </trkpt>
      <trkpt lat="45.62047" lon="4.59078">
        <ele>820.1</ele>
        <time>2015-04-26T09:12:05Z</time>
      </trkpt>
      <trkpt lat="45.62042" lon="4.59098">
        <ele>820.3</ele>
        <time>2015-04-26T09:12:10Z</time>
      </trkpt>
      <trkpt lat="45.62035" lon="4.59118">
        <ele>820.3</ele>
        <time>2015-04-26T09:12:15Z</time>
      </trkpt>
      <trkpt lat="45.62027" lon="4.5914">
        <ele>821.3</ele>
        <time>2015-04-26T09:12:20Z</time>
      </trkpt>
      <trkpt lat="45.62018" lon="4.59162">
        <ele>820</ele>
        <time>2015-04-26T09:12:25Z</time>
      </trkpt>
      <trkpt lat="45.62007" lon="4.59185">
        <ele>822.1</ele>
        <time>2015-04-26T09:12:30Z</time>
      </trkpt>
      <trkpt lat="45.61998" lon="4.59203">
        <ele>821.5</ele>
        <time>2015-04-26T09:12:35Z</time>
      </trkpt>
      <trkpt lat="45.6199" lon="4.5922">
        <ele>823.3</ele>
        <time>2015-04-26T09:12:40Z</time>
      </trkpt>
      <trkpt lat="45.61982" lon="4.59235">
        <ele>823.6</ele>
        <time>2015-04-26T09:12:45Z</time>
      </trkpt>
      <trkpt lat="45.6197" lon="4.59245">
        <ele>824.8</ele>
        <time>2015-04-26T09:12:50Z</time>
      </trkpt>
      <trkpt lat="45.61957" lon="4.5926">
        <ele>824.2</ele>
        <time>2015-04-26T09:12:55Z</time>
      </trkpt>
      <trkpt lat="45.61942" lon="4.5928">
        <ele>823</ele>
        <time>2015-04-26T09:13:00Z</time>
      </trkpt>
      <trkpt lat="45.61923" lon="4.59303">
        <ele>822.7</ele>
        <time>2015-04-26T09:13:05Z</time>
      </trkpt>
      <trkpt lat="45.61905" lon="4.59332">
        <ele>821.4</ele>
        <time>2015-04-26T09:13:10Z</time>
      </trkpt>
      <trkpt lat="45.6188" lon="4.5935">
        <ele>822.6</ele>
        <time>2015-04-26T09:13:15Z</time>
      </trkpt>
      <trkpt lat="45.61847" lon="4.59353">
        <ele>820.1</ele>
        <time>2015-04-26T09:13:20Z</time>
      </trkpt>
      <trkpt lat="45.61813" lon="4.59358">
        <ele>819.3</ele>
        <time>2015-04-26T09:13:25Z</time>
      </trkpt>
      <trkpt lat="45.6178" lon="4.59355">
        <ele>817.9</ele>
        <time>2015-04-26T09:13:30Z</time>
      </trkpt>
      <trkpt lat="45.61747" lon="4.59352">
        <ele>816.8</ele>
        <time>2015-04-26T09:13:35Z</time>
      </trkpt>
      <trkpt lat="45.61718" lon="4.59343">
        <ele>817.3</ele>
        <time>2015-04-26T09:13:40Z</time>
      </trkpt>
      <trkpt lat="45.61692" lon="4.59337">
        <ele>816.9</ele>
        <time>2015-04-26T09:13:45Z</time>
      </trkpt>
      <trkpt lat="45.61665" lon="4.59333">
        <ele>817.6</ele>
        <time>2015-04-26T09:13:50Z</time>
      </trkpt>
      <trkpt lat="45.6164" lon="4.59332">
        <ele>819.6</ele>
        <time>2015-04-26T09:13:55Z</time>
      </trkpt>
      <trkpt lat="45.61615" lon="4.5933">
        <ele>819.1</ele>
        <time>2015-04-26T09:14:00Z</time>
      </trkpt>
      <trkpt lat="45.61597" lon="4.59328">
        <ele>818.4</ele>
        <time>2015-04-26T09:14:05Z</time>
      </trkpt>
      <trkpt lat="45.61575" lon="4.59325">
        <ele>817.5</ele>
        <time>2015-04-26T09:14:10Z</time>
      </trkpt>
      <trkpt lat="45.61552" lon="4.59318">
        <ele>814.5</ele>
        <time>2015-04-26T09:14:15Z</time>
      </trkpt>
      <trkpt lat="45.6152" lon="4.59313">
        <ele>813.5</ele>
        <time>2015-04-26T09:14:20Z</time>
      </trkpt>
      <trkpt lat="45.61487" lon="4.5931">
        <ele>811.5</ele>
        <time>2015-04-26T09:14:25Z</time>
      </trkpt>
      <trkpt lat="45.61452" lon="4.59307">
        <ele>811.8</ele>
        <time>2015-04-26T09:14:30Z</time>
      </trkpt>
      <trkpt lat="45.61413" lon="4.59298">
        <ele>806.2</ele>
        <time>2015-04-26T09:14:35Z</time>
      </trkpt>
      <trkpt lat="45.61377" lon="4.59288">
        <ele>801.1</ele>
        <time>2015-04-26T09:14:40Z</time>
      </trkpt>
      <trkpt lat="45.61342" lon="4.59272">
        <ele>797.2</ele>
        <time>2015-04-26T09:14:45Z</time>
      </trkpt>
      <trkpt lat="45.61305" lon="4.59258">
        <ele>794.9</ele>
        <time>2015-04-26T09:14:50Z</time>
      </trkpt>
      <trkpt lat="45.61263" lon="4.59243">
        <ele>789.6</ele>
        <time>2015-04-26T09:14:55Z</time>
      </trkpt>
      <trkpt lat="45.61233" lon="4.5924">
        <ele>783.8</ele>
        <time>2015-04-26T09:15:00Z</time>
      </trkpt>
      <trkpt lat="45.61203" lon="4.59207">
        <ele>775.4</ele>
        <time>2015-04-26T09:15:05Z</time>
      </trkpt>
      <trkpt lat="45.61168" lon="4.59165">
        <ele>770.6</ele>
        <time>2015-04-26T09:15:10Z</time>
      </trkpt>
      <trkpt lat="45.61133" lon="4.59128">
        <ele>765.5</ele>
        <time>2015-04-26T09:15:15Z</time>
      </trkpt>
      <trkpt lat="45.61093" lon="4.59107">
        <ele>755.9</ele>
        <time>2015-04-26T09:15:20Z</time>
      </trkpt>
      <trkpt lat="45.61058" lon="4.5907">
        <ele>753.7</ele>
        <time>2015-04-26T09:15:25Z</time>
      </trkpt>
      <trkpt lat="45.61012" lon="4.59048">
        <ele>750.1</ele>
        <time>2015-04-26T09:15:30Z</time>
      </trkpt>
      <trkpt lat="45.60962" lon="4.5904">
        <ele>742.3</ele>
        <time>2015-04-26T09:15:35Z</time>
      </trkpt>
      <trkpt lat="45.6091" lon="4.59027">
        <ele>739.8</ele>
        <time>2015-04-26T09:15:40Z</time>
      </trkpt>
      <trkpt lat="45.60862" lon="4.59027">
        <ele>729.4</ele>
        <time>2015-04-26T09:15:45Z</time>
      </trkpt>
      <trkpt lat="45.60855" lon="4.59037">
        <ele>726.5</ele>
        <time>2015-04-26T09:15:50Z</time>
      </trkpt>
      <trkpt lat="45.60863" lon="4.5905">
        <ele>727.2</ele>
        <time>2015-04-26T09:15:55Z</time>
      </trkpt>
      <trkpt lat="45.60872" lon="4.5907">
        <ele>728.6</ele>
        <time>2015-04-26T09:16:00Z</time>
      </trkpt>
      <trkpt lat="45.60882" lon="4.59095">
        <ele>729.9</ele>
        <time>2015-04-26T09:16:05Z</time>
      </trkpt>
      <trkpt lat="45.6089" lon="4.59123">
        <ele>729.7</ele>
        <time>2015-04-26T09:16:10Z</time>
      </trkpt>
      <trkpt lat="45.609" lon="4.59155">
        <ele>731.4</ele>
        <time>2015-04-26T09:16:15Z</time>
      </trkpt>
      <trkpt lat="45.609" lon="4.5919">
        <ele>731.4</ele>
        <time>2015-04-26T09:16:20Z</time>
      </trkpt>
      <trkpt lat="45.60898" lon="4.5923">
        <ele>730.9</ele>
        <time>2015-04-26T09:16:25Z</time>
      </trkpt>
      <trkpt lat="45.60893" lon="4.5928">
        <ele>728.8</ele>
        <time>2015-04-26T09:16:30Z</time>
      </trkpt>
      <trkpt lat="45.6089" lon="4.59333">
        <ele>727.1</ele>
        <time>2015-04-26T09:16:35Z</time>
      </trkpt>
      <trkpt lat="45.60883" lon="4.59385">
        <ele>727.2</ele>
        <time>2015-04-26T09:16:40Z</time>
      </trkpt>
      <trkpt lat="45.60873" lon="4.59432">
        <ele>727.4</ele>
        <time>2015-04-26T09:16:45Z</time>
      </trkpt>
      <trkpt lat="45.60872" lon="4.59477">
        <ele>728.3</ele>
        <time>2015-04-26T09:16:50Z</time>
      </trkpt>
      <trkpt lat="45.60873" lon="4.59513">
        <ele>727.6</ele>
        <time>2015-04-26T09:16:55Z</time>
      </trkpt>
      <trkpt lat="45.60882" lon="4.59547">
        <ele>727.4</ele>
        <time>2015-04-26T09:17:00Z</time>
      </trkpt>
      <trkpt lat="45.60898" lon="4.5958">
        <ele>727.7</ele>
        <time>2015-04-26T09:17:05Z</time>
      </trkpt>
      <trkpt lat="45.6092" lon="4.59612">
        <ele>726.8</ele>
        <time>2015-04-26T09:17:10Z</time>
      </trkpt>
      <trkpt lat="45.60938" lon="4.59638">
        <ele>726.9</ele>
        <time>2015-04-26T09:17:15Z</time>
      </trkpt>
      <trkpt lat="45.60955" lon="4.5968">
        <ele>724.3</ele>
        <time>2015-04-26T09:17:20Z</time>
      </trkpt>
      <trkpt lat="45.6097" lon="4.59722">
        <ele>724.2</ele>
        <time>2015-04-26T09:17:25Z</time>
      </trkpt>
      <trkpt lat="45.60987" lon="4.59763">
        <ele>721.7</ele>
        <time>2015-04-26T09:17:30Z</time>
      </trkpt>
      <trkpt lat="45.6103" lon="4.59777">
        <ele>715.4</ele>
        <time>2015-04-26T09:17:35Z</time>
      </trkpt>
      <trkpt lat="45.61033" lon="4.59815">
        <ele>715</ele>
        <time>2015-04-26T09:17:40Z</time>
      </trkpt>
      <trkpt lat="45.6102" lon="4.59865">
        <ele>713.1</ele>
        <time>2015-04-26T09:17:45Z</time>
      </trkpt>
      <trkpt lat="45.61022" lon="4.59905">
        <ele>712.4</ele>
        <time>2015-04-26T09:17:50Z</time>
      </trkpt>
      <trkpt lat="45.6103" lon="4.59927">
        <ele>714</ele>
        <time>2015-04-26T09:17:55Z</time>
      </trkpt>
      <trkpt lat="45.61038" lon="4.59948">
        <ele>716.8</ele>
        <time>2015-04-26T09:18:00Z</time>
      </trkpt>
      <trkpt lat="45.61048" lon="4.59965">
        <ele>717.3</ele>
        <time>2015-04-26T09:18:05Z</time>
      </trkpt>
      <trkpt lat="45.61057" lon="4.59982">
        <ele>719.1</ele>
        <time>2015-04-26T09:18:10Z</time>
      </trkpt>
      <trkpt lat="45.61073" lon="4.59997">
        <ele>716.9</ele>
        <time>2015-04-26T09:18:15Z</time>
      </trkpt>
      <trkpt lat="45.61095" lon="4.60018">
        <ele>717.9</ele>
        <time>2015-04-26T09:18:20Z</time>
      </trkpt>
      <trkpt lat="45.6112" lon="4.60035">
        <ele>717.6</ele>
        <time>2015-04-26T09:18:25Z</time>
      </trkpt>
      <trkpt lat="45.61152" lon="4.6005">
        <ele>715.6</ele>
        <time>2015-04-26T09:18:30Z</time>
      </trkpt>
      <trkpt lat="45.6118" lon="4.60077">
        <ele>711.2</ele>
        <time>2015-04-26T09:18:35Z</time>
      </trkpt>
      <trkpt lat="45.61182" lon="4.60115">
        <ele>710.5</ele>
        <time>2015-04-26T09:18:40Z</time>
      </trkpt>
      <trkpt lat="45.61188" lon="4.60172">
        <ele>706.3</ele>
        <time>2015-04-26T09:18:45Z</time>
      </trkpt>
      <trkpt lat="45.61198" lon="4.60233">
        <ele>706.9</ele>
        <time>2015-04-26T09:18:50Z</time>
      </trkpt>
      <trkpt lat="45.61212" lon="4.60277">
        <ele>699.6</ele>
        <time>2015-04-26T09:18:55Z</time>
      </trkpt>
      <trkpt lat="45.61228" lon="4.60297">
        <ele>697.9</ele>
        <time>2015-04-26T09:19:00Z</time>
      </trkpt>
      <trkpt lat="45.61242" lon="4.60323">
        <ele>696.2</ele>
        <time>2015-04-26T09:19:05Z</time>
      </trkpt>
      <trkpt lat="45.61262" lon="4.6035">
        <ele>696.9</ele>
        <time>2015-04-26T09:19:10Z</time>
      </trkpt>
      <trkpt lat="45.61285" lon="4.6037">
        <ele>694.3</ele>
        <time>2015-04-26T09:19:15Z</time>
      </trkpt>
      <trkpt lat="45.61295" lon="4.60398">
        <ele>697.3</ele>
        <time>2015-04-26T09:19:20Z</time>
      </trkpt>
      <trkpt lat="45.61298" lon="4.60423">
        <ele>698.4</ele>
        <time>2015-04-26T09:19:25Z</time>
      </trkpt>
      <trkpt lat="45.613" lon="4.60458">
        <ele>699.1</ele>
        <time>2015-04-26T09:19:30Z</time>
      </trkpt>
      <trkpt lat="45.61302" lon="4.6049">
        <ele>697</ele>
        <time>2015-04-26T09:19:35Z</time>
      </trkpt>
      <trkpt lat="45.61305" lon="4.60505">
        <ele>700.2</ele>
        <time>2015-04-26T09:19:40Z</time>
      </trkpt>
      <trkpt lat="45.61313" lon="4.6052">
        <ele>702.8</ele>
        <time>2015-04-26T09:19:45Z</time>
      </trkpt>
      <trkpt lat="45.61323" lon="4.60535">
        <ele>702.4</ele>
        <time>2015-04-26T09:19:50Z</time>
      </trkpt>
      <trkpt lat="45.61342" lon="4.6055">
        <ele>701.1</ele>
        <time>2015-04-26T09:19:55Z</time>
      </trkpt>
      <trkpt lat="45.61365" lon="4.60565">
        <ele>702.1</ele>
        <time>2015-04-26T09:20:00Z</time>
      </trkpt>
      <trkpt lat="45.61388" lon="4.6057">
        <ele>702.8</ele>
        <time>2015-04-26T09:20:05Z</time>
      </trkpt>
      <trkpt lat="45.61405" lon="4.60575">
        <ele>703.1</ele>
        <time>2015-04-26T09:20:10Z</time>
      </trkpt>
      <trkpt lat="45.61422" lon="4.6058">
        <ele>703.6</ele>
        <time>2015-04-26T09:20:15Z</time>
      </trkpt>
      <trkpt lat="45.61442" lon="4.60582">
        <ele>703.6</ele>
        <time>2015-04-26T09:20:20Z</time>
      </trkpt>
      <trkpt lat="45.61462" lon="4.60578">
        <ele>702</ele>
        <time>2015-04-26T09:20:25Z</time>
      </trkpt>
      <trkpt lat="45.61477" lon="4.60577">
        <ele>701.3</ele>
        <time>2015-04-26T09:20:30Z</time>
      </trkpt>
      <trkpt lat="45.61493" lon="4.60592">
        <ele>702.7</ele>
        <time>2015-04-26T09:20:35Z</time>
      </trkpt>
      <trkpt lat="45.61512" lon="4.60605">
        <ele>703.9</ele>
        <time>2015-04-26T09:20:40Z</time>
      </trkpt>
      <trkpt lat="45.61528" lon="4.60622">
        <ele>702.6</ele>
        <time>2015-04-26T09:20:45Z</time>
      </trkpt>
      <trkpt lat="45.61548" lon="4.60635">
        <ele>701.5</ele>
        <time>2015-04-26T09:20:50Z</time>
      </trkpt>
      <trkpt lat="45.6158" lon="4.60657">
        <ele>697.1</ele>
        <time>2015-04-26T09:20:55Z</time>
      </trkpt>
      <trkpt lat="45.61608" lon="4.60697">
        <ele>696.8</ele>
        <time>2015-04-26T09:21:00Z</time>
      </trkpt>
      <trkpt lat="45.61637" lon="4.6073">
        <ele>694.7</ele>
        <time>2015-04-26T09:21:05Z</time>
      </trkpt>
      <trkpt lat="45.61662" lon="4.60745">
        <ele>694.7</ele>
        <time>2015-04-26T09:21:10Z</time>
      </trkpt>
      <trkpt lat="45.61677" lon="4.60747">
        <ele>695.9</ele>
        <time>2015-04-26T09:21:15Z</time>
      </trkpt>
      <trkpt lat="45.61687" lon="4.6075">
        <ele>697.5</ele>
        <time>2015-04-26T09:21:20Z</time>
      </trkpt>
      <trkpt lat="45.617" lon="4.60745">
        <ele>698.7</ele>
        <time>2015-04-26T09:21:25Z</time>
      </trkpt>
      <trkpt lat="45.6171" lon="4.60735">
        <ele>699.3</ele>
        <time>2015-04-26T09:21:30Z</time>
      </trkpt>
      <trkpt lat="45.61718" lon="4.60733">
        <ele>700.3</ele>
        <time>2015-04-26T09:21:35Z</time>
      </trkpt>
      <trkpt lat="45.61727" lon="4.6073">
        <ele>701.1</ele>
        <time>2015-04-26T09:21:40Z</time>
      </trkpt>
      <trkpt lat="45.61732" lon="4.60733">
        <ele>701.9</ele>
        <time>2015-04-26T09:21:45Z</time>
      </trkpt>
      <trkpt lat="45.61743" lon="4.60733">
        <ele>703.4</ele>
        <time>2015-04-26T09:21:50Z</time>
      </trkpt>
      <trkpt lat="45.61755" lon="4.60735">
        <ele>704.9</ele>
        <time>2015-04-26T09:21:55Z</time>
      </trkpt>
      <trkpt lat="45.61765" lon="4.60743">
        <ele>705.1</ele>
        <time>2015-04-26T09:22:00Z</time>
      </trkpt>
      <trkpt lat="45.61772" lon="4.60745">
        <ele>707.2</ele>
        <time>2015-04-26T09:22:05Z</time>
      </trkpt>
      <trkpt lat="45.6178" lon="4.60753">
        <ele>706.7</ele>
        <time>2015-04-26T09:22:10Z</time>
      </trkpt>
      <trkpt lat="45.61777" lon="4.60772">
        <ele>706.5</ele>
        <time>2015-04-26T09:22:15Z</time>
      </trkpt>
      <trkpt lat="45.61785" lon="4.608">
        <ele>700.3</ele>
        <time>2015-04-26T09:22:20Z</time>
      </trkpt>
      <trkpt lat="45.61805" lon="4.60832">
        <ele>696.6</ele>
        <time>2015-04-26T09:22:25Z</time>
      </trkpt>
      <trkpt lat="45.61828" lon="4.6085">
        <ele>690.3</ele>
        <time>2015-04-26T09:22:30Z</time>
      </trkpt>
      <trkpt lat="45.6185" lon="4.60848">
        <ele>684.2</ele>
        <time>2015-04-26T09:22:35Z</time>
      </trkpt>
      <trkpt lat="45.61863" lon="4.60847">
        <ele>685.2</ele>
        <time>2015-04-26T09:22:40Z</time>
      </trkpt>
      <trkpt lat="45.61883" lon="4.60853">
        <ele>675.9</ele>
        <time>2015-04-26T09:22:45Z</time>
      </trkpt>
      <trkpt lat="45.61908" lon="4.60865">
        <ele>669.3</ele>
        <time>2015-04-26T09:22:50Z</time>
      </trkpt>
      <trkpt lat="45.61925" lon="4.60872">
        <ele>664.6</ele>
        <time>2015-04-26T09:22:55Z</time>
      </trkpt>
      <trkpt lat="45.61942" lon="4.6088">
        <ele>660.7</ele>
        <time>2015-04-26T09:23:00Z</time>
      </trkpt>
      <trkpt lat="45.61962" lon="4.60883">
        <ele>656</ele>
        <time>2015-04-26T09:23:05Z</time>
      </trkpt>
      <trkpt lat="45.6197" lon="4.60882">
        <ele>653.9</ele>
        <time>2015-04-26T09:23:10Z</time>
      </trkpt>
      <trkpt lat="45.61963" lon="4.60885">
        <ele>652.5</ele>
        <time>2015-04-26T09:23:15Z</time>
      </trkpt>
      <trkpt lat="45.61945" lon="4.6089">
        <ele>648.4</ele>
        <time>2015-04-26T09:23:20Z</time>
      </trkpt>
      <trkpt lat="45.61917" lon="4.60902">
        <ele>646.5</ele>
        <time>2015-04-26T09:23:25Z</time>
      </trkpt>
      <trkpt lat="45.61883" lon="4.60928">
        <ele>641.2</ele>
        <time>2015-04-26T09:23:30Z</time>
      </trkpt>
      <trkpt lat="45.61862" lon="4.60933">
        <ele>642.7</ele>
        <time>2015-04-26T09:23:35Z</time>
      </trkpt>
      <trkpt lat="45.6184" lon="4.60937">
        <ele>642.7</ele>
        <time>2015-04-26T09:23:40Z</time>
      </trkpt>
      <trkpt lat="45.61822" lon="4.60938">
        <ele>642.5</ele>
        <time>2015-04-26T09:23:45Z</time>
      </trkpt>
      <trkpt lat="45.61797" lon="4.60935">
        <ele>642.7</ele>
        <time>2015-04-26T09:23:50Z</time>
      </trkpt>
      <trkpt lat="45.61767" lon="4.60937">
        <ele>639.1</ele>
        <time>2015-04-26T09:23:55Z</time>
      </trkpt>
      <trkpt lat="45.61737" lon="4.60967">
        <ele>639.6</ele>
        <time>2015-04-26T09:24:00Z</time>
      </trkpt>
      <trkpt lat="45.61702" lon="4.60997">
        <ele>636.9</ele>
        <time>2015-04-26T09:24:05Z</time>
      </trkpt>
      <trkpt lat="45.61672" lon="4.61027">
        <ele>632.3</ele>
        <time>2015-04-26T09:24:10Z</time>
      </trkpt>
      <trkpt lat="45.61653" lon="4.6107">
        <ele>629.1</ele>
        <time>2015-04-26T09:24:15Z</time>
      </trkpt>
      <trkpt lat="45.61633" lon="4.61127">
        <ele>624.3</ele>
        <time>2015-04-26T09:24:20Z</time>
      </trkpt>
      <trkpt lat="45.61607" lon="4.61192">
        <ele>625.9</ele>
        <time>2015-04-26T09:24:25Z</time>
      </trkpt>
      <trkpt lat="45.6159" lon="4.61243">
        <ele>619.7</ele>
        <time>2015-04-26T09:24:30Z</time>
      </trkpt>
      <trkpt lat="45.61568" lon="4.613">
        <ele>620.9</ele>
        <time>2015-04-26T09:24:35Z</time>
      </trkpt>
      <trkpt lat="45.61545" lon="4.61358">
        <ele>614</ele>
        <time>2015-04-26T09:24:40Z</time>
      </trkpt>
      <trkpt lat="45.6151" lon="4.61395">
        <ele>610.2</ele>
        <time>2015-04-26T09:24:45Z</time>
      </trkpt>
      <trkpt lat="45.61488" lon="4.61423">
        <ele>608.5</ele>
        <time>2015-04-26T09:24:50Z</time>
      </trkpt>
      <trkpt lat="45.61457" lon="4.6145">
        <ele>607.5</ele>
        <time>2015-04-26T09:24:55Z</time>
      </trkpt>
      <trkpt lat="45.61438" lon="4.61442">
        <ele>596.1</ele>
        <time>2015-04-26T09:25:00Z</time>
      </trkpt>
      <trkpt lat="45.61418" lon="4.61418">
        <ele>589</ele>
        <time>2015-04-26T09:25:05Z</time>
      </trkpt>
      <trkpt lat="45.61385" lon="4.61377">
        <ele>583.2</ele>
        <time>2015-04-26T09:25:10Z</time>
      </trkpt>
      <trkpt lat="45.61347" lon="4.61335">
        <ele>573.8</ele>
        <time>2015-04-26T09:25:15Z</time>
      </trkpt>
      <trkpt lat="45.61312" lon="4.61308">
        <ele>575.7</ele>
        <time>2015-04-26T09:25:20Z</time>
      </trkpt>
      <trkpt lat="45.61282" lon="4.61263">
        <ele>554.2</ele>
        <time>2015-04-26T09:25:25Z</time>
      </trkpt>
      <trkpt lat="45.61252" lon="4.61243">
        <ele>556.8</ele>
        <time>2015-04-26T09:25:30Z</time>
      </trkpt>
      <trkpt lat="45.61218" lon="4.61217">
        <ele>549.9</ele>
        <time>2015-04-26T09:25:35Z</time>
      </trkpt>
      <trkpt lat="45.6118" lon="4.61208">
        <ele>545.8</ele>
        <time>2015-04-26T09:25:40Z</time>
      </trkpt>
      <trkpt lat="45.6114" lon="4.61213">
        <ele>546.9</ele>
        <time>2015-04-26T09:25:45Z</time>
      </trkpt>
      <trkpt lat="45.61112" lon="4.61257">
        <ele>544</ele>
        <time>2015-04-26T09:25:50Z</time>
      </trkpt>
      <trkpt lat="45.61078" lon="4.61305">
        <ele>537.9</ele>
        <time>2015-04-26T09:25:55Z</time>
      </trkpt>
      <trkpt lat="45.61048" lon="4.61327">
        <ele>535.9</ele>
        <time>2015-04-26T09:26:00Z</time>
      </trkpt>
      <trkpt lat="45.61023" lon="4.61338">
        <ele>538</ele>
        <time>2015-04-26T09:26:05Z</time>
      </trkpt>
      <trkpt lat="45.60998" lon="4.61345">
        <ele>539</ele>
        <time>2015-04-26T09:26:10Z</time>
      </trkpt>
      <trkpt lat="45.60973" lon="4.61342">
        <ele>540.8</ele>
        <time>2015-04-26T09:26:15Z</time>
      </trkpt>
      <trkpt lat="45.60948" lon="4.6133">
        <ele>542.5</ele>
        <time>2015-04-26T09:26:20Z</time>
      </trkpt>
      <trkpt lat="45.60928" lon="4.61308">
        <ele>542.3</ele>
        <time>2015-04-26T09:26:25Z</time>
      </trkpt>
      <trkpt lat="45.60913" lon="4.61285">
        <ele>545.4</ele>
        <time>2015-04-26T09:26:30Z</time>
      </trkpt>
      <trkpt lat="45.60898" lon="4.61263">
        <ele>545.3</ele>
        <time>2015-04-26T09:26:35Z</time>
      </trkpt>
      <trkpt lat="45.60887" lon="4.61247">
        <ele>546.1</ele>
        <time>2015-04-26T09:26:40Z</time>
      </trkpt>
      <trkpt lat="45.60875" lon="4.61228">
        <ele>547.1</ele>
        <time>2015-04-26T09:26:45Z</time>
      </trkpt>
      <trkpt lat="45.60865" lon="4.6121">
        <ele>547.5</ele>
        <time>2015-04-26T09:26:50Z</time>
      </trkpt>
      <trkpt lat="45.60857" lon="4.61188">
        <ele>548.7</ele>
        <time>2015-04-26T09:26:55Z</time>
      </trkpt>
      <trkpt lat="45.60852" lon="4.61165">
        <ele>550.6</ele>
        <time>2015-04-26T09:27:00Z</time>
      </trkpt>
      <trkpt lat="45.60847" lon="4.61142">
        <ele>551</ele>
        <time>2015-04-26T09:27:05Z</time>
      </trkpt>
      <trkpt lat="45.60842" lon="4.61118">
        <ele>552.3</ele>
        <time>2015-04-26T09:27:10Z</time>
      </trkpt>
      <trkpt lat="45.60838" lon="4.61093">
        <ele>553.3</ele>
        <time>2015-04-26T09:27:15Z</time>
      </trkpt>
      <trkpt lat="45.60837" lon="4.61068">
        <ele>554</ele>
        <time>2015-04-26T09:27:20Z</time>
      </trkpt>
      <trkpt lat="45.60837" lon="4.61043">
        <ele>554.4</ele>
        <time>2015-04-26T09:27:25Z</time>
      </trkpt>
      <trkpt lat="45.60835" lon="4.61022">
        <ele>555.5</ele>
        <time>2015-04-26T09:27:30Z</time>
      </trkpt>
      <trkpt lat="45.60833" lon="4.61007">
        <ele>555.3</ele>
        <time>2015-04-26T09:27:35Z</time>
      </trkpt>
      <trkpt lat="45.60823" lon="4.60987">
        <ele>554.1</ele>
        <time>2015-04-26T09:27:40Z</time>
      </trkpt>
      <trkpt lat="45.60807" lon="4.60958">
        <ele>549.1</ele>
        <time>2015-04-26T09:27:45Z</time>
      </trkpt>
      <trkpt lat="45.60787" lon="4.60925">
        <ele>542</ele>
        <time>2015-04-26T09:27:50Z</time>
      </trkpt>
      <trkpt lat="45.60765" lon="4.60887">
        <ele>537.5</ele>
        <time>2015-04-26T09:27:55Z</time>
      </trkpt>
      <trkpt lat="45.60747" lon="4.60823">
        <ele>527.4</ele>
        <time>2015-04-26T09:28:00Z</time>
      </trkpt>
      <trkpt lat="45.60737" lon="4.6078">
        <ele>522.2</ele>
        <time>2015-04-26T09:28:05Z</time>
      </trkpt>
      <trkpt lat="45.60732" lon="4.60742">
        <ele>524.2</ele>
        <time>2015-04-26T09:28:10Z</time>
      </trkpt>
      <trkpt lat="45.60707" lon="4.60718">
        <ele>524.9</ele>
        <time>2015-04-26T09:28:15Z</time>
      </trkpt>
      <trkpt lat="45.60683" lon="4.60728">
        <ele>525.1</ele>
        <time>2015-04-26T09:28:20Z</time>
      </trkpt>
      <trkpt lat="45.60662" lon="4.60745">
        <ele>525.2</ele>
        <time>2015-04-26T09:28:25Z</time>
      </trkpt>
      <trkpt lat="45.60637" lon="4.60762">
        <ele>525.2</ele>
        <time>2015-04-26T09:28:30Z</time>
      </trkpt>
      <trkpt lat="45.60603" lon="4.60763">
        <ele>524.5</ele>
        <time>2015-04-26T09:28:35Z</time>
      </trkpt>
      <trkpt lat="45.6057" lon="4.60752">
        <ele>523</ele>
        <time>2015-04-26T09:28:40Z</time>
      </trkpt>
      <trkpt lat="45.60545" lon="4.6072">
        <ele>519.2</ele>
        <time>2015-04-26T09:28:45Z</time>
      </trkpt>
      <trkpt lat="45.60518" lon="4.60683">
        <ele>519.1</ele>
        <time>2015-04-26T09:28:50Z</time>
      </trkpt>
      <trkpt lat="45.6049" lon="4.6064">
        <ele>515</ele>
        <time>2015-04-26T09:28:55Z</time>
      </trkpt>
      <trkpt lat="45.60458" lon="4.60595">
        <ele>514.3</ele>
        <time>2015-04-26T09:29:00Z</time>
      </trkpt>
      <trkpt lat="45.60428" lon="4.6055">
        <ele>511.8</ele>
        <time>2015-04-26T09:29:05Z</time>
      </trkpt>
      <trkpt lat="45.60395" lon="4.605">
        <ele>511.7</ele>
        <time>2015-04-26T09:29:10Z</time>
      </trkpt>
      <trkpt lat="45.6036" lon="4.60452">
        <ele>505.6</ele>
        <time>2015-04-26T09:29:15Z</time>
      </trkpt>
      <trkpt lat="45.60323" lon="4.60398">
        <ele>504.2</ele>
        <time>2015-04-26T09:29:20Z</time>
      </trkpt>
      <trkpt lat="45.60297" lon="4.6034">
        <ele>502.3</ele>
        <time>2015-04-26T09:29:25Z</time>
      </trkpt>
      <trkpt lat="45.60265" lon="4.60288">
        <ele>500.2</ele>
        <time>2015-04-26T09:29:30Z</time>
      </trkpt>
      <trkpt lat="45.60227" lon="4.60318">
        <ele>501.7</ele>
        <time>2015-04-26T09:29:35Z</time>
      </trkpt>
      <trkpt lat="45.602" lon="4.60353">
        <ele>504.3</ele>
        <time>2015-04-26T09:29:40Z</time>
      </trkpt>
      <trkpt lat="45.60178" lon="4.60385">
        <ele>505</ele>
        <time>2015-04-26T09:29:45Z</time>
      </trkpt>
      <trkpt lat="45.60157" lon="4.6041">
        <ele>506.9</ele>
        <time>2015-04-26T09:29:50Z</time>
      </trkpt>
      <trkpt lat="45.60133" lon="4.60415">
        <ele>507.4</ele>
        <time>2015-04-26T09:29:55Z</time>
      </trkpt>
      <trkpt lat="45.60108" lon="4.6041">
        <ele>507.6</ele>
        <time>2015-04-26T09:30:00Z</time>
      </trkpt>
      <trkpt lat="45.60085" lon="4.60403">
        <ele>507.6</ele>
        <time>2015-04-26T09:30:05Z</time>
      </trkpt>
      <trkpt lat="45.60068" lon="4.604">
        <ele>506.1</ele>
        <time>2015-04-26T09:30:10Z</time>
      </trkpt>
      <trkpt lat="45.6005" lon="4.60395">
        <ele>504.6</ele>
        <time>2015-04-26T09:30:15Z</time>
      </trkpt>
      <trkpt lat="45.60025" lon="4.60388">
        <ele>504.6</ele>
        <time>2015-04-26T09:30:20Z</time>
      </trkpt>
      <trkpt lat="45.60003" lon="4.60387">
        <ele>503.1</ele>
        <time>2015-04-26T09:30:25Z</time>
      </trkpt>
      <trkpt lat="45.59987" lon="4.60413">
        <ele>501.5</ele>
        <time>2015-04-26T09:30:30Z</time>
      </trkpt>
      <trkpt lat="45.59968" lon="4.6045">
        <ele>500.5</ele>
        <time>2015-04-26T09:30:35Z</time>
      </trkpt>
      <trkpt lat="45.59948" lon="4.60483">
        <ele>499.1</ele>
        <time>2015-04-26T09:30:40Z</time>
      </trkpt>
      <trkpt lat="45.5994" lon="4.6051">
        <ele>498.9</ele>
        <time>2015-04-26T09:30:45Z</time>
      </trkpt>
      <trkpt lat="45.59958" lon="4.60532">
        <ele>496.2</ele>
        <time>2015-04-26T09:30:50Z</time>
      </trkpt>
      <trkpt lat="45.59958" lon="4.6054">
        <ele>494.8</ele>
        <time>2015-04-26T09:30:55Z</time>
      </trkpt>
    </trkseg>
  </trk>
  <rte>
      <rtept lat="45.59952" lon="4.60543">
        <ele>532.3</ele>
      </rtept>
      <rtept lat="45.59958" lon="4.6054">
        <ele>532.3</ele>
      </rtept>
    </rte>
</gpx>